     2              OBSERVATION DATA    GPS                 RINEX VERSION / TYPE
teqc 1997Jul24 19970814                                     PGM / RUN BY / DATE
                                                            COMMENT
Original Marker Name: NEED                                  COMMENT
Campaign Name: HPGN 1991                                    COMMENT
4-Character Station Name: NEED                              COMMENT
6-Character Antenna Code: TRMSST                            COMMENT
Vertical Measurement Point: BPA                             COMMENT
Vertical Offset to Rinex Ref. Point: 0.0000                 COMMENT
Radial Measurement Point: RRP                               COMMENT
Radial Offset to Rinex Ref. Point: 0.0000                   COMMENT
Antenna Height from Field Measurement: 2.2200 m             COMMENT
Original XYZ: -2182826.7912 -4766843.0438 3620389.2356      COMMENT
New XYZ position is based on association with SCEC monument COMMENT
E1F3O4M8+0011. Position of that monument is believed to be  COMMENT
valid to within 1 m horizontally; vertical accuracy         COMMENT
should be no worse than 3-times this value.                 COMMENT
                                                            COMMENT
Revised Rinex header created by UCSD GPS archive for        COMMENT
GSAC on 14-Apr-1999 (1999:104) 23:56:37 GMT                 COMMENT
For assistance contact dagnew@ucsd.edu or hjohnson@ucsd.edu COMMENT
                                                            COMMENT
NEEDLES 1934                                                MARKER NAME
unknown NATIONAL GEODETIC SURVEY                            OBSERVER / AGENCY
484 TRIMBLE 4000 SST NP 4.30 / SP 4.20                      REC # / TYPE / VERS
18 TR 4000SST L1/L2 GEO                                     ANT # / TYPE
 -2182830.0000 -4766839.0000  3620381.0000                  APPROX POSITION XYZ
        2.2200        0.0000        0.0000                  ANTENNA: DELTA H/E/N
     1     1     0                                          WAVELENGTH FACT L1/2
     3    C1    L1    L2                                    # / TYPES OF OBSERV
     0                                                      INTERVAL
  1991     5     7    18    53   15.000000                  TIME OF FIRST OBS
  1991     5     8     1     1   60.000000                  TIME OF LAST OBS
     0                                                      # OF SATELLITES
                                                            END OF HEADER
 91  5  7 18 53 15.0000000  0  4G18G11G19G 2
  20526966.258          -0.57318        -0.16832
  23586732.195          -0.29816        -0.00531
  20933624.508          -0.54517        -0.34832
  24195181.469          -0.48915        -0.19831
 91  5  7 18 53 45.0000000  0  4G18G11G19G 2
  20527879.930        4800.466 8      3740.86423
  23569455.5474     -90799.00346    -70752.05861
  20926167.539      -39183.940 7    -30532.83022
  24172449.336     -119440.859 5    -93070.23821
 91  5  7 18 54  0.0000000  0  4G18G11G19G 2
  20528357.953        7314.365 8      5699.72923
  23560831.445     -136120.702 6   -106067.57921
  20922442.063      -58774.375 6    -45798.08822
  24161086.617     -179163.869 5   -139607.43721
 91  5  7 18 54 15.0000000  0  4G18G11G19G 2
  20528857.234        9936.405 8      7742.85522
  23552221.000     -181357.604 6   -141317.03121
  20918716.641      -78331.377 7    -61037.29022
  24149723.398     -238856.000 5   -186120.57521
 91  5  7 18 54 30.0000000  0  4G18G11G19G 2
  20529381.891       12696.472 8      9893.54023
  23543634.4534    -226479.17046   -176476.60161
  20915010.477      -97825.041 7    -76227.13822
  24138380.6884    -298487.12445   -232586.16261
 91  5  7 18 54 45.0000000  0  4G18G11G19G 2
  20529927.984       15563.211 8     12127.34723
  23535064.6564    -271516.28546   -211570.37061
  20911304.648     -117286.521 7    -91391.91322
  24127035.2974    -358088.24845   -279028.40261
 91  5  7 18 55  0.0000000  0  4G18G11G19G 2
  20530498.109       18559.087 8     14461.77223
  23526513.8754    -316446.10046   -246580.52361
  20907612.766     -136693.374 7   -106514.11322
  24115703.2974    -417636.65845   -325429.53061
 91  5  7 18 55 15.0000000  0  4G18G11G19G 2
  20531091.578       21673.630 8     16888.66523
  23517982.258     -361279.103 6   -281515.26021
  20903925.477     -156056.335 7   -121602.11522
  24104380.8594    -477142.86245   -371797.82261
 91  5  7 18 55 30.0000000  0  4G18G11G19G 2
  20531706.0164      24907.80248     19408.77463
  23509470.031     -406013.819 6   -316373.39121
  20900254.211     -175374.191 6   -136654.97022
  24093062.813     -536605.712 5   -418132.30721
 91  5  7 18 55 45.0000000  0  4G18G11G19G 2
  20532346.1174      28268.36548     22027.36963
  23500975.664     -450643.173 6   -351149.41721
  20896585.305     -194640.220 7   -151667.43622
  24081758.2504    -596018.44845   -464427.71161
 91  5  7 18 56  0.0000000  0  4G18G11G19G 2
  20533012.383       31769.851 8     24755.77923
  23492507.383     -495152.094 6   -385831.61221
  20892932.609     -213839.723 7   -166628.07122
  24070464.3204    -655366.13845   -510672.43661
 91  5  7 18 56 15.0000000  0  4G18G11G19G 2
  20533700.898       35388.120 8     27575.18323
  23484055.844     -539564.304 6   -420438.46021
  20889284.742     -232996.931 7   -181555.74522
  24059181.188     -714672.797 5   -556885.22321
 91  5  7 18 56 30.0000000  0  4G18G11G19G 2
  20534408.859       39108.188 8     30473.91223
  23475621.0084    -583894.45946   -454981.33661
  20885647.750     -252126.852 7   -196462.16222
  24047899.328     -773953.243 5   -603077.58021
 91  5  7 18 56 45.0000000  0  4G18G11G19G 2
  20535144.680       42971.913 8     33484.57923
  23467208.414     -628100.018 6   -489427.14521
  20882018.422     -271187.365 7   -211314.49022
  24036629.8204    -833165.14145   -649216.48761
 91  5  7 18 57  0.0000000  0  4G18G11G19G 2
  20535906.523       46977.273 8     36605.61523
  23458818.391     -672182.929 6   -523777.39221
  20878405.992     -290180.830 7   -226114.57822
  24025377.0864    -892310.68645   -695303.72061
 91  5  7 18 57 15.0000000  0  4G18G11G19G 2
  20536688.172       51085.540 8     39806.83923
  23450445.6804    -716181.50146   -558061.90161
  20874795.289     -309145.668 7   -240892.35222
  24014127.6024    -951428.27145   -741369.16561
 91  5  7 18 57 30.0000000  0  4G18G11G19G 2
  20537493.953       55319.140 8     43105.72023
  23442092.2584    -760073.00546   -592262.98061
  20871196.906     -328059.479 7   -255630.37422
  24002886.5474   -1010495.46645   -787395.34861
 91  5  7 18 57 45.0000000  0  4G18G11G19G 2
  20538322.6174      59674.61948     46499.57263
  23433762.1094    -803860.51546   -626383.03861
  20867607.141     -346925.839 7   -270331.41222
  23991651.820    -1069515.653 5   -833384.91221
 91  5  7 18 58  0.0000000  0  4G18G11G19G 2
  20539178.5004      64168.72548     50001.44163
  23425455.1954    -847526.57646   -660408.44061
  20864028.586     -365727.711 7   -284982.21122
  23980438.008    -1128471.519 6   -879324.33121
 91  5  7 18 58 15.0000000  0  4G18G11G19G 2
  20540057.6174      68787.55048     53600.49963
  23417163.9534    -891084.80346   -694349.82061
  20860459.383     -384479.007 7   -299593.59022
  23969225.328    -1187376.828 5   -925224.40221
 91  5  7 18 58 30.0000000  0  4G18G11G19G 2
  20540956.3204      73514.43248     57283.75463
  23408892.3444    -934551.54246   -728219.91961
  20856902.102     -403196.421 6   -314178.57022
  23958022.273    -1246247.966 5   -971097.80821
 91  5  7 18 58 45.0000000  0  4G18G11G19G 2
  20541879.6254      78366.69148     61064.70663
  23400639.7114    -977908.95646   -762004.82061
  20853346.063     -421862.684 7   -328723.69622
  23946831.141    -1305067.642 5  -1016931.12621
 91  5  7 18 59  0.0000000  0  4G18G11G19G 2
  20542827.3524      83344.81048     64943.73363
  23392410.953    -1021156.430 6   -795704.05921
  20849807.336     -440477.359 6   -343228.61522
  23935645.0004   -1363835.26345  -1062723.87261
 91  5  7 18 59 15.0000000  0  4G18G11G19G 2
  20543799.9064      88453.91948     68924.82663
  23384204.2034   -1064288.23646   -829313.15861
  20846271.578     -459035.083 7   -357689.16522
  23924474.4304   -1422545.50445  -1108471.92061
 91  5  7 18 59 30.0000000  0  4G18G11G19G 2
  20544798.0704      93699.00548     73011.87263
  23376020.2584   -1107298.93446   -862827.89861
  20842752.609     -477530.763 7   -372101.36522
  23913317.531    -1481193.005 5  -1154171.09021
 91  5  7 18 59 45.0000000  0  4G18G11G19G 2
  20545820.9534      99072.72348     77199.15663
  23367855.930    -1150195.585 6   -896253.75421
  20839242.664     -495971.782 7   -386470.97122
  23902161.8134   -1539784.82445  -1199826.88761
 91  5  7 19  0  0.0000000  0  4G18G11G19G 2
  20546866.8444     104572.92648     81484.99463
  23359716.094    -1192979.911 6   -929592.08621
  20835744.492     -514360.295 7   -400799.66422
  23891021.7274   -1598323.18845  -1245441.04361
 91  5  7 19  0 15.0000000  0  4G18G11G19G 2
  20547937.7034     110195.05048     85865.83963
  23351596.0164   -1235656.26246   -962846.29461
  20832253.820     -532700.831 7   -415090.97522
  23879894.0634   -1656812.64245  -1291017.05061
 91  5  7 19  0 30.0000000  0  4G18G11G19G 2
  20549035.5234     115965.58348     90362.32263
  23343499.953    -1278197.544 6   -995995.23421
  20828778.734     -550966.924 7   -429324.28022
  23868776.9614   -1715226.29645  -1336534.00061
 91  5  7 19  0 45.0000000  0  4G18G11G19G 2
  20550155.2424     121851.34648     94948.59563
  23335423.063    -1320636.585 6  -1029064.51521
  20825310.813     -569191.526 7   -443525.25222
  23857672.086    -1773596.983 5  -1382017.45821
 91  5  7 19  1  0.0000000  0  4G18G11G19G 2
  20551298.6254     127861.34148     99631.67363
  23327368.8524   -1362964.09846  -1062046.89361
  20821851.6644    -587365.70247   -457686.93462
  23846571.773    -1831915.847 5  -1427460.56821
 91  5  7 19  1 15.0000000  0  4G18G11G19G 2
  20552464.6414     133989.44648    104406.78763
  23319334.805    -1405185.556 6  -1094946.63121
  20818402.227     -605495.395 7   -471813.95022
  23835481.6094   -1890188.39245  -1472867.59761
 91  5  7 19  1 30.0000000  0  4G18G11G19G 2
  20553653.6724     140232.91448    109271.79363
  23311319.4384   -1447303.47346  -1127765.68261
  20814960.070     -623583.274 7   -485908.38722
  23824404.227    -1948417.290 5  -1518240.58621
 91  5  7 19  1 45.0000000  0  4G18G11G19G 2
  20554867.0234     146609.03648    114240.16363
  23303326.3984   -1489300.38446  -1160490.44661
  20811529.008     -641612.265 7   -499956.93922
  23813332.766    -2006585.483 5  -1563566.28821
 91  5  7 19  2  0.0000000  0  4G18G11G19G 2
  20556105.4384     153116.40448    119310.80563
  23295357.1564   -1531176.97846  -1193121.46261
  20808110.016     -659583.557 7   -513960.52422
  23802277.789    -2064693.803 5  -1608845.33121
 91  5  7 19  2 15.0000000  0  4G18G11G19G 2
  20557364.6884     159734.16948    124467.47163
  23287407.031    -1572953.527 6  -1225674.51921
  20804696.672     -677517.693 7   -527935.16122
  23791227.3834   -2122762.73345  -1654093.71461
 91  5  7 19  2 30.0000000  0  4G18G11G19G 2
  20558646.7424     166471.93548    129717.64663
  23279478.7194   -1614620.48546  -1258142.17361
  20801295.836     -695405.407 6   -541873.62422
  23780183.211    -2180782.940 5  -1699304.10821
 91  5  7 19  2 45.0000000  0  4G18G11G19G 2
  20559953.2584     173337.01748    135067.02663
  23271571.4064   -1656169.99546  -1290518.31761
  20797898.977     -713239.301 7   -555770.14922
  23769154.6254   -2238746.76045  -1744470.58161
 91  5  7 19  3  0.0000000  0  4G18G11G19G 2
  20561288.5864     180357.71548    140537.66563
  23263693.578    -1697573.198 6  -1322780.44021
  20794521.9454    -730990.95547   -569602.59462
  23758141.4534   -2296625.51045  -1789570.77661
 91  5  7 19  3 15.0000000  0  4G18G11G19G 2
  20562646.4534     187490.52248    146095.66263
  23255832.3204   -1738873.26046  -1354962.21261
  20791150.266     -748703.718 7   -583404.73222
  23747133.8524   -2354462.49345  -1834638.40061
 91  5  7 19  3 30.0000000  0  4G18G11G19G 2
  20564023.9304     194733.54748    151739.54263
  23247993.859    -1780071.686 6  -1387064.77421
  20787787.609     -766379.367 7   -597177.95322
  23736135.266    -2412259.475 5  -1879674.86821
 91  5  7 19  3 45.0000000  0  4G18G11G19G 2
  20565427.4224     202104.68848    157483.25663
  23240177.4224   -1821150.27646  -1419073.96161
  20784433.0004    -784000.16147   -610908.43162
  23725147.953    -2469998.521 5  -1924666.18921
 91  5  7 19  4  0.0000000  0  4G18G11G19G 2
  20566852.0234     209593.22248    163318.44363
  23232379.531    -1862119.436 6  -1450997.88121
  20781090.2274    -801576.65447   -624604.38662
  23714168.375    -2527690.175 5  -1969620.57721
 91  5  7 19  4 15.0000000  0  4G18G11G19G 2
  20568300.5944     217204.19048    169249.03363
  23224605.375    -1902973.600 6  -1482832.18221
  20777753.4844    -819103.65147   -638261.77862
  23703200.195    -2585328.896 5  -2014533.74021
 91  5  7 19  4 30.0000000  0  4G18G11G19G 2
  20569774.8524     224949.74848    175284.49963
  23216857.656    -1943700.035 6  -1514566.96521
  20774431.0474    -836568.85247   -651871.01662
  23692247.148    -2642902.332 6  -2059396.04521
 91  5  7 19  4 45.0000000  0  4G18G11G19G 2
  20571272.8524     232821.96547    181418.65763
  23209129.305    -1984306.613 6  -1546208.34221
  20771116.7664    -853980.36447   -665438.42162
  23681300.742    -2700418.550 6  -2104213.72521
 91  5  7 19  5  0.0000000  0  4G18G11G19G 2
  20572794.1954     240814.20048    187646.33863
  23201424.1804   -2024799.42746  -1577761.08361
  20767813.8984    -871344.79146   -678969.13062
  23670364.4064   -2757883.85545  -2148991.76161
 91  5  7 19  5 15.0000000  0  4G18G11G19G 2
  20574338.3134     248932.14448    193971.97063
  23193740.469    -2065172.584 6  -1609220.58821
  20764517.8364    -888656.42547   -692458.70962
  23659440.453    -2815292.436 5  -2193725.58521
 91  5  7 19  5 30.0000000  0  4G18G11G19G 2
  20575906.3054     257169.83148    200390.91563
  23186079.563    -2105431.506 6  -1640591.06121
  20761233.8054    -905920.85146   -705911.50462
  23648524.2114   -2872649.98245  -2238419.63061
 91  5  7 19  5 45.0000000  0  4G18G11G19G 2
  20577497.1024     265527.58648    206903.41563
  23178437.7664   -2145575.38146  -1671871.90761
  20757956.6644    -923137.68047   -719327.20262
  23637621.2274   -2929955.88945  -2283073.46261
 91  5  7 19  6  0.0000000  0  4G18G11G19G 2
  20579107.8364     273996.30148    213502.37663
  23170821.617    -2185612.944 6  -1703069.89321
  20754689.7274    -940316.04746   -732712.93662
  23626725.688    -2987219.140 6  -2327694.06421
 91  5  7 19  6 15.0000000  0  4G18G11G19G 2
  20580740.6334     282574.22148    220186.43663
  23163221.5234   -2225545.66746  -1734186.20661
  20751425.3134    -957457.67647   -746070.04562
  23615834.922    -3044441.278 5  -2372282.63021
 91  5  7 19  6 30.0000000  0  4G18G11G19G 2
  20582396.4144     291277.38148    226968.08263
  23155645.938    -2265356.973 6  -1765207.88421
  20748176.2584    -974546.28346   -759385.83262
  23604955.633    -3101605.956 5  -2416826.41721
 91  5  7 19  6 45.0000000  0  4G18G11G19G 2
  20584080.8984     300126.09948    233863.14663
  23148095.4924   -2305026.25546  -1796118.91761
  20744936.0004    -991561.63747   -772644.54662
  23594093.6884   -3158692.59245  -2461309.37561
 91  5  7 19  7  0.0000000  0  4G18G11G19G 2
  20585786.1804     309090.01348    240847.97263
  23140569.2894   -2344583.25046  -1826942.45061
  20741707.0634   -1008533.81946   -785869.61262
  23583235.9614   -3215731.15445  -2505754.85461
 91  5  7 19  7 15.0000000  0  4G18G11G19G 2
  20587515.0394     318174.91648    247927.07863
  23133065.203    -2384021.923 6  -1857673.76821
  20738486.4064   -1025457.12447   -799056.59962
  23572393.133    -3272715.935 5  -2550158.44821
 91  5  7 19  7 30.0000000  0  4G18G11G19G 2
  20589267.133      327380.288 8    255100.05623
  23125581.0084   -2423342.24546  -1888312.89461
  20735275.4384   -1042331.83846   -812205.71962
  23561562.7114   -3329647.28446  -2594520.39461
 91  5  7 19  7 45.0000000  0  4G18G11G19G 2
  20591042.4694     336712.49148    262371.86163
  23118123.063    -2462537.783 6  -1918854.76321
  20732073.0004   -1059151.73947   -825312.12862
  23550736.930    -3386518.797 6  -2638835.73421
 91  5  7 19  8  0.0000000  0  4G18G11G19G 2
  20592844.125      346176.214 8    269746.14623
  23110689.6254   -2501603.42046  -1949295.43261
  20728887.9774   -1075912.12746   -838372.16462
  23539927.6414   -3443325.45845  -2683100.55161
 91  5  7 19  8 15.0000000  0  4G18G11G19G 2
  20594669.5314     355768.76348    277220.81363
  23103277.8204   -2540541.24346  -1979636.49761
  20725705.7734   -1092615.37247   -851387.67462
  23529128.031    -3500069.587 5  -2727316.61821
 91  5  7 19  8 30.0000000  0  4G18G11G19G 2
  20596518.719      365487.919 8    284794.13923
  23095894.5704   -2579353.06846  -2009879.37961
  20722538.2424   -1109263.55246   -864360.27762
  23518344.1174   -3556753.25745  -2771485.55961
 91  5  7 19  8 45.0000000  0  4G18G11G19G 2
  20598390.3444     375317.01948    292453.13763
  23088528.1484   -2618055.30846  -2040036.88161
  20719377.2814   -1125873.27447   -877302.90962
  23507565.2734   -3613392.98346  -2815620.27561
 91  5  7 19  9  0.0000000  0  4G18G11G19G 2
  20600284.0234     385275.30048    300212.79363
  23081190.852    -2656628.106 6  -2070093.50521
  20716228.7814   -1142425.14146   -890200.45762
  23496797.906    -3669969.103 6  -2859705.42121
 91  5  7 19  9 15.0000000  0  4G18G11G19G 2
  20602202.125      395353.534 8    308065.92223
  23073870.8134   -2695080.41146  -2100056.25661
  20713086.6804   -1158928.23947   -903060.00762
  23486046.328    -3726490.660 6  -2903748.04321
 91  5  7 19  9 29.9990000  0  4G18G11G19G 2
  20604143.667      405556.015 8    316015.86523
  23066580.3704   -2733404.52746  -2129919.10861
  20709957.8154   -1175376.74946   -915877.01762
  23475301.8474   -3782949.05946  -2947741.46361
 91  5  7 19  9 44.9990000  0  4G18G11G19G 2
  20606108.065      415879.031 8    324059.72823
  23059308.6124   -2771610.21646  -2159689.68961
  20706836.2534   -1191777.80347   -928657.05062
  23464566.956    -3839356.718 6  -2991695.35521
 91  5  7 19  9 59.9990000  0  4G18G11G19G 2
  20608097.448      426334.559 8    332206.85223
  23052063.2534   -2809681.55146  -2189355.57561
  20703728.2064   -1208117.22146   -941389.05562
  23453846.933    -3895696.615 6  -3035596.41521
 91  5  7 19 10 14.9990000  0  4G18G11G19G 2
  20610109.105      436903.085 8    340442.01423
  23044839.886    -2847637.831 6  -2218931.82021
  20700624.4404   -1224414.51747   -954088.24162
  23443132.948    -3951988.210 6  -3079459.85221
 91  5  7 19 10 29.9990000  0  4G18G11G19G 2
  20612143.659      447597.304 8    348775.13023
  23037642.019    -2885466.021 6  -2248408.25121
  20697535.6124   -1240656.94647   -966744.67062
  23432434.1124   -4008218.55246  -3123275.56461
 91  5  7 19 10 44.9990000  0  4G18G11G19G 2
  20614203.659      458419.104 8    357207.65223
  23030467.456    -2923163.679 6  -2277782.97121
  20694455.2614   -1256842.45047   -979356.74362
  23421746.0584   -4064385.35846  -3167041.76161
 91  5  7 19 10 59.9990000  0  4G18G11G19G 2
  20616283.628      469350.756 8    365725.77523
  23023318.073    -2960748.248 6  -2307069.57221
  20691385.956    -1272988.787 6   -991938.29522
  23411062.097    -4120506.428 6  -3210772.32021
 91  5  7 19 11 14.9990000  0  4G18G11G19G 2
  20618388.534      480412.369 8    374345.16923
  23016189.370    -2998199.218 6  -2336252.07021
  20688320.0114   -1289075.62247  -1004473.48062
  23400398.175    -4176561.455 6  -3254451.40921
 91  5  7 19 11 29.9990000  0  4G18G11G19G 2
  20620517.081      491597.008 8    383060.42523
  23009088.487    -3035522.856 6  -2365335.35421
  20685272.3004   -1305109.68846  -1016967.54862
  23389743.1674   -4232557.01546  -3298084.16561
 91  5  7 19 11 44.9990000  0  4G18G11G19G 2
  20622668.597      502901.142 8    391868.79523
  23002007.034    -3072722.459 6  -2394321.99621
  20682227.4094   -1321094.43947  -1029423.19062
  23379096.5584   -4288496.43446  -3341673.18361
 91  5  7 19 11 59.9990000  0  4G18G11G19G 2
  20624841.315      514320.568 8    400767.00223
  22994953.1754   -3109802.24246  -2423215.26361
  20679194.9724   -1337034.52447  -1041844.02662
  23368460.5894   -4344383.95246  -3385221.74961
 91  5  7 19 12 14.9990000  0  4G18G11G19G 2
  20627039.917      525874.060 8    409769.68023
  22987923.0194   -3146742.80446  -2452000.05261
  20676172.8084   -1352910.84547  -1054215.17562
  23357840.8314   -4400200.31246  -3428714.86061
 91  5  7 19 12 29.9990000  0  4G18G11G19G 2
  20629262.042      537551.670 8    418869.06123
  22980917.8004   -3183553.50146  -2480683.64261
  20673161.9874   -1368732.87947  -1066544.02262
  23347229.737    -4455955.129 6  -3472160.03421
 91  5  7 19 12 44.9990000  0  4G18G11G19G 2
  20631506.901      549349.128 8    428061.83623
  22973937.5734   -3220238.17846  -2509269.04761
  20670160.7304   -1384504.95947  -1078833.95162
  23336631.8234   -4511652.61146  -3515560.51961
 91  5  7 19 12 59.9990000  0  4G18G11G19G 2
  20633775.878      561268.560 8    437349.65623
  22966981.409    -3256794.444 6  -2537754.39021
  20667170.792    -1400224.624 6  -1091083.02822
  23326044.355    -4567290.260 6  -3558914.38021
 91  5  7 19 13 14.9990000  0  4G18G11G19G 2
  20636065.448      573305.403 8    446728.96623
  22960049.5814   -3293226.31146  -2566142.80461
  20664188.3084   -1415896.23146  -1103294.65762
  23315466.542    -4622872.483 6  -3602225.06021
 91  5  7 19 13 29.9990000  0  4G18G11G19G 2
  20638381.292      585469.765 8    456207.64223
  22953137.8624   -3329523.51346  -2594426.28161
  20661216.2614   -1431510.05246  -1115461.26362
  23304902.4804   -4678389.12246  -3645484.62761
 91  5  7 19 13 44.9990000  0  4G18G11G19G 2
  20640719.144      597758.100 8    465782.92123
  22946258.097    -3365689.016 6  -2622607.13321
  20658259.1204   -1447069.26046  -1127585.30962
  23294351.105    -4733843.350 6  -3688695.57221
 91  5  7 19 13 59.9990000  0  4G18G11G19G 2
  20643080.026      610159.715 8    475446.47323
  22939397.151    -3401733.256 6  -2650693.50321
  20655303.7844   -1462584.58946  -1139675.16162
  23283803.5194   -4789245.76846  -3731866.13561
 91  5  7 19 14 14.9990000  0  4G18G11G19G 2
  20645461.237      622679.809 8    485202.34423
  22932564.1514   -3437650.44746  -2678680.85361
  20652362.3474   -1478050.43146  -1151726.46162
  23273274.839    -4844590.685 6  -3774991.90921
 91  5  7 19 14 29.9990000  0  4G18G11G19G 2
  20647866.112      635314.118 8    495047.21423
  22925752.339    -3473444.644 6  -2706572.38821
  20649427.9644   -1493471.06246  -1163742.52662
  23262752.8784   -4899882.45546  -3818076.24661
 91  5  7 19 14 44.9990000  0  4G18G11G19G 2
  20650292.878      648069.984 8    504986.80423
  22918965.1834   -3509108.04546  -2734361.99461
  20646504.144    -1508839.014 6  -1175717.54222
  23252242.3004   -4955113.57246  -3861113.33261
 91  5  7 19 14 59.9990000  0  4G18G11G19G 2
  20652744.292      660949.457 8    515022.71723
  22912206.3784   -3544638.36046  -2762047.88461
  20643589.7844   -1524152.12346  -1187649.81962
  23241744.1984   -5010281.58146  -3904101.24861
 91  5  7 19 15 14.9990000  0  4G18G11G19G 2
  20655219.956      673956.100 8    525157.71223
  22905469.292    -3580031.322 6  -2789626.76521
  20640688.2064   -1539406.66446  -1199536.47162
  23231258.925    -5065382.376 6  -3947036.79321
 91  5  7 19 15 29.9990000  0  4G18G11G19G 2
  20657718.987      687091.681 8    535393.18923
  22898762.1514   -3615284.88846  -2817097.01861
  20637795.0734   -1554600.81446  -1211376.05562
  23220788.339    -5120414.315 6  -3989918.68521
 91  5  7 19 15 44.9990000  0  4G18G11G19G 2
  20660239.034      700332.511 8    545710.67323
  22892076.2534   -3650422.17946  -2844476.67661
  20634912.7534   -1569757.77546  -1223186.66462
  23210323.198    -5175400.717 6  -4032765.09521
 91  5  7 19 15 59.9990000  0  4G18G11G19G 2
  20662783.1204     713704.24247    556130.16363
  22885415.792    -3685417.260 6  -2871745.50621
  20632038.3234   -1584851.86546  -1234948.28362
  23199872.3864   -5230315.79246  -4075555.91361
 91  5  7 19 16 14.9990000  0  4G18G11G19G 2
  20665350.417      727193.186 8    566640.98323
  22878779.198    -3720283.610 6  -2898914.04121
  20629176.1204   -1599896.79046  -1246671.59462
  23189435.5734   -5285173.07246  -4118301.69561
 91  5  7 19 16 29.9990000  0  4G18G11G19G 2
  20667939.222      740797.808 8    577241.94323
  22872170.4954   -3755022.30546  -2925983.08561
  20626323.292    -1614893.934 6  -1258357.66622
  23179007.956    -5339973.641 6  -4161003.30021
 91  5  7 19 16 44.9990000  0  4G18G11G19G 2
  20670551.5504     754524.49948    587938.02463
  22865583.886    -3789626.890 6  -2952947.64621
  20623480.0974   -1629837.06246  -1270001.65262
  23168588.386    -5394711.333 6  -4203655.90021
 91  5  7 19 16 59.9990000  0  4G18G11G19G 2
  20673185.862      768368.454 7    598725.48323
  22859025.409    -3824101.488 6  -2979810.90121
  20620643.3154   -1644730.66546  -1281607.04662
  23158185.5344   -5449390.37646  -4246262.81061
 91  5  7 19 17 14.9990000  0  4G18G11G19G 2
  20675841.7374     782323.01648    609599.12363
  22852486.917    -3858451.973 6  -3006577.46621
  20617819.5034   -1659580.95046  -1293178.68762
  23147788.651    -5504017.125 6  -4288828.97321
 91  5  7 19 17 29.9990000  0  4G18G11G19G 2
  20678518.362      796392.310 7    620562.16923
  22845976.386    -3892674.010 6  -3033243.92721
  20615001.0734   -1674383.66946  -1304713.26662
  23137403.120    -5558587.293 6  -4331351.03921
 91  5  7 19 17 44.9990000  0  4G18G11G19G 2
  20681219.339      810584.981 7    631621.34523
  22839490.7924   -3926758.78646  -3059803.42961
  20612196.714    -1689130.435 6  -1316204.24022
  23127032.4644   -5613092.10646  -4373822.18161
 91  5  7 19 17 59.9990000  0  4G18G11G19G 2
  20683942.730      824894.408 7    642771.50523
  22833028.0654   -3960712.50846  -3086260.81661
  20609397.4804   -1703827.55146  -1327656.53362
  23116669.714    -5667537.865 6  -4416247.31721
 91  5  7 19 18 14.9990000  0  4G18G11G19G 2
  20686688.464      839320.221 7    654012.35223
  22826592.9174   -3994535.05546  -3112615.98961
  20606612.3474   -1718475.25746  -1339070.32462
  23106321.862    -5721924.720 6  -4458626.53721
 91  5  7 19 18 29.9990000  0  4G18G11G19G 2
  20689455.761      853869.692 7    665349.55923
  22820183.886    -4028218.823 6  -3138863.01321
  20603833.8624   -1733066.20846  -1350439.88762
  23095986.0114   -5776245.08346  -4500953.94861
 91  5  7 19 18 59.9990000  0  4G18G11G19G 2
  20695058.144      883304.642 7    688285.79523
  22807434.8624   -4095203.04346  -3191058.39361
  20598308.4804   -1762111.67646  -1373072.70962
  23075340.0194   -5884720.22146  -4585479.73161
 91  5  7 19 19 14.9990000  0  4G18G11G19G 2
  20697890.565      898191.620 7    699885.99523
  22801098.722    -4128501.451 6  -3217005.12221
  20595557.9484   -1776564.55646  -1384334.68462
  23065039.058    -5938873.169 6  -4627676.69821
 91  5  7 19 19 29.9990000  0  4G18G11G19G 2
  20700744.519      913187.329 7    711570.91723
  22794786.159    -4161674.436 6  -3242854.15021
  20592813.4484   -1790974.98246  -1395563.58662
  23054742.0894   -5992973.84246  -4669832.94561
 91  5  7 19 19 44.9990000  0  4G18G11G19G 2
  20703621.183      928303.834 7    723349.97223
  22788500.222    -4194709.559 6  -3268595.72321
  20590083.3394   -1805330.59946  -1406749.77562
  23044458.370    -6047009.781 6  -4711938.73421
 91  5  7 19 19 59.9990000  0  4G18G11G19G 2
  20706520.581      943540.535 7    735222.68223
  22782239.6594   -4227606.97646  -3294230.01361
  20587360.8394   -1819631.89246  -1417893.63962
  23034190.5344   -6100981.38146  -4753994.38161
 91  5  7 19 20 14.9990000  0  4G18G11G19G 2
  20709442.276      958895.971 7    747187.91124
  22776006.034    -4260367.957 6  -3319757.98421
  20584650.4404   -1833880.45446  -1428996.40562
  23023932.2844   -6154890.11346  -4796001.03461
 91  5  7 19 20 29.9990000  0  4G18G11G19G 2
  20712387.4564     974373.48447    759248.26963
  22769798.5194   -4292988.39646  -3345176.44661
  20581949.2614   -1848072.45246  -1440055.10662
  23013682.9874   -6208732.00046  -4837955.60061
 91  5  7 19 20 44.9990000  0  4G18G11G19G 2
  20715359.073      989986.233 7    771414.00623
  22763617.503    -4325454.846 6  -3370474.90121
  20579262.7614   -1862194.62946  -1451059.39262
  23003454.8004   -6262493.65646  -4879847.66061
 91  5  7 19 20 59.9990000  0  4G18G11G19G 2
  20718351.253     1005709.489 7    783665.85024
  22757467.980    -4357791.391 6  -3395672.15821
  20576583.7224   -1876271.03546  -1462028.01862
  22993234.136    -6316199.176 6  -4921695.97121
 91  5  7 19 21 14.9990000  0  4G18G11G19G 2
  20721367.315     1021556.589 7    796014.19724
  22751339.878    -4389984.729 6  -3420757.79821
  20573916.6594   -1890288.64746  -1472950.82762
  22983028.339    -6369835.611 6  -4963490.46021
 91  5  7 19 21 29.9990000  0  4G18G11G19G 2
  20724406.956     1037531.989 7    808462.51623
  22745241.7614   -4422030.22046  -3445728.24661
  20571259.8474   -1904243.01846  -1483824.36262
  22972836.315    -6423398.458 6  -5005227.60821
 91  5  7 19 21 44.9990000  0  4G18G11G19G 2
  20727468.503     1053626.588 7    821003.72124
  22739171.073    -4453936.226 6  -3470590.00821
  20568616.0734   -1918143.04246  -1494655.54362
  22962653.7844   -6476896.30546  -5046914.09961
 91  5  7 19 21 59.9990000  0  4G18G11G19G 2
  20730550.980     1069821.486 7    833623.07724
  22733123.573    -4485721.232 6  -3495357.47221
  20565976.6444   -1932007.33746  -1505458.89062
  22952482.605    -6530347.744 6  -5088564.42121
 91  5  7 19 22 14.9990000  0  4G18G11G19G 2
  20733656.448     1086136.734 7    846336.21324
  22727099.9484   -4517364.88246  -3520014.80561
  20563350.9564   -1945815.65846  -1516218.61762
  22942323.206    -6583732.454 6  -5130162.74921
 91  5  7 19 22 29.9990000  0  4G18G11G19G 2
  20736780.612     1102557.409 7    859131.49523
  22721102.6514   -4548881.74346  -3544573.33561
  20560729.8084   -1959582.87746  -1526946.31662
  22932175.1514   -6637065.13046  -5171720.53461
 91  5  7 19 22 44.9990000  0  4G18G11G19G 2
  20739925.105     1119077.958 7    872004.60424
  22715128.5894   -4580276.89846  -3569037.02061
  20558119.0034   -1973314.22546  -1537646.06962
  22922034.2534   -6690351.10146  -5213241.92461
 91  5  7 19 22 59.9990000  0  4G18G11G19G 2
  20743087.847     1135699.400 7    884956.32724
  22709178.7694   -4611549.03346  -3593404.85661
  20555509.4254   -1987008.53846  -1548316.96462
  22911904.792    -6743589.007 6  -5254725.86821
 91  5  7 19 23 14.9990000  0  4G18G11G19G 2
  20746273.573     1152443.151 7    898003.35823
  22703254.0734   -4642676.52346  -3617659.98861
  20552917.1124   -2000644.50246  -1558942.38262
  22901787.120    -6796757.550 6  -5296155.76021
 91  5  7 19 23 29.9990000  0  4G18G11G19G 2
  20749480.394     1169296.359 7    911135.67824
  22697355.9484   -4673671.46146  -3641811.81861
  20550329.0264   -2014234.32246  -1569531.85262
  22891680.5974   -6849868.92146  -5337541.09261
 91  5  7 19 23 44.9990000  0  4G18G11G19G 2
  20752712.081     1186276.081 7    924366.57823
  22691488.5194   -4704516.59246  -3665846.92161
  20547756.7534   -2027760.98146  -1580072.10062
  22881585.2534   -6902905.80646  -5378868.39061
 91  5  7 19 23 59.9990000  0  4G18G11G19G 2
  20755966.745     1203378.217 7    937692.86923
  22685645.0584   -4735215.54146  -3689768.11861
  20545195.3314   -2041228.21746  -1590566.04862
  22871508.823    -6955872.248 6  -5420140.79921
 91  5  7 19 24 14.9990000  0  4G18G11G19G 2
  20759243.261     1220595.565 7    951108.93323
  22679828.3154   -4765775.37046  -3713580.92061
  20542641.4404   -2054643.39746  -1601019.43262
  22861438.190    -7008775.360 6  -5461363.86621
 91  5  7 19 24 29.9990000  0  4G18G11G19G 2
  20762542.362     1237937.044 7    964621.72124
  22674041.495    -4796186.531 6  -3737277.87321
  20540099.9404   -2067997.23846  -1611425.01962
  22851388.8314   -7061605.85146  -5502530.34061
 91  5  7 19 24 44.9990000  0  4G18G11G19G 2
  20765864.667     1255388.610 7    978220.29823
  22668280.2844   -4826462.75446  -3760869.68161
  20537567.8944   -2081303.89546  -1621793.84162
  22841345.284    -7114377.515 6  -5543650.98121
 91  5  7 19 24 59.9990000  0  4G18G11G19G 2
  20769209.808     1272970.202 7    991920.18723
  22662549.628    -4856583.498 6  -3784340.33721
  20535049.8624   -2094542.88346  -1632109.93162
  22831315.644    -7167069.857 6  -5584709.80421
 91  5  7 19 25 14.9990000  0  4G18G11G19G 2
  20772579.464     1290675.078 7   1005716.14123
  22656845.9804   -4886555.44946  -3807695.04961
  20532540.4094   -2107720.94046  -1642378.54162
  22821304.089    -7219689.628 6  -5625712.07821
 91  5  7 19 25 29.9990000  0  5G18G11G16G19G 2
  20775969.792     1308491.572 7   1019599.07123
  22651167.862    -4916389.724 6  -3830942.48721
  23988539.8394         -0.57055
  20530041.1444   -2120849.51646  -1652608.59762
  22811302.5264   -7272248.26046  -5666666.71861
 91  5  7 19 25 44.9990000  0  5G18G11G16G19G 2
  20779378.792     1326411.442 7   1033562.55423
  22645512.573    -4946094.304 6  -3854088.86521
  23982769.2374     -30327.00045
  20527553.1514   -2133936.65646  -1662806.36562
  22801312.550    -7324753.784 6  -5707579.97121
 91  5  7 19 25 59.9990000  0  5G18G11G16G19G 2
  20782812.409     1344448.923 7   1047617.68323
  22639890.128    -4975654.683 6  -3877122.86921
  23977023.8944     -60518.11345
  20525070.3784   -2146968.22146  -1672960.82462
  22791331.183    -7377191.758 6  -5748440.59721
 91  5  7 19 26 14.9990000  0  5G18G11G16G19G 2
  20786265.440     1362599.114 7   1061760.63623
  22634292.448    -5005075.359 6  -3900048.02821
  23971306.5974     -90578.33245
  20522602.4174   -2159948.63246  -1683075.42662
  22781364.534    -7429566.947 6  -5789252.29721
 91  5  7 19 26 29.9990000  0  5G18G11G16G19G 2
  20789741.917     1380862.551 7   1075991.83223
  22628720.5584   -5034355.02546  -3922863.29661
  23965609.4334    -120506.36745
  20520144.9564   -2172876.95446  -1693149.43862
  22771411.300    -7481878.162 6  -5830014.14921
 91  5  7 19 26 44.9990000  0  5G18G11G16G19G 2
  20793237.144     1399231.175 7   1090304.99223
  22623172.198    -5063501.624 6  -3945574.88921
  23959938.886     -150310.609 5        -0.20031
  20517691.0194   -2185761.43046  -1703189.28562
  22761464.448    -7534133.508 6  -5870732.47321
 91  5  7 19 26 59.9990000  0  5G18G11G16G19G 2
  20796750.886     1417698.419 7   1104694.99723
  22617651.339    -5092521.304 6  -3968187.57821
  23954287.9564    -179997.47244    -23132.81561
  20515243.6904   -2198608.32947  -1713199.85162
  22751531.8394   -7586339.24946  -5911412.13261
 91  5  7 19 27 14.9990000  0  5G18G11G16G19G 2
  20800285.573     1436275.578 7   1119170.65123
  22612155.769    -5121402.390 6  -3990692.27321
  23948663.2764    -209555.00344    -46164.63061
  20512811.2844   -2211405.95746  -1723172.02362
  22741609.800    -7638483.676 6  -5952044.01921
 91  5  7 19 27 29.9990000  0  5G18G11G16G19G 2
  20803841.644     1454957.735 7   1133728.12223
  22606684.269    -5150149.442 6  -4013092.52021
  23943065.7374    -238988.19445    -69099.57461
  20510381.0974   -2224159.12347  -1733109.55062
  22731697.253    -7690571.547 6  -5992631.83121
 91  5  7 19 27 44.9990000  0  5G18G11G16G19G 2
  20807415.706     1473741.819 7   1148365.01823
  22601240.831    -5178765.063 6  -4035390.36321
  23937484.8234    -268299.33445    -91939.42761
  20507965.6594   -2236870.59246  -1743014.58262
  22721795.839    -7742605.512 6  -6033177.63221
 91  5  7 19 27 59.9990000  0  5G18G11G16G19G 2
  20811011.417     1492636.272 7   1163087.91423
  22595819.284    -5207240.356 6  -4057578.85721
  23931931.901     -297479.922 5   -114677.53821
  20505556.2614   -2249531.75546  -1752880.42362
  22711905.6514   -7794576.78146  -6073674.60761
 91  5  7 19 28 14.9990000  0  5G18G11G16G19G 2
  20814628.3784    1511642.16547   1177897.64363
  22590428.097    -5235574.208 6  -4079657.13021
  23926405.2064    -326529.01945   -137313.19261
  20503156.6514   -2262141.70846  -1762706.35462
  22702029.1124   -7846484.58146  -6114122.12161
 91  5  7 19 28 29.9990000  0  5G18G11G16G19G 2
  20818268.253     1530771.966 7   1192803.92323
  22585066.847    -5263753.592 6  -4101615.04421
  23920906.355     -355433.718 5   -159836.32821
  20500766.3784   -2274687.62746  -1772482.38962
  22692162.808    -7898315.956 6  -6154510.08021
 91  5  7 19 28 44.9990000  0  5G18G11G16G19G 2
  20821928.9724    1550006.17647   1207791.56263
  22579731.925    -5291797.694 6  -4123467.53621
  23915428.878     -384213.192 5   -182261.86721
  20498389.933    -2287188.769 6  -1782223.52722
  22682313.034    -7950090.229 6  -6194853.53121
 91  5  7 19 28 59.9990000  0  5G18G11G16G19G 2
  20825611.597     1569362.000 7   1222873.96823
  22574421.417    -5319688.835 6  -4145200.84521
  23909978.4804    -412850.17645   -204576.40761
  20496024.1514   -2299627.68946  -1791916.18462
  22672474.448    -8001789.851 6  -6235138.81421
 91  5  7 19 29 14.9990000  0  5G18G11G16G19G 2
  20829317.7534    1588839.13947   1238050.90463
  22569143.5114   -5347427.00746  -4166814.95061
  23904556.3944    -441344.81545   -226780.03161
  20493667.2924   -2312004.40246  -1801560.37063
  22662648.706    -8053414.668 6  -6275365.81021
 91  5  7 19 29 29.9990000  0  5G18G11G16G19G 2
  20833042.8944    1608412.65047   1253302.93163
  22563889.315    -5375036.938 6  -4188329.13921
  23899157.8154    -469721.47045   -248891.69061
  20491316.7304   -2324343.83546  -1811175.50362
  22652834.651    -8104989.647 6  -6315553.97621
 91  5  7 19 29 44.9990000  0  5G18G11G16G19G 2
  20836786.644     1628087.054 7   1268633.57923
  22558659.9644   -5402513.45646  -4209739.35361
  23893781.347     -497975.184 5   -270907.54521
  20488980.4484   -2336640.99546  -1820757.70062
  22643029.706    -8156509.823 6  -6355699.43721
 91  5  7 19 29 59.9990000  0  5G18G11G16G19G 2
  20840553.269     1647878.845 7   1284055.69823
  22553462.261    -5429839.916 6  -4231032.65021
  23888431.839     -526089.321 5   -292814.67121
  20486648.9484   -2348879.43846  -1830294.14162
  22633240.433    -8207958.674 6  -6395789.31921
 91  5  7 19 30 14.9990000  0  5G18G11G16G19G 2
  20844339.878     1667774.953 7   1299559.10423
  22548287.378    -5457028.804 6  -4252218.74821
  23883104.8004    -554076.93945   -314623.19061
  20484330.2924   -2361071.89346  -1839794.74062
  22623460.0974   -8259348.77446  -6435833.42861
 91  5  7 19 30 29.9990000  0  5G18G11G16G19G 2
  20848148.964     1687793.397 7   1315157.84023
  22543142.4644   -5484061.92246  -4273283.45961
  23877805.7304    -581919.99245   -336319.06361
  20482019.9484   -2373200.21446  -1849245.37462
  22613695.2224   -8310662.17446  -6475817.76261
 91  5  7 19 30 44.9990000  0  5G18G11G16G19G 2
  20851977.6284    1707912.83547   1330835.26763
  22538024.331    -5510960.262 6  -4294243.15321
  23872529.7534    -609639.51445   -357918.68461
  20479721.2064   -2385285.61646  -1858662.56762
  22603942.987    -8361919.805 6  -6515758.64521
 91  5  7 19 30 59.9990000  0  5G18G11G16G19G 2
  20855825.456     1728130.334 7   1346589.10923
  22532932.237    -5537726.058 6  -4315099.56621
  23867279.9334    -637237.87945   -379423.92861
  20477428.2144   -2397330.39146  -1868048.09662
  22594199.7064   -8413124.16646  -6555658.01561
 91  5  7 19 31 14.9990000  0  5G18G11G16G19G 2
  20859692.472     1748453.646 7   1362425.39823
  22527863.9014   -5564351.56946  -4335846.66561
  23862051.7614    -664707.23645   -400828.61261
  20475147.0114   -2409327.08446  -1877396.16162
  22584465.3944   -8464267.45646  -6595509.80661
 91  5  7 19 31 29.9990000  0  5G18G11G16G19G 2
  20863580.917     1768887.572 7   1378347.87923
  22522825.440    -5590831.389 6  -4356480.23621
  23856849.995     -692042.439 5   -422128.76821
  20472875.2534   -2421270.44546  -1886702.67262
  22574746.245    -8515344.359 6  -6635309.85421
 91  5  7 19 31 44.9990000  0  5G18G11G16G19G 2
  20867490.058     1789427.761 7   1394353.16623
  22517811.511    -5617169.849 6  -4377003.66021
  23851671.3624    -719248.28045   -443328.10761
  20470611.7694   -2433164.78146  -1895970.97762
  22565040.0974   -8566359.15846  -6675061.51761
 91  5  7 19 31 59.9990000  0  5G18G11G16G19G 2
  20871421.7694    1810086.86547   1410451.10963
  22512831.003    -5643353.779 6  -4397406.67021
  23846522.5424    -746311.41444   -464416.23561
  20468357.4644   -2444997.12446  -1905190.98162
  22555345.1834   -8617298.94046  -6714754.72561
 91  5  7 19 32 14.9990000  0  5G18G11G16G19G 2
  20875372.5894    1830852.36047   1426631.95263
  22507874.8394   -5669395.11346  -4417698.56061
  23841395.026     -773243.719 4   -485402.45321
  20466118.175    -2456779.733 6  -1914372.22322
  22545664.065    -8668175.738 6  -6754398.85621
 91  5  7 19 32 29.9990000  0  5G18G11G16G19G 2
  20879343.9254    1851721.26647   1442893.37863
  22502945.847    -5695296.485 6  -4437881.39821
  23836295.323     -800048.000 5   -506288.90121
  20463882.9804   -2468515.37046  -1923516.87162
  22535994.722    -8718992.313 6  -6793996.05521
 91  5  7 19 32 44.9990000  0  5G18G11G16G19G 2
  20883338.1284    1872709.00347   1459247.40063
  22498047.339    -5721042.156 6  -4457942.90821
  23831220.2614    -826708.87644   -527063.59461
  20461663.4014   -2480188.42346  -1932612.74562
  22526337.8154   -8769733.27646  -6833534.34861
 91  5  7 19 32 59.9990000  0  5G18G11G16G19G 2
  20887352.3864    1893802.88347   1475684.12863
  22493174.0974   -5746644.41446  -4477892.66161
  23826174.7454    -853238.77245   -547736.22661
  20459448.3944   -2491811.16546  -1941669.42362
  22516693.7064   -8820410.95246  -6873023.31961
 91  5  7 19 33 14.9990000  0  5G18G11G16G19G 2
  20891387.7534    1915008.24047   1492207.71763
  22488329.698    -5772097.731 6  -4497726.36121
  23821152.0424    -879632.41945   -568302.69461
  20457250.6364   -2503378.36446  -1950682.82162
  22507064.5734   -8871019.72346  -6912458.59661
 91  5  7 19 33 29.9990000  0  5G18G11G16G19G 2
  20895443.0194    1936323.06347   1508816.60663
  22483515.0814   -5797403.83746  -4517445.34561
  23816156.011     -905891.460 5   -588764.27021
  20455057.3004   -2514891.85746  -1959654.36662
  22497447.6054   -8921561.33746  -6951841.54461
 91  5  7 19 33 44.9990000  0  5G18G11G16G19G 2
  20899517.8154    1957734.42547   1525500.72663
  22478724.565    -5822574.971 6  -4537059.16521
  23811180.159     -932028.215 4   -609130.56921
  20452875.8394   -2526364.00346  -1968593.69362
  22487840.4254   -8972048.31946  -6991181.92561
 91  5  7 19 33 59.9990000  0  5G18G11G16G19G 2
  20903612.2924    1979250.59447   1542266.51263
  22473963.370    -5847602.634 6  -4556561.18421
  23806234.8394    -958034.48445   -629395.15561
  20450701.6124   -2537786.53146  -1977494.35862
  22478243.425    -9022472.229 6  -7030473.14821
 91  5  7 19 34 14.9990000  0  5G18G11G16G19G 2
  20907726.7764    2000870.02747   1559112.76163
  22469226.315    -5872488.072 6  -4575952.38521
  23801304.1834    -983911.61644   -649559.15161
  20448538.4404   -2549160.61646  -1986357.27562
  22468659.9724   -9072834.40846  -7069716.27861
 91  5  7 19 34 29.9990000  0  5G18G11G16G19G 2
  20911860.3084    2022596.58547   1576042.48563
  22464520.487    -5897227.180 6  -4595229.55621
  23796407.6674   -1009655.39945   -669619.21561
  20446382.1284   -2560482.22146  -1995179.29962
  22459088.6984   -9123130.72546  -7108908.09161
 91  5  7 19 34 44.9990000  0  5G18G11G16G19G 2
  20916015.3624    2044430.40247   1593055.78263
  22459839.0194   -5921819.39746  -4614392.27561
  23791540.058    -1035265.564 5   -689575.19321
  20444239.7534   -2571751.06546  -2003960.21362
  22449529.6444   -9173360.79246  -7148048.28261
 91  5  7 19 34 59.9990000  0  5G18G11G16G19G 2
  20920192.1514    2066376.24147   1610156.37863
  22455190.323    -5946259.434 6  -4633436.40721
  23786691.2764   -1060736.67245   -709422.79961
  20442103.8154   -2582962.01346  -2012696.01262
  22439985.0584   -9223519.41846  -7187132.80061
 91  5  7 19 35 14.9990000  0  5G18G11G16G19G 2
  20924388.3394    2088429.64047   1627340.78163
  22450565.386    -5970551.392 6  -4652365.16121
  23781870.0264   -1086073.22445   -729165.54261
  20439983.0894   -2594119.23646  -2021389.94362
  22430451.2064   -9273610.88146  -7226164.98161
 91  5  7 19 35 29.9990000  0  5G18G11G16G19G 2
  20928604.6514    2110587.54947   1644606.62263
  22445971.6124   -5994698.12446  -4671180.73861
  23777074.300    -1111278.107 5   -748805.72221
  20437867.4174   -2605225.82246  -2030044.42462
  22420931.7764   -9323638.11846  -7265147.12361
 91  5  7 19 35 44.9990000  0  5G18G11G16G19G 2
  20932840.2924    2132841.00847   1661946.91463
  22441402.487    -6018708.229 6  -4689889.86121
  23772298.6754   -1136360.20745   -768350.20861
  20435763.7694   -2616290.38046  -2038666.15262
  22411422.6204   -9373609.72446  -7304085.91061
 91  5  7 19 35 59.9990000  0  5G18G11G16G19G 2
  20937095.5734    2155202.96047   1679371.74963
  22436863.222    -6042568.254 6  -4708482.03421
  23767551.0814   -1161306.42145   -787788.81361
  20433665.5114   -2627299.63547  -2047244.79262
  22401927.1364   -9423512.43046  -7342971.00361
 91  5  7 19 36 14.9990000  0  5G18G11G16G19G 2
  20941370.0424    2177670.14447   1696878.57963
  22432347.472    -6066281.117 6  -4726959.54921
  23762831.5504   -1186119.54545   -807123.70361
  20431584.3784   -2638256.62046  -2055782.69962
  22392442.7534   -9473349.17446  -7381804.71061
 91  5  7 19 36 29.9990000  0  5G18G11G16G19G 2
  20945665.8154    2200235.90647   1714462.22963
  22427863.925    -6089853.398 6  -4745327.50521
  23758134.769    -1210805.962 5   -826359.87821
  20429507.7144   -2649167.96946  -2064285.04662
  22382970.2304   -9523126.49046  -7420592.11061
 91  5  7 19 36 44.9990000  0  5G18G11G16G19G 2
  20949979.5344    2222904.64847   1732126.11563
  22423404.894    -6113280.061 6  -4763582.00221
  23753462.269    -1235361.143 5   -845493.76421
  20427441.5034   -2660028.78346  -2072748.01462
  22373509.7694   -9572839.51946  -7459329.41561
 91  5  7 19 36 59.9990000  0  5G18G11G16G19G 2
  20954311.4334    2245672.72947   1749867.41263
  22418973.894    -6136564.402 6  -4781725.59521
  23748813.2614   -1259788.25445   -864527.88161
  20425382.4254   -2670842.48946  -2081174.27862
  22364062.230    -9622491.822 6  -7498019.39321
 91  5  7 19 37 14.9990000  0  5G18G11G16G19G 2
  20958664.9484    2268555.43647   1767698.02763
  22414573.3944   -6159690.83346  -4799746.15561
  23744190.714    -1284071.918 5   -883450.22021
  20423336.8784   -2681593.61346  -2089551.77762
  22354628.1364   -9672067.63346  -7536649.77161
 91  5  7 19 37 29.9990000  0  5G18G11G16G19G 2
  20963038.3554    2291536.56847   1785605.33863
  22410201.456    -6182675.316 6  -4817656.09521
  23739597.1984   -1308228.36645   -902273.44061
  20421300.5584   -2692298.26246  -2097893.06162
  22345205.0344   -9721583.24646  -7575233.24761
 91  5  7 19 37 44.9990000  0  5G18G11G16G19G 2
  20967434.7224    2314632.73447   1803602.28363
  22405856.2534   -6205500.85946  -4835442.20261
  23735023.9644   -1332240.48845   -920984.20461
  20419275.2924   -2702939.64046  -2106185.03862
  22335798.5974   -9771021.65046  -7613756.55761
 91  5  7 19 37 59.9990000  0  5G18G11G16G19G 2
  20971848.5504    2337825.86547   1821674.78663
  22401540.2844   -6228185.21146  -4853118.27761
  23730479.4334   -1356126.20345   -939596.45161
  20417257.1444   -2713535.38246  -2114441.46262
  22326402.5114   -9820400.69046  -7652233.61261
 91  5  7 19 38 14.9990000  0  5G18G11G16G19G 2
  20976283.7454    2361135.99647   1839838.45763
  22397254.1364   -6250707.85146  -4870668.34861
  23725963.5814   -1379865.17445   -958094.34961
  20415254.7374   -2724065.16846  -2122646.49162
  22317018.7694   -9869699.80546  -7690648.38661
 91  5  7 19 38 29.9990000  0  5G18G11G16G19G 2
  20980736.3944    2384539.96747   1858075.24663
  22392994.722    -6273091.592 6  -4888110.18021
  23721468.6984   -1403480.36245   -976495.79361
  20413257.2534   -2734551.99547  -2130818.04262
  22307648.9174   -9918941.98246  -7729018.79361
 91  5  7 19 38 44.9990000  0  5G18G11G16G19G 2
  20985210.3864    2408049.61447   1876394.38563
  22388764.1834   -6295324.21846  -4905434.27061
  23717000.0034   -1426959.55745   -994791.27561
  20411274.5424   -2744983.61346  -2138946.57462
  22298292.0344   -9968115.24846  -7767335.50761
 91  5  7 19 38 59.9990000  0  6G18G11G16G 6G19G 2
  20989703.1674    2431654.93347   1894788.07063
  22384559.3474   -6317415.51046  -4922648.22461
  23712556.9804   -1450312.85945  -1012988.64161
  24009300.9724     -45935.34444
  20409299.1284   -2755369.88746  -2147039.77362
  22288944.1594  -10017229.30446  -7805606.07361
 91  5  7 19 39 14.9990000  0  6G18G11G16G 6G19G 2
  20994214.0344    2455360.22247   1913259.65663
  22380382.9404   -6339361.03946  -4939748.59961
  23708131.4334   -1473535.94445  -1031084.59061
  24000560.8864     -91866.95944
  20407331.4014   -2765706.51246  -2155094.28362
  22279610.8704  -10066279.76646  -7843827.09761
 91  5  7 19 39 29.9990000  0  6G18G11G16G 6G19G 2
  20998743.878     2479164.563 7   1931808.42323
  22376235.6444   -6361160.75946  -4956735.36061
  23703745.839    -1496628.766 5  -1049078.97621
  23991824.3474    -137794.99144
  20405370.0264   -2775993.68247  -2163110.25862
  22270289.3394  -10115266.72246  -7881998.63161
 91  5  7 19 39 44.9990000  0  6G18G11G16G 6G19G 2
  21003293.253     2503080.085 7   1950443.82523
  22372117.151    -6382802.379 6  -4973598.91921
  23699372.0894   -1519579.27045  -1066962.51361
  23983086.417     -183707.634 5
  20403427.7924   -2786219.22946  -2171078.21662
  22260981.120   -10164177.999 6  -7920111.20321
 91  5  7 19 39 59.9990000  0  6G18G11G16G 6G19G 2
  21007867.269     2527104.497 7   1969164.07423
  22368028.5344   -6404288.24246  -4990341.11961
  23695037.683    -1542389.973 5  -1084737.08021
  23974354.026     -229607.196 5
  20401490.5264   -2796385.48647  -2178999.97162
  22251686.3234  -10213015.97946  -7958166.65861
 91  5  7 19 40 14.9980000  0  6G18G11G16G 6G19G 2
  21012454.732     2551212.395 7   1987949.37923
  22363966.8654   -6425640.15646  -5006978.93561
  23690714.2174   -1565082.86545  -1102419.83661
  23965619.8114    -275514.15945
  20399565.4124   -2806515.07646  -2186893.15862
  22242403.8114  -10261800.62646  -7996180.54461
 91  5  7 19 40 29.9980000  0  6G18G11G16G 6G19G 2
  21017060.764     2575416.283 7   2006809.48223
  22359928.826    -6446851.631 6  -5023507.32021
  23686423.264    -1587651.302 5  -1120005.62621
  23956876.8654    -321425.39744        -0.42571
  20397646.2794   -2816600.08346  -2194751.60362
  22233129.600   -10310529.289 6  -8034150.81821
 91  5  7 19 40 44.9980000  0  6G18G11G16G 6G19G 2
  21021684.6394    2599718.15547   2025745.93563
  22355918.5144   -6467917.01746  -5039921.88161
  23682151.9124   -1610089.86945  -1137490.24161
  23948147.826     -367333.783 5    -35773.05121
  20395736.4284   -2826635.75046  -2202571.60062
  22223869.4594  -10359194.64246  -8072071.75761
 91  5  7 19 40 59.9980000  0  6G18G11G16G 6G19G 2
  21026328.279     2624120.552 7   2044760.71623
  22351939.1544   -6488833.35546  -5056220.28961
  23677904.5144   -1632395.59045  -1154871.32661
  23939409.9204    -413236.57445    -71541.31661
  20393834.9754   -2836619.13846  -2210350.86362
  22214623.6314  -10407793.62146  -8109940.97261
 91  5  7 19 41 14.9980000  0  6G18G11G16G 6G19G 2
  21030992.123     2648629.998 7   2063858.90823
  22347989.3264   -6509593.74546  -5072397.18461
  23673687.115    -1654561.855 5  -1172143.74321
  23930679.787     -459127.092 4   -107300.01721
  20391948.9284   -2846543.39146  -2218084.04762
  22205387.318   -10456319.330 6  -8147753.10121
 91  5  7 19 41 29.9980000  0  6G18G11G16G 6G19G 2
  21035674.639     2673237.822 7   2083033.76523
  22344067.1704   -6530206.60446  -5088459.12761
  23669492.404    -1676597.177 5  -1189314.15321
  23921944.0374    -505013.78944   -143055.75961
  20390070.9754   -2856416.92146  -2225777.70862
  22196165.928   -10504780.122 6  -8185514.64821
 91  5  7 19 41 44.9980000  0  6G18G11G16G 6G19G 2
  21040378.6864    2697955.84847   2102294.49163
  22340173.5844   -6550659.94846  -5104396.76561
  23665328.412    -1698489.728 5  -1206373.30221
  23913210.451     -550884.862 4   -178799.32821
  20388201.9904   -2866227.95846  -2233422.66962
  22186959.5064  -10553164.16146  -8223216.37861
 91  5  7 19 41 59.9980000  0  6G18G11G16G 6G19G 2
  21045099.022     2722765.131 7   2121626.32523
  22336309.0374   -6570972.42746  -5120224.64361
  23661183.8504   -1720258.26645  -1223335.79061
  23904486.1154    -596759.23345   -214545.42061
  20386342.0144   -2875995.22646  -2241033.52062
  22177762.6474  -10601490.29746  -8260872.98762
 91  5  7 19 42 14.9980000  0  6G18G11G16G 6G19G 2
  21049836.3424    2747657.38347   2141022.81663
  22332470.7954   -6591151.87746  -5135948.85961
  23657065.9904   -1741910.61445  -1240207.75261
  23895752.9594    -642644.94045   -250300.42061
  20384492.0064   -2885726.61346  -2248616.41762
  22168575.8344  -10649766.57046  -8298490.74361
 91  5  7 19 42 29.9980000  0  6G18G11G16G 6G19G 2
  21054591.975     2772648.911 7   2160496.65523
  22328656.0614   -6611181.42246  -5151556.26761
  23652972.2564   -1763430.09645  -1256976.19261
  23887018.154     -688525.248 4   -286051.13521
  20382648.6154   -2895405.25346  -2256158.20862
  22159402.5924  -10697976.02046  -8336056.43061
 91  5  7 19 42 44.9980000  0  6G18G11G16G 6G19G 2
  21059364.779     2797726.941 7   2180037.90523
  22324870.803    -6631073.666 6  -5167056.68421
  23648899.428    -1784829.394 5  -1273650.98521
  23878287.178     -734412.921 4   -321807.62421
  20380816.0454   -2905043.84546  -2263668.79862
  22150238.2724  -10746131.15746  -8373579.78861
 91  5  7 19 42 59.9980000  0  6G18G11G16G 6G19G 2
  21064161.022     2822924.256 7   2199672.10223
  22321118.5684   -6650795.62046  -5182424.41061
  23644857.2794   -1806075.73245  -1290206.56261
  23869562.5454    -780275.13044   -357544.28961
  20378992.2324   -2914609.51246  -2271122.55662
  22141091.014   -10794199.087 6  -8411035.20821
 91  5  7 19 43 14.9980000  0  6G18G11G16G 6G19G 2
  21068971.068     2848208.761 7   2219374.24023
  22317391.7564   -6670378.93246  -5197684.10561
  23640837.5924   -1827200.74145  -1306667.64761
  23860837.357     -826143.666 5   -393285.84021
  20377183.8894   -2924133.88946  -2278544.13962
  22131953.311   -10842211.586 6  -8448447.42821
 91  5  7 19 43 29.9980000  0  6G18G11G16G 6G19G 2
  21073802.373     2873594.307 7   2239155.10723
  22313696.9514   -6689809.61746  -5212824.86361
  23636845.3894   -1848190.57045  -1323023.34461
  23852107.647     -872004.660 5   -429021.55021
  20375378.4824   -2933603.11946  -2285922.75862
  22122831.2094  -10890154.67246  -8485805.55662
 91  5  7 19 43 44.9980000  0  6G18G11G16G 6G19G 2
  21078651.115     2899079.406 7   2259013.55323
  22310025.5924   -6709088.36346  -5227847.23761
  23632870.8344   -1869046.29245  -1339274.57761
  23843385.3894    -917858.99244   -464752.05261
  20373589.7324   -2943017.95746  -2293258.98762
  22113721.561   -10938029.262 6  -8523110.32321
 91  5  7 19 43 59.9980000  0  6G18G11G16G 6G19G 2
  21083518.631     2924653.301 7   2278941.18823
  22306384.7874   -6728225.74846  -5242759.44961
  23628928.2094   -1889778.40445  -1355429.49061
  23834649.0534    -963717.57843   -500485.87161
  20371807.4594   -2952389.13946  -2300561.19762
  22104621.357   -10985845.910 6  -8560369.93521
 91  5  7 19 44 14.9980000  0  6G18G11G16G 6G19G 2
  21088403.139     2950319.756 7   2298940.95423
  22302770.9904   -6747217.89046  -5257558.49461
  23625000.8894   -1910383.15545  -1371485.19261
  23825926.3574   -1009576.46443   -536219.85861
  20370031.7644   -2961712.68246  -2307826.28362
  22095535.131   -11033600.758 6  -8597581.39421
 91  5  7 19 44 29.9980000  0  6G18G11G16G 6G19G 2
  21093308.279     2976092.749 7   2319023.72923
  22299187.5294   -6766050.53646  -5272233.25561
  23621115.2484   -1930846.40445  -1387430.57661
  23817199.7644   -1055421.70344   -571943.24361
  20368267.7874   -2970974.54846  -2315043.32162
  22086460.240   -11081279.593 6  -8634733.62221
 91  5  7 19 44 44.9980000  0  6G18G11G16G 6G19G 2
  21098230.623     3001965.475 7   2339184.21423
  22295632.3264   -6784730.13646  -5286788.75661
  23617241.9284   -1951174.70845  -1403270.86761
  23808480.459    -1101259.761 5   -607661.05621
  20366518.2564   -2980181.12446  -2322217.26862
  22077402.068   -11128888.731 6  -8671831.54221
 91  5  7 19 44 59.9980000  0  6G18G11G16G 6G19G 2
  21103170.779     3027927.593 7   2359414.36123
  22292106.1234   -6803266.60646  -5301232.72661
  23613399.834    -1971378.261 5  -1419013.88721
  23799756.6704   -1147100.81344   -643381.24061
  20364773.1004   -2989342.33546  -2329355.86662
  22068352.4904  -11176438.44146  -8708883.15661
 91  5  7 19 45 14.9980000  0  6G18G11G16G 6G19G 2
  21108129.389     3053982.083 7   2379716.48523
  22288605.9754   -6821656.51846  -5315562.49461
  23609579.014    -1991453.845 5  -1434657.22921
  23791034.404    -1192941.713 4   -679101.25221
  20363040.2874   -2998454.98546  -2336456.63162
  22059316.240   -11223925.525 6  -8745885.97421
 91  5  7 19 45 29.9980000  0  6G18G11G16G 6G19G 2
  21113103.811     3080125.770 7   2400088.11023
  22285133.1314   -6839902.93846  -5329780.45061
  23605781.9124   -2011404.41045  -1450203.12561
  23782310.5374   -1238785.67944   -714823.72661
  20361313.3974   -3007521.97546  -2343521.81562
  22050289.936   -11271352.829 6  -8782842.21122
 91  5  7 19 45 44.9980000  0  6G18G11G16G 6G19G 2
  21118097.740     3106364.543 7   2420533.83223
  22281689.2094   -6857999.65846  -5343881.76361
  23602013.2174   -2031223.79545  -1465646.82761
  23773582.576    -1284626.384 3   -750543.63421
  20359599.1234   -3016537.15746  -2350546.62862
  22041276.764   -11318714.094 6  -8819746.98121
 91  5  7 19 45 59.9980000  0  6G18G11G16G 6G19G 2
  21123108.897     3132700.115 7   2441054.97923
  22278274.6784   -6875944.44746  -5357864.68361
  23598269.4904   -2050909.78045  -1480986.58461
  23764864.6074   -1330461.80444   -786259.36561
  20357891.9514   -3025498.44046  -2357529.44462
  22032277.600   -11366007.098 6  -8856598.56721
 91  5  7 19 46 14.9980000  0  6G18G11G16G 6G19G 2
  21128137.850     3159125.457 7   2461646.07923
  22274886.1624   -6893744.05746  -5371734.47861
  23594545.225    -2070469.432 5  -1496227.89521
  23756141.1394   -1376298.91744   -821976.43261
  20356196.9044   -3034412.83146  -2364475.72062
  22023289.506   -11413238.637 6  -8893402.26121
 91  5  7 19 46 29.9980000  0  6G18G11G16G 6G19G 2
  21133184.357     3185646.142 7   2482311.46623
  22271529.3654   -6911392.58846  -5385486.54561
  23590847.897    -2089896.980 5  -1511366.26821
  23747418.2724   -1422131.91044   -857690.28561
  20354509.6394   -3043274.21846  -2371380.70062
  22014314.389   -11460402.912 6  -8930153.53322
 91  5  7 19 46 44.9980000  0  6G18G11G16G 6G19G 2
  21138249.154     3212266.468 7   2503054.50123
  22268200.1074   -6928885.65746  -5399117.48361
  23587176.592    -2109187.940 5  -1526398.18621
  23738698.326    -1467956.446 5   -893397.55221
  20352836.2874   -3052078.19446  -2378240.93762
  22005353.295   -11507495.633 6  -8966849.05421
 91  5  7 19 46 59.9980000  0  6G18G11G16G 6G19G 2
  21143336.436     3238994.365 7   2523881.35623
  22264901.0294   -6946214.92046  -5412620.76761
  23583530.740    -2128334.271 5  -1541317.43021
  23729983.482    -1513764.410 5   -929091.90921
  20351171.6074   -3060816.45146  -2385049.97562
  21996407.420   -11554508.537 6  -9003482.38521
 91  5  7 19 47 14.9980000  0  6G18G11G16G 6G19G 2
  21148437.982     3265807.592 7   2544774.69723
  22261629.0684   -6963402.37446  -5426013.56561
  23579912.412    -2147358.034 5  -1556141.16621
  23721263.490    -1559577.852 5   -964790.52921
  20349519.1704   -3069511.04946  -2391824.98362
  21987470.904   -11601463.610 6  -9040070.65221
 91  5  7 19 47 29.9980000  0  6G18G11G16G 6G19G 2
  21153558.717     3292710.400 7   2565737.84123
  22258390.1544   -6980443.46546  -5439292.30261
  23576314.6624   -2166255.04245  -1570866.13761
  23712545.4284   -1605392.29245  -1000489.96461
  20347871.1544   -3078157.41846  -2398562.41962
  21978547.772   -11648356.064 6  -9076610.11921
 91  5  7 19 47 44.9980000  0  6G18G11G16G 6G19G 2
  21158693.201     3319692.503 7   2586762.77623
  22255171.0534   -6997347.83746  -5452464.50961
  23572740.7254   -2185034.93545  -1585499.83361
  23703824.756    -1651217.583 5  -1036197.86221
  20346234.6154   -3086765.25246  -2405269.82762
  21969635.068   -11695195.843 6  -9113108.54721
 91  5  7 19 47 59.9980000  0  6G18G11G16G 6G19G 2
  21163845.975     3346771.033 7   2607862.84823
  22251984.3114   -7014098.33646  -5465516.80861
  23569193.826    -2203680.536 5  -1600028.89221
  23695108.7014   -1697036.77545  -1071901.02861
  20344606.1784   -3095317.47546  -2411933.89962
  21960735.014   -11741965.743 6  -9149552.51421
 91  5  7 19 48 14.9980000  0  6G18G11G16G 6G19G 2
  21169014.412     3373928.548 7   2629024.46423
  22248823.8114   -7030712.06646  -5478462.54061
  23565668.5224   -2222209.10745  -1614466.76961
  23686379.6784   -1742867.04944  -1107612.79061
  20342987.8184   -3103831.25646  -2418568.01362
  21951845.498   -11788682.844 6  -9185955.34421
 91  5  7 19 48 29.9980000  0  6G18G11G16G 6G19G 2
  21174200.576     3401185.084 7   2650263.24223
  22245691.9364   -7047168.44846  -5491285.66161
  23562167.2794   -2240600.39045  -1628797.64661
  23677663.670    -1788687.987 4  -1143317.27821
  20341376.1314   -3112285.96247  -2425156.10262
  21942967.0144  -11835326.83546  -9222301.21262
 91  5  7 19 48 44.9980000  0  6G18G11G16G 6G19G 2
  21179404.139     3428529.756 7   2671570.69723
  22242589.3654   -7063478.28046  -5503994.59061
  23558694.0144   -2258865.10745  -1643029.91161
  23668946.8734   -1834510.47945  -1179022.97861
  20339778.4824   -3120692.45946  -2431706.62162
  21934103.959   -11881908.447 6  -9258598.46921
 91  5  7 19 48 59.9980000  0  6G18G11G16G 6G19G 2
  21184623.873     3455961.113 7   2692945.69622
  22239513.397    -7079642.724 6  -5516590.22021
  23555239.904    -2277004.614 5  -1657164.62421
  23660225.4594   -1880335.84645  -1214730.91161
  20338189.6234   -3129051.92346  -2438220.49262
  21925250.7404  -11928428.80046  -9294847.99861
 91  5  7 19 49 14.9980000  0  6G18G11G16G 6G19G 2
  21189863.584     3483494.235 7   2714399.99423
  22236467.0764   -7095646.23646  -5529060.46561
  23551815.811    -2295003.265 5  -1671189.56321
  23651505.256    -1926148.607 5  -1250429.02221
  20336610.8264   -3137348.92846  -2444685.69162
  21916415.022   -11974872.389 6  -9331037.70721
 91  5  7 19 49 29.9980000  0  6G18G11G16G 6G19G 2
  21195121.873     3511124.502 7   2735929.98623
  22233449.6004   -7111493.46546  -5541408.91761
  23548416.2404   -2312865.80245  -1685108.42261
  23642789.318    -1971953.408 5  -1286120.94421
  20335041.2174   -3145587.93946  -2451105.70562
  21907590.545   -12021243.832 6  -9367171.19321
 91  5  7 19 49 44.9980000  0  6G18G11G16G 6G19G 2
  21200394.9754    3538836.15247   2757523.39363
  22230461.6474   -7127199.87346  -5553647.65061
  23545037.3424   -2330607.97245  -1698933.53461
  23634075.2484   -2017765.92245  -1321818.88861
  20333481.8034   -3153784.45546  -2457492.59862
  21898777.381   -12067558.673 6  -9403260.57722
 91  5  7 19 49 59.9980000  0  6G18G11G16G 6G19G 2
  21205685.717     3566638.067 7   2779187.13723
  22227502.5454   -7142755.98946  -5565769.25761
  23541690.053    -2348220.169 5  -1712657.33621
  23625354.912    -2063576.892 4  -1357515.63521
  20331932.8574   -3161929.08146  -2463839.06262
  21889974.897   -12113807.484 6  -9439298.51121
 91  5  7 19 50 14.9980000  0  6G18G11G16G 6G19G 2
  21210993.6864    3594532.75847   2800923.17163
  22224571.037    -7158158.769 6  -5577771.40321
  23538368.014    -2365699.694 5  -1726277.77321
  23616636.8424   -2109383.25344  -1393208.80161
  20330393.9674   -3170018.86446  -2470142.78862
  21881187.600   -12159987.376 6  -9475282.74022
 91  5  7 19 50 29.9980000  0  6G18G11G16G 6G19G 2
  21216318.7094    3622513.57547   2822726.31962
  22221667.7324   -7173414.86946  -5589659.23161
  23535060.0064   -2383053.52545  -1739800.28761
  23607918.451    -2155191.889 4  -1428903.73321
  20328860.7404   -3178060.47646  -2476408.98462
  21872412.006   -12206105.060 6  -9511218.49122
 91  5  7 19 50 44.9980000  0  6G18G11G16G 6G19G 2
  21221661.4754    3650590.00147   2844603.96862
  22218794.0614   -7188514.48446  -5601425.14061
  23531785.998    -2400271.578 5  -1753216.95221
  23599205.248    -2200993.028 5  -1464592.79821
  20327343.1544   -3186044.11946  -2482630.00162
  21863650.5454  -12252150.51146  -9547097.96862
 91  5  7 19 50 59.9980000  0  6G18G11G16G 6G19G 2
  21227021.8264    3678755.37547   2866550.92562
  22215947.607    -7203463.898 6  -5613074.00821
  23528535.2014   -2417360.46445  -1766532.99861
  23590490.022    -2246793.084 5  -1500281.04321
  20325832.1074   -3193976.02146  -2488810.70262
  21854901.670   -12298130.167 6  -9582926.17222
 91  5  7 19 51 14.9980000  0  6G18G11G16G 6G19G 2
  21232396.5614    3707003.48447   2888562.34762
  22213134.076    -7218269.200 6  -5624610.57921
  23525307.1864   -2434326.32445  -1779753.15861
  23581773.7954   -2292598.19745
  20324332.6704   -3201862.34246  -2494955.88462
  21846162.2094  -12344050.03846
 91  5  7 19 51 29.9980000  0  6G18G11G16G 6G19G 2
  21237789.7484    3735346.26547   2910647.54662
  22210344.240    -7232918.087 6  -5636025.27121
  23522102.2254   -2451156.84345  -1792867.88361
  23573056.7874   -2338396.09345
  20322845.8734   -3209690.69946  -2501055.89962
  21837438.2484  -12389897.87546
 91  5  7 19 51 44.9980000  0  6G18G11G16G 6G19G 2
  21243201.3344    3763783.18847   2932806.09862
  22207586.764    -7247410.732 6  -5647318.21721
  23518919.943    -2467852.287 5  -1805877.32521
  23564341.8424   -2384187.10045
  20321365.3344   -3217461.20446  -2507110.83662
  21828726.287   -12435673.808 6  -9690102.73722
 91  5  7 19 51 59.9980000  0  6G18G11G16G 6G19G 2
  21248628.6934    3792300.35247   2955027.17462
  22204855.873    -7261760.797 6  -5658500.06521
  23515771.436    -2484426.785 5  -1818792.55021
  23555628.9044   -2429985.01445
  20319891.2794   -3225187.65146  -2513131.44162
  21820026.1154  -12481391.44746  -9725726.77162
 91  5  7 19 52 14.9980000  0  6G18G11G16G 6G19G 2
  21254071.740     3820907.430 7   2977318.31922
  22202152.514    -7275958.255 6  -5669562.99921
  23512638.272    -2500870.038 5  -1831605.47821
  23546913.6074   -2475779.83845
  20318435.8424   -3232859.92346  -2519109.83262
  21811338.6704  -12527040.99246  -9761297.74862
 91  5  7 19 52 29.9980000  0  6G18G11G16G 6G19G 2
  21259530.1864    3849593.93447   2999671.34762
  22199477.459    -7290013.201 6  -5680514.88021
  23509535.1074   -2517192.38045  -1844324.22661
  23538198.514    -2521581.762 5        -0.38831
  20316981.2954   -3240488.06147  -2525053.83262
  21802662.2254  -12572632.40046  -9796823.42862
 91  5  7 19 52 44.9980000  0  6G18G11G16G 6G19G 2
  21265007.4594    3878371.54847   3022095.36962
  22196834.248    -7303913.925 6  -5691346.59421
  23506453.4674   -2533382.31945  -1856939.78761
  23529484.1314   -2567379.25745    -35686.66161
  20315543.3114   -3248060.48646  -2530954.41562
  21793999.3814  -12618154.10746  -9832294.79062
 91  5  7 19 52 59.9980000  0  6G18G11G16G 6G19G 2
  21270498.6004    3907227.62647   3044580.53062
  22194215.818    -7317672.582 6  -5702067.60021
  23503397.482    -2549452.151 5  -1869461.77521
  23520765.0294   -2613184.61845    -71379.02061
  20314109.7564   -3255589.39146  -2536821.09162
  21785349.6154  -12663618.30547  -9867721.34162
 91  5  7 19 53 14.9980000  0  6G18G11G16G 6G19G 2
  21276006.9514    3936173.47547   3067135.63862
  22191626.248    -7331277.560 6  -5712668.86121
  23500361.014    -2565390.343 5  -1881881.16621
  23512051.139    -2658986.109 5   -107068.39321
  20312688.4514   -3263062.89246  -2542644.59462
  21776710.6704  -12709013.20546  -9903093.89462
 91  5  7 19 53 29.9980000  0  6G18G11G16G 6G19G 2
  21281534.3504    3965215.30347   3089765.53562
  22189067.967    -7344722.524 6  -5723145.43321
  23497359.2404   -2581190.55245  -1894193.03861
  23503340.2094   -2704777.54145   -142749.90361
  20311276.4674   -3270474.84446  -2548420.13562
  21768086.186   -12754332.618 6  -9938407.63021
 91  5  7 19 53 44.9980000  0  6G18G11G16G 6G19G 2
  21287076.2954    3994342.42847   3112461.90262
  22186537.514    -7358017.891 6  -5733505.44221
  23494375.4594   -2596863.29445  -1906405.61361
  23494627.787    -2750569.524 5   -178431.85321
  20309876.8184   -3277835.53046  -2554155.73062
  21759475.2014  -12799586.80446  -9973670.53562
 91  5  7 19 53 59.9980000  0  6G18G11G16G 6G19G 2
  21292634.068     4023546.640 7   3135218.33122
  22184036.506    -7371171.361 6  -5743754.87621
  23491413.0064   -2612416.39645  -1918524.94161
  23485909.201    -2796369.675 5   -214120.19321
  20308485.0534   -3285152.65446  -2559857.38262
  21750874.2644  -12844783.45646 -10008888.61262
 91  5  7 19 54 14.9980000  0  6G18G11G16G 6G19G 2
  21298207.3344    4052835.29847   3158040.56062
  22181561.561    -7384175.449 6  -5753887.90321
  23488480.732    -2627842.372 5  -1930545.18921
  23477196.3184   -2842170.67545   -249809.18261
  20307100.9434   -3292418.73046  -2565519.25362
  21742285.0064  -12889915.17146 -10044056.08862
 91  5  7 19 54 29.9980000  0  6G18G11G16G 6G19G 2
  21303795.826     4082201.589 7   3180923.28322
  22179113.045    -7397036.578 6  -5763909.54721
  23485567.842    -2643147.966 5  -1942471.68421
  23468475.9514   -2887978.98745   -285503.87561
  20305725.8034   -3299640.13046  -2571146.31262
  21733708.6154  -12934988.51346 -10079178.08262
 91  5  7 19 54 44.9980000  0  6G18G11G16G 6G19G 2
  21309400.647     4111654.240 7   3203873.30122
  22176696.022    -7409745.811 6  -5773812.82521
  23482679.7954   -2658324.36345  -1954297.49861
  23459762.5924   -2933785.75545   -321197.34561
  20304362.7724   -3306808.03146  -2576731.68262
  21725144.5684  -12979994.37546 -10114247.49162
 91  5  7 19 54 59.9980000  0  6G18G11G16G 6G19G 2
  21315022.4044    4141196.29347   3226892.98062
  22174306.482    -7422299.916 6  -5783595.22721
  23479816.701    -2673368.170 5  -1966019.97421
  23451040.561    -2979587.792 5   -356887.17121
  20303008.5064   -3313919.00446  -2582272.69362
  21716593.6004  -13024929.55046 -10149261.82362
 91  5  7 19 55 14.9980000  0  6G18G11G16G 6G19G 2
  21320660.740     4170826.733 7   3249981.53322
  22171947.748    -7434699.650 6  -5793257.33521
  23476985.061    -2688280.340 5  -1977639.85221
  23442326.654    -3025385.921 5   -392573.88421
  20301667.0064   -3320973.71646  -2587769.86662
  21708054.2724  -13069794.91946 -10184221.76262
 91  5  7 19 55 29.9980000  0  6G18G11G16G 6G19G 2
  21326314.850     4200536.650 7   3273132.01222
  22169614.357    -7446953.589 6  -5802805.84021
  23474163.3734   -2703069.56845  -1989163.98261
  23433611.990    -3071188.817 5   -428264.31521
  20300333.1234   -3327980.81846  -2593229.94062
  21699530.3974  -13114598.97246 -10219133.92162
 91  5  7 19 55 44.9980000  0  6G18G11G16G 6G19G 2
  21331984.287     4230333.579 7   3296350.29022
  22167312.365    -7459053.635 6  -5812234.42821
  23471377.6154   -2717728.10945  -2000586.24761
  23424898.6474   -3116988.40245   -463952.18561
  20299009.7324   -3334932.29546  -2598646.66862
  21691017.6234  -13159333.65647 -10253992.02462
 91  5  7 19 55 59.9980000  0  6G18G11G16G 6G19G 2
  21337668.951     4260209.190 7   3319629.88122
  22165036.998    -7471008.136 6  -5821549.60721
  23468611.1544   -2732264.18445  -2011913.06961
  23416183.6004   -3162792.97045   -499643.93161
  20297694.8344   -3341836.24846  -2604026.36362
  21682516.6004  -13204007.10747 -10288802.41362
 91  5  7 19 56 14.9980000  0  6G18G11G16G 6G19G 2
  21343370.420     4290162.493 7   3342970.01222
  22162788.865    -7482817.890 6  -5830751.98921
  23465869.061    -2746678.660 5  -2023145.17221
  23407465.7954   -3208603.51645   -535340.37861
  20296394.2954   -3348693.54746  -2609369.70862
  21674027.0684  -13248620.35047 -10323565.88662
 91  5  7 19 56 29.9980000  0  6G18G11G16G 6G19G 2
  21349088.193     4320203.030 7   3366378.11422
  22160569.522    -7494472.975 6  -5839833.85721
  23463148.717    -2760961.799 5  -2034274.93121
  23398746.1004   -3254410.17445   -571033.77761
  20295099.5294   -3355494.22546  -2614668.93262
  21665550.318   -13293163.300 7 -10358274.59622
 91  5  7 19 56 44.9980000  0  6G18G11G16G 6G19G 2
  21354820.240     4350331.826 7   3389854.98622
  22158383.428    -7505971.921 7  -5848794.05221
  23460456.857    -2775112.135 5  -2045301.18921
  23390029.4364   -3300211.50645   -606723.00261
  20293816.1704   -3362236.90646  -2619922.96562
  21657087.014   -13337634.446 7 -10392927.35222
 91  5  7 19 56 59.9980000  0  6G18G11G16G 6G19G 2
  21360569.373     4380547.302 7   3413399.40422
  22156225.365    -7517315.967 6  -5857633.55021
  23457788.357    -2789130.904 5  -2056224.94321
  23381317.857    -3346008.825 5   -642409.09721
  20292541.3974   -3368922.85146  -2625132.78762
  21648637.5144  -13382035.12647 -10427525.19762
 91  5  7 19 57 14.9980000  0  6G18G11G16G 6G19G 2
  21366337.225     4410849.208 7   3437011.17022
  22154094.600    -7528505.552 7  -5866352.68921
  23455144.6314   -2803018.74745  -2067046.69461
  23372600.0374   -3391802.52545   -678092.35561
  20291282.1154   -3375552.25146  -2630298.55162
  21640201.7724  -13426365.63647 -10462068.36762
 91  5  7 19 57 29.9980000  0  6G18G11G16G 6G19G 2
  21372115.756     4441222.819 7   3460678.80722
  22151992.115    -7539554.856 6  -5874962.51921
  23452522.4754   -2816790.16745  -2077777.67361
  23363886.6154   -3437606.90545   -713783.97161
  20290026.7874   -3382139.25946  -2635431.28162
  21631776.8974  -13470640.22047 -10496567.95662
 91  5  7 19 57 44.9980000  0  6G18G11G16G 6G19G 2
  21377912.725     4471681.783 6   3484412.95422
  22149919.4984   -7550450.02346  -5883452.23361
  23449930.3654   -2830431.42445  -2088407.25961
  23355167.3344   -3483408.11645   -749473.10661
  20288785.9284   -3388669.99646  -2640520.16162
  21623364.576   -13514844.986 6 -10531013.14722
 91  5  7 19 57 59.9980000  0  6G18G11G16G 6G19G 2
  21383724.662     4502226.462 6   3508213.88822
  22147875.670    -7561190.283 6  -5891821.25121
  23447357.881    -2843941.654 5  -2098934.73221
  23346452.537    -3529205.581 5   -785159.32621
  20287550.2254   -3395143.51746  -2645564.46262
  21614967.4434  -13558979.21647 -10565403.37162
 91  5  7 19 58 14.9980000  0  6G18G11G16G 6G19G 2
  21389551.772     4532855.852 6   3532080.82822
  22145862.623    -7571776.519 7  -5900070.24421
  23444813.084    -2857321.939 5  -2109360.98821
  23337739.1154   -3575000.09045   -820843.24161
  20286332.0224   -3401560.79546  -2650564.93662
  21606580.467   -13603043.878 7 -10599739.38722
 91  5  7 19 58 29.9980000  0  6G18G11G16G 6G19G 2
  21395398.451     4563570.970 7   3556014.56822
  22143875.342    -7582207.260 6  -5908198.07921
  23442290.3424   -2870570.88645  -2119684.85261
  23329026.2724   -3620790.25345   -856523.77661
  20285120.7794   -3407920.32946  -2655520.42262
  21598208.686   -13647037.334 7 -10634019.92422
 91  5  7 19 58 44.9980000  0  6G18G11G16G 6G19G 2
  21401259.5844    4594368.30447   3580012.37162
  22141922.818    -7592485.769 6  -5916207.28721
  23439792.7954   -2883691.69845  -2129908.90361
  23320313.272    -3666579.351 5   -892203.47821
  20283921.3574   -3414225.22346  -2660433.32262
  21589850.748   -13690962.839 7 -10668247.50922
 91  5  7 19 58 59.9980000  0  6G18G11G16G 6G19G 2
  21407133.2564    4625240.73847   3604068.69862
  22139991.232    -7602619.064 6  -5924103.34221
  23437315.2484   -2896691.94645  -2140038.98961
  23311595.998    -3712374.444 5   -927887.87321
  20282730.3974   -3420482.42346  -2665309.06662
  21581503.662   -13734827.415 7 -10702427.62222
 91  5  7 19 59 14.9980000  0  6G18G11G16G 6G19G 2
  21413022.6474    4656184.29147   3628180.43962
  22138090.881    -7612610.708 6  -5931889.02121
  23434866.0764   -2909574.76645  -2150077.56461
  23302880.6154   -3758179.09045   -963579.68161
  20281547.8034   -3426695.39646  -2670150.33962
  21573166.264   -13778634.565 7 -10736562.98622
 91  5  7 19 59 29.9980000  0  6G18G11G16G 6G19G 2
  21418927.053     4687214.768 6   3652359.91522
  22136218.357    -7622444.711 6  -5939551.86021
  23432443.889    -2922324.542 5  -2160012.48321
  23294163.1004   -3803977.40045   -999266.53561
  20280377.2794   -3432848.21646  -2674944.74762
  21564844.279   -13822368.207 7 -10770641.06522
 91  5  7 19 59 44.9980000  0  6G18G11G16G 6G19G 2
  21424846.5064    4718320.54846   3676598.06962
  22134375.748    -7632132.742 6  -5947100.95321
  23430038.4594   -2934952.93545  -2169852.84061
  23285444.0064   -3849780.93945  -1034957.47861
  20279217.2174   -3438952.53546  -2679701.36462
  21556534.990   -13866040.067 7 -10804671.01322
 91  5  7 19 59 59.9980000  0  6G18G11G16G 6G19G 2
  21430781.0924    4749506.77047   3700898.89962
  22132561.670    -7641669.173 6  -5954531.92421
  23427661.9754   -2947454.35645  -2179594.23061
  23276734.756    -3895584.246 5  -1070648.23821
  20278062.1704   -3445002.61546  -2684415.71762
  21548235.889   -13909644.537 7 -10838648.44222
 91  5  7 20  0 14.9980000  0  6G18G11G16G 6G19G 2
  21436732.2724    4780775.56247   3725264.07162
  22130776.514    -7651051.396 6  -5961842.72621
  23425308.6314   -2959826.56445  -2189234.95561
  23268014.897    -3941384.653 5  -1106336.76121
  20276924.0614   -3450995.73146  -2689085.67962
  21539952.7874  -13953178.86747 -10872571.22962
 91  5  7 20  0 29.9980000  0  6G18G11G16G 6G19G 2
  21442697.2644    4812129.96347   3749695.94962
  22129020.740    -7660276.040 6  -5969030.73821
  23422979.959    -2972066.268 5  -2198772.42521
  23259304.850    -3987178.894 5  -1142020.48321
  20275794.1704   -3456928.51446  -2693708.63262
  21531682.279   -13996639.786 7 -10906436.80322
 91  5  7 20  0 44.9980000  0  6G18G11G16G 6G19G 2
  21448682.6394    4843568.84547   3774193.65462
  22127292.928    -7669344.275 6  -5976096.87421
  23420671.5374   -2984174.44545  -2208207.41161
  23250587.943    -4032968.110 5  -1177700.28121
  20274678.6004   -3462802.10346  -2698285.45962
  21523424.943   -14040028.310 7 -10940245.97122
 91  5  7 20  0 59.9980000  0  6G18G11G16G 6G19G 2
  21454676.5454    4875082.01847   3798749.24962
  22125596.045    -7678266.023 6  -5983048.86521
  23418392.4514   -2996161.14245  -2217547.73161
  23241875.0844   -4078762.13945  -1213383.83361
  20273566.6784   -3468626.15346  -2702823.68662
  21515181.420   -14083354.454 7 -10974006.52822
 91  5  7 20  1 14.9980000  0  6G18G11G16G 6G19G 2
  21460691.5684    4906678.37047   3823369.66462
  22123927.592    -7687032.313 6  -5989879.72221
  23416137.748    -3008017.561 5  -2226786.53421
  23233158.6474   -4124552.03045  -1249064.13961
  20272472.9824   -3474391.80946  -2707316.40562
  21506949.459   -14126609.046 7 -11007711.32922
 91  5  7 20  1 29.9980000  0  6G18G11G16G 6G19G 2
  21466719.4204    4938352.30947   3848050.52662
  22122288.451    -7695648.361 6  -5996593.51421
  23413907.373    -3019748.992 5  -2235927.93421
  23224444.318    -4170343.084 5  -1284745.33821
  20271385.9754   -3480103.92846  -2711767.41762
  21498731.701   -14169797.272 7 -11041364.41922
 91  5  7 20  1 44.9980000  0  6G18G11G16G 6G19G 2
  21472760.2794    4970103.12847   3872791.30162
  22120678.639    -7704114.727 6  -6003190.65821
  23411696.381    -3031356.352 5  -2244972.65321
  23215734.857    -4216135.803 5  -1320427.83821
  20270306.7094   -3485763.22746  -2716177.26362
  21490524.662   -14212919.702 7 -11074966.24122
 91  5  7 20  1 59.9980000  0  6G18G11G16G 6G19G 2
  21478815.6314    5001925.71546   3897587.99562
  22119095.787    -7712436.319 6  -6009675.00321
  23409509.834    -3042844.601 5  -2253924.56021
  23207020.092    -4261935.035 5  -1356115.43921
  20269241.4284   -3491374.27846  -2720549.51562
  21482331.318   -14255981.068 7 -11108520.48022
 91  5  7 20  2 14.9980000  0  6G18G11G16G 6G19G 2
  21484887.9514    5033833.80447   3922451.31662
  22117540.115    -7720598.854 6  -6016035.40621
  23407351.873    -3054199.296 5  -2262772.41921
  23198304.3344   -4307726.57045  -1391797.04061
  20268185.5294   -3496922.85846  -2724873.08962
  21474150.795   -14298967.283 7 -11142016.15422
 91  5  7 20  2 29.9980000  0  6G18G11G16G 6G19G 2
  21490974.6864    5065821.99546   3947377.04562
  22116017.272    -7728607.575 6  -6022275.95221
  23405215.467    -3065425.774 5  -2271520.35221
  23189587.7324   -4353515.68745  -1427476.78061
  20267140.1234   -3502414.14346  -2729152.02162
  21465983.725   -14341883.511 7 -11175457.29822
 91  5  7 20  2 44.9980000  0  6G18G11G16G 6G19G 2
  21497076.9044    5097889.03746   3972364.22862
  22114522.170    -7736463.569 6  -6028397.49321
  23403103.0224   -3076525.25745  -2280169.33461
  23180873.8974   -4399303.48745  -1463155.44761
  20266105.5064   -3507849.12046  -2733387.07362
  21457829.732   -14384730.839 7 -11208844.74922
 91  5  7 20  2 59.9980000  0  6G18G11G16G 6G19G 2
  21503192.8814    5130021.58946   3997402.45262
  22113054.607    -7744179.931 6  -6034410.22721
  23401008.6864   -3087510.86545  -2288729.57761
  23172162.920    -4445103.016 5  -1498843.26121
  20265078.9594   -3513240.73746  -2737588.34262
  21449687.5064  -14427522.23347 -11242188.62262
 91  5  7 20  3 14.9980000  0  6G18G11G16G 6G19G 2
  21509321.0684    5162228.00047   4022498.23162
  22111614.326    -7751747.954 7  -6040307.37321
  23398942.428    -3098373.975 5  -2297194.38021
  23163443.951    -4490905.640 5  -1534533.47921
  20264064.4904   -3518580.36346  -2741749.09662
  21441556.803   -14470248.908 7 -11275482.05922
 91  5  7 20  3 29.9980000  0  6G18G11G16G 6G19G 2
  21515466.1004    5194518.28747   4047659.36862
  22110204.9044   -7759157.37846  -6046080.93961
  23396897.8344   -3109104.53045  -2305555.86861
  23154733.178    -4536701.091 5  -1570218.12121
  20263057.0454   -3523857.79646  -2745861.39062
  21433440.701   -14512900.735 7 -11308717.17422
 91  5  7 20  3 44.9980000  0  6G18G11G16G 6G19G 2
  21521624.412     5226878.569 6   4072875.04622
  22108820.186    -7766421.805 6  -6051741.51821
  23394882.3654   -3119716.35845  -2313824.85461
  23146016.131    -4582502.981 5  -1605907.77621
  20262065.2794   -3529086.42246  -2749935.65262
  21425335.787   -14555491.201 7 -11341904.47022
 91  5  7 20  3 59.9980000  0  6G18G11G16G 6G19G 2
  21527797.615     5259319.138 6   4098153.28422
  22107468.7794   -7773530.93847  -6057281.09961
  23392884.826    -3130199.188 5  -2321993.31621
  23137302.0764   -4628300.85445  -1641594.30961
  20261084.0374   -3534255.75846  -2753963.70862
  21417244.053   -14598009.871 7 -11375035.82822
 91  5  7 20  4 14.9980000  0  6G18G11G16G 6G19G 2
  21533983.0534    5291830.43846   4123486.63862
  22106143.1074   -7780493.92546  -6062706.79561
  23390913.6624   -3140562.32945  -2330068.51761
  23128580.092    -4674104.093 5  -1677285.01421
  20260105.6934   -3539374.96346  -2757952.70962
  21409164.545   -14640465.848 7 -11408118.33422
 91  5  7 20  4 29.9980000  0  6G18G11G16G 6G19G 2
  21540183.6154    5324411.96147   4148874.70662
  22104847.115    -7787310.988 6  -6068018.77921
  23388965.428    -3150805.969 5  -2338050.62821
  23119867.990    -4719912.831 5  -1712980.00821
  20259138.9124   -3544444.25546  -2761902.81462
  21401097.482   -14682859.347 7 -11441152.15122
 91  5  7 20  4 44.9980000  0  6G18G11G16G 6G19G 2
  21546401.529     5357078.598 6   4174329.10322
  22103581.1544   -7793967.07246  -6073205.33061
  23387041.154    -3160915.236 5  -2345928.01121
  23111149.670    -4765711.952 5  -1748667.49021
  20258188.2954   -3549448.30746  -2765802.08362
  21393044.084   -14725175.238 7 -11474125.50222
 91  5  7 20  4 59.9980000  0  6G18G11G16G 6G19G 2
  21552629.4824    5389811.32946   4199835.00362
  22102341.4594   -7800480.87846  -6078281.01261
  23385142.8034   -3170908.66345  -2353715.14761
  23102433.990    -4811520.034 5  -1784361.98121
  20257243.1544   -3554405.64446  -2769664.94962
  21385004.732   -14767432.132 7 -11507052.88022
 91  5  7 20  5 14.9980000  0  6G18G11G16G 6G19G 2
  21558874.5764    5422627.35646   4225405.80762
  22101131.350    -7806835.140 6  -6083232.37121
  23383264.084    -3180769.273 5  -2361398.79521
  23093717.9984   -4857319.81345  -1820049.99961
  20256313.7794   -3559298.84246  -2773477.84362
  21376977.1154  -14809612.71447 -11539920.79562
 91  5  7 20  5 29.9980000  0  6G18G11G16G 6G19G 2
  21565132.9044    5455526.98946   4251041.75062
  22099953.850    -7813029.182 6  -6088058.88621
  23381415.420    -3190496.506 5  -2368978.48021
  23085006.4284   -4903110.72445  -1855731.10961
  20255395.6314   -3564127.29046  -2777240.27562
  21368966.217   -14851716.239 7 -11572728.66022
 91  5  7 20  5 44.9980000  0  6G18G11G16G 6G19G 2
  21571406.5224    5488488.09946   4276725.60462
  22098799.912    -7819084.983 6  -6092777.68621
  23379582.4824   -3200112.42245  -2376471.42761
  23076289.584    -4948914.590 5  -1891422.31321
  20254485.7724   -3568912.76646  -2780969.22262
  21360962.936   -14893764.770 7 -11605493.67722
 91  5  7 20  5 59.9980000  0  6G18G11G16G 6G19G 2
  21577692.4904    5521524.95846   4302468.48162
  22097675.1004   -7824988.15846  -6097377.54561
  23377778.8184   -3209602.81145  -2383866.58161
  23067570.522    -4994717.073 5  -1927112.41721
  20253585.4904   -3573640.74446  -2784653.37062
  21352975.982   -14935743.786 7 -11638204.52322
 91  5  7 20  6 14.9980000  0  6G18G11G16G 6G19G 2
  21583991.8034    5554623.02446   4328259.05362
  22096580.084    -7830752.897 6  -6101869.54221
  23375991.3184   -3218981.84145  -2391174.94361
  23058856.1154   -5040532.37545  -1962812.54461
  20252694.381    -3578325.348 6  -2788303.72622
  21344998.232   -14977667.453 7 -11670872.24322
 91  5  7 20  6 29.9980000  0  6G18G11G16G 6G19G 2
  21590309.232     5587806.533 7   4354116.19922
  22095514.6934   -7836354.69846  -6106234.56861
  23374233.9284   -3228225.09145  -2398377.50361
  23050137.647    -5086335.886 5  -1998503.46921
  20251817.0684   -3582942.08246  -2791901.18762
  21337034.897   -15019511.283 7 -11703477.74722
 91  5  7 20  6 44.9980000  0  6G18G11G16G 6G19G 2
  21596634.779     5621053.711 6   4380022.96222
  22094472.982    -7841815.219 6  -6110489.51421
  23372499.037    -3237354.396 5  -2405491.29821
  23041419.904    -5132149.252 5  -2034202.08421
  20250947.3184   -3587512.57046  -2795462.61862
  21329083.764   -15061296.780 7 -11736037.80022
 91  5  7 20  6 59.9980000  0  6G18G11G16G 6G19G 2
  21602975.428     5654370.379 6   4405983.87022
  22093464.3814   -7847128.27946  -6114629.55661
  23370780.3894   -3246363.28445  -2412511.25661
  23032699.897    -5177966.130 5  -2069903.44421
  20250085.1704   -3592030.43346  -2798983.04162
  21321143.6074  -15103017.58447 -11768547.44562
 91  5  7 20  7 14.9980000  0  6G18G11G16G 6G19G 2
  21609329.764     5687769.214 6   4432008.81022
  22092480.5684   -7852281.08046  -6118644.72161
  23369093.904    -3255239.479 5  -2419427.81821
  23023983.5144   -5223773.87345  -2105597.66461
  20249239.7254   -3596482.69846  -2802452.35062
  21313220.0534  -15144660.84947 -11800996.67462
 91  5  7 20  7 29.9980000  0  6G18G11G16G 6G19G 2
  21615696.615     5721233.329 6   4458084.61222
  22091528.4904   -7857290.30446  -6122548.00861
  23367425.2644   -3263999.92545  -2426254.16661
  23015261.803    -5269588.946 5  -2141297.61021
  20248399.639    -3600885.927 6  -2805883.45022
  21305305.545   -15186243.284 7 -11833398.50022
 91  5  7 20  7 44.9980000  0  6G18G11G16G 6G19G 2
  21622077.920     5754759.198 6   4484208.53822
  22090603.8974   -7862159.29546  -6126342.02261
  23365783.201    -3272647.512 5  -2432992.60321
  23006547.1474   -5315414.71345  -2177005.87561
  20247571.7794   -3605243.22046  -2809278.75162
  21297403.506   -15227768.167 7 -11865755.47422
 91  5  7 20  7 59.9980000  0  6G18G11G16G 6G19G 2
  21628470.8114    5788357.64846   4510389.01662
  22089704.1314   -7866876.97346  -6130018.13861
  23364157.8034   -3281171.52945  -2439634.71361
  22997827.709    -5361240.083 5  -2212713.83421
  20246754.092    -3609543.411 6  -2812629.56622
  21289515.264   -15269224.316 7 -11898058.88922
 91  5  7 20  8 14.9980000  0  6G18G11G16G 6G19G 2
  21634878.3734    5822027.73446   4536625.31462
  22088835.3264   -7871443.93246  -6133576.80061
  23362557.639    -3289572.486 5  -2446180.96521
  22989103.7644   -5407065.59745  -2248421.92861
  20245947.287    -3613786.865 6  -2815936.16822
  21281639.100   -15310612.354 7 -11930309.23022
 91  5  7 20  8 29.9980000  0  6G18G11G16G 6G19G 2
  21641299.5684    5855770.40346   4562918.17062
  22087995.6544   -7875859.26646  -6137017.31361
  23360986.8894   -3297849.67545  -2452630.75661
  22980381.5374   -5452890.21945  -2284129.30861
  20245148.436    -3617972.862 6  -2819197.99522
  21273777.342   -15351931.094 7 -11962505.58022
 91  5  7 20  8 44.9980000  0  6G18G11G16G 6G19G 2
  21647734.475     5889582.365 6   4589265.01622
  22087184.7794   -7880125.66046
  23359432.381    -3306005.894 5  -2458986.29421
  22971661.240    -5498716.755 5  -2319838.18421
  20244363.201    -3622103.926 6
  21265927.5614  -15393183.18547 -11994649.99562
 91  5  7 20  8 59.9980000  0  6G18G11G16G 6G19G 2
  21654182.686     5923462.653 6   4615665.11522
  22086401.6544   -7884243.91746
  23357902.678    -3314041.902 5  -2465248.17621
  22962942.0684   -5544545.81445  -2355549.03661
  20243588.365    -3626180.638 6
  21258089.4594  -15434369.40847 -12026743.08762
 91  5  7 20  9 14.9980000  0  5G18G11G 6G19G 2
  21660639.2724    5957406.71946   4642114.91262
  22085645.186    -7888218.739 6  -6146648.06621
  22954220.8814   -5590382.02045  -2391265.44861
  20242821.4824   -3630207.37446  -2828731.41462
  21250263.693   -15475494.367 7 -12058788.43422
 91  5  7 20  9 29.9980000  0  6G18G11G16G 6G19G 2
  21667113.217     5991416.054 6   4668615.55422
  22084916.2174   -7892048.23747  -6149632.07561
  23354911.8574         -0.35055
  22945499.232    -5636223.569 5  -2426986.02421
  20242064.467    -3634182.384 6  -2831828.84022
  21242448.670   -15516556.335 7 -12090784.70222
 91  5  7 20  9 44.9980000  0  6G18G11G16G 6G19G 2
  21673601.772     6025514.402 6   4695185.55622
  22084220.139    -7895708.461 7  -6152484.18421
  23353453.256       -7662.989 5
  22936775.904    -5682046.281 5  -2462691.92921
  20241325.0764   -3638081.56046  -2834867.17062
  21234652.029   -15557531.087 7 -12122713.00822
 91  5  7 20  9 59.9980000  0  6G18G11G16G 6G19G 2
  21680102.420     6059678.383 6   4721806.71222
  22083549.1864   -7899222.56447  -6155222.44061
  23352017.6544     -15207.83945        -0.21871
  22928058.7874   -5727873.39845  -2498401.24861
  20240591.170    -3641927.926 6  -2837864.35322
  21226866.357   -15598441.693 7 -12154591.32722
 91  5  7 20 10 14.9980000  0  6G18G11G16G 6G19G 2
  21686616.8654    6093916.17346   4748485.37661
  22082911.7564   -7902582.16347  -6157840.30361
  23350600.842      -22626.757 5     -5781.23921
  22919337.8264   -5773696.40745  -2534107.40461
  20239869.857    -3645712.858 6  -2840813.66322
  21219095.920   -15639279.751 7 -12186413.12022
 91  5  7 20 10 29.9980000  0  6G18G11G16G 6G19G 2
  21693142.740     6128209.660 6   4775207.43322
  22082298.3114   -7905805.29746  -6160351.82961
  23349214.850      -29937.932 5    -11478.28821
  22910616.2324   -5819533.25045  -2569824.31361
  20239158.912    -3649454.218 6  -2843729.02422
  21211334.8654  -15680063.21247 -12218192.37562
 91  5  7 20 10 44.9970000  0  6G18G11G16G 6G19G 2
  21699679.235     6162554.531 6   4801969.54222
  22081708.1184   -7908893.55946  -6162758.26161
  23347840.642      -37142.635 5    -17092.39621
  22901890.6574   -5865382.80645  -2605551.15261
  20238455.962    -3653153.512 6  -2846611.60822
  21203584.7354  -15720791.19147 -12249928.39362
 91  5  7 20 10 59.9970000  0  6G18G11G16G 6G19G 2
  21706230.728     6196986.251 6   4828799.31721
  22081154.4704   -7911816.09346  -6165035.55761
  23346497.751      -44210.478 5    -22599.85121
  22893163.290    -5911219.513 5  -2641267.95821
  20237763.431    -3656779.745 6  -2849437.25922
  21195850.1964  -15761437.69947 -12281600.92562
 91  5  7 20 11 14.9970000  0  6G18G11G16G 6G19G 2
  21712797.337     6231489.402 6   4855684.75721
  22080625.3604   -7914585.64846  -6167193.64861
  23345176.071      -51154.282 5    -28010.65321
  22884445.634    -5957053.388 5  -2676982.55121
  20237087.915    -3660345.424 6  -2852215.72422
  21188129.6424  -15802012.82747 -12313217.83962
 91  5  7 20 11 29.9970000  0  5G18G11G 6G19G 2
  21719374.103     6266055.371 6   4882619.14221
  22080128.2124   -7917210.93846  -6169239.32361
  22875719.681    -6002892.962 5  -2712701.60321
  20236417.571    -3663859.148 6  -2854953.70322
  21180419.6344  -15842525.14947 -12344785.81962
 91  5  7 20 11 44.9970000  0  6G18G11G16G 6G19G 2
  21725966.251     6300693.003 6   4909609.36721
  22079656.7124   -7919682.52546  -6171165.23361
  23342597.720          -0.85515
  22867000.579    -6048728.734 5  -2748417.69721
  20235760.860    -3667311.414 6  -2857643.79722
  21172724.4154  -15882965.26447 -12376297.52962
 91  5  7 20 11 59.9970000  0  6G18G11G16G 6G19G 2
  21732567.4464    6335375.40646   4936634.47861
  22079210.5324   -7922027.16046  -6172992.21561
  23341345.032       -6606.510 5
  22858272.915    -6094587.406 5  -2784151.63821
  20235111.0794   -3670728.82446  -2860306.72462
  21165036.8994  -15923359.69847 -12407773.64662
 91  5  7 20 12 14.9970000  0  6G18G11G16G 6G19G 2
  21739180.220     6370126.183 6   4963712.86921
  22078792.9544   -7924221.31846  -6174701.94861
  23340112.4624     -13090.70645        -0.34171
  22849545.149    -6140445.536 5  -2819885.15221
  20234472.423    -3674087.649 6  -2862924.00022
  21157362.7514  -15963684.83447 -12439195.76562
 91  5  7 20 12 29.9970000  0  6G18G11G16G 6G19G 2
  21745806.353     6404943.936 6   4990843.45221
  22078405.0404   -7926265.85946  -6176295.09261
  23338902.5174     -19454.33045     -4959.06161
  22840818.384    -6186303.720 5  -2855618.67621
  20233841.9544   -3677388.49546  -2865496.09662
  21149702.7124  -16003941.35947 -12470564.41762
 91  5  7 20 12 44.9970000  0  6G18G11G16G 6G19G 2
  21752443.720     6439827.260 6   5018025.12421
  22078043.9234   -7928162.12646  -6177772.69961
  23337713.235      -25698.884 5     -9825.00621
  22832093.0014   -6232163.11945  -2891353.18361
  20233225.3294   -3680632.67746  -2868024.04162
  21142054.9854  -16044130.69147 -12501880.71762
 91  5  7 20 12 59.9970000  0  6G18G11G16G 6G19G 2
  21759094.134     6474774.675 6   5045256.73821
  22077711.2434   -7929911.60346  -6179135.93061
  23336545.3534     -31826.29145    -14599.65861
  22823365.095    -6278025.255 5  -2927089.79221
  20232617.204    -3683821.525 6  -2870508.87122
  21134418.4854  -16084254.15847 -12533145.69062
 91  5  7 20 13 14.9970000  0  6G18G11G16G 6G19G 2
  21765756.743     6509780.476 6   5072533.84121
  22077405.7984   -7931519.62246  -6180388.93261
  23335399.259      -37841.534 5    -19286.91221
  22814637.157    -6323895.361 5  -2962832.63421
  20232021.6424   -3686960.14146  -2872954.55562
  21126796.3684  -16124316.97547 -12564363.40762
 91  5  7 20 13 29.9970000  0  6G18G11G16G 6G19G 2
  21772432.6814    6544857.95546   5099866.80061
  22077128.3294   -7932972.99346  -6181521.43661
  23334276.2594     -43731.35345    -23876.44861
  22805906.118    -6369760.186 5  -2998571.38821
  20231435.001    -3690035.092 6  -2875350.63422
  21119186.4934  -16164305.94647 -12595523.58162
 91  5  7 20 13 44.9970000  0  6G18G11G16G 6G19G 2
  21779117.087     6579998.673 6   5127249.03521
  22076880.2354   -7934279.71846  -6182539.66362
  23333182.0174     -49504.00845    -28374.69461
  22797179.6494   -6415627.44745  -3034311.99361
  20230860.9544   -3693054.37846  -2877703.33562
  21111589.6184  -16204228.95647 -12626632.35762
 91  5  7 20 13 59.9970000  0  6G18G11G16G 6G19G 2
  21785818.228     6615209.258 6   5154685.72021
  22076659.9624   -7935432.74746  -6183438.13061
  23332109.0174     -55153.09345    -32776.63561
  22788455.110    -6461490.157 5  -3070049.07221
  20230301.376    -3696010.707 6  -2880006.98022
  21104005.2594  -16244078.77847 -12657684.10962
 91  5  7 20 14 14.9970000  0  6G18G11G16G 6G19G 2
  21792533.157     6650489.091 6   5182176.36321
  22076466.2984   -7936432.97246  -6184217.53261
  23331056.696      -60679.302 5    -37082.82221
  22779726.860    -6507349.057 5  -3105783.17621
  20229750.2984   -3698904.90146  -2882262.20562
  21096436.0094  -16283856.16447 -12688679.40662
 91  5  7 20 14 29.9970000  0  6G18G11G16G 6G19G 2
  21799257.868     6685821.800 6   5209708.19621
  22076305.1964   -7937296.19046  -6184890.16461
  23330030.462      -66098.221 5    -41305.42521
  22770997.3924   -6553219.96045  -3141526.62061
  20229208.6184   -3701752.61946  -2884481.21662
  21088876.1264  -16323577.03747 -12719630.67462
 91  5  7 20 14 44.9970000  0  6G18G11G16G 6G19G 2
  21805993.189     6721225.343 6   5237295.22821
  22076170.5644   -7938004.36147  -6185441.99061
  23329015.9544     -71391.79045    -45430.34461
  22762268.5954   -6599084.65945  -3177265.25661
  20228677.165    -3704535.553 6  -2886649.74422
  21081332.4934  -16363223.19947 -12750523.71662
 91  5  7 20 14 59.9970000  0  6G18G11G16G 6G19G 2
  21812741.6574    6756694.01146   5264933.00761
  22076062.3454   -7938563.25947  -6185877.49261
  23328032.259      -76566.233 5    -49462.43721
  22753542.8294   -6644948.71845  -3213003.39761
  20228162.571    -3707259.193 6  -2888772.07322
  21073802.1264  -16402800.29447 -12781362.94362
 91  5  7 20 15 14.9970000  0  6G18G11G16G 6G19G 2
  21819504.196     6792222.393 6   5292617.32021
  22075985.7044   -7938978.00346  -6186200.67061
  23327071.048      -81626.283 5    -53405.40021
  22744809.8454   -6690817.20845  -3248744.99361
  20227650.6494   -3709928.59146  -2890852.13562
  21066282.5014  -16442313.24347 -12812152.18562
 91  5  7 20 15 29.9970000  0  6G18G11G16G 6G19G 2
  21826274.735     6827807.464 6   5320345.79821
  22075931.8764   -7939251.31646  -6186413.63861
  23326127.6814     -86574.83745    -57261.47261
  22736078.2284   -6736692.78945  -3284492.09661
  20227155.3214   -3712546.34546  -2892891.95162
  21058775.4234  -16481764.71947 -12842893.52662
 91  5  7 20 15 44.9970000  0  6G18G11G16G 6G19G 2
  21833058.845     6863446.132 6   5348116.04821
  22075908.6574   -7939385.98846
  23325208.767      -91415.276 5    -61033.30021
  22727351.649    -6782578.249 5  -3320246.89421
  20226663.064    -3715115.163 6  -2894893.63922
  21051278.5564  -16521157.57947 -12873589.19962
 91  5  7 20 15 59.9970000  0  6G18G11G16G 6G19G 2
  21839852.5794    6899142.61246   5375931.33861
  22075909.4544   -7939377.88546
  23324306.4464     -96143.40545    -64717.61661
  22718622.892    -6828469.179 5  -3356005.97921
  20226185.1964   -3717630.53646  -2896853.67862
  21043793.0714  -16560487.32347 -12904235.68262
 91  5  7 20 16 14.9970000  0  6G18G11G16G 6G19G 2
  21846652.9074    6934893.51546   5403789.03561
  22075938.5564   -7939230.00447
  23323422.9234    -100762.05445    -68316.60161
  22709880.1654   -6874368.54945  -3391771.62961
  20225717.1184   -3720095.31746  -2898774.29962
  21036321.7594  -16599756.93447 -12934835.31462
 91  5  7 20 16 29.9970000  0  6G18G11G16G 6G19G 2
  21853469.2354    6970710.27046   5431698.05261
  22075992.7514   -7938930.96646
  23322575.517     -105259.970 5    -71821.52121
  22701149.853    -6920264.759 5  -3427534.78021
  20225261.3764   -3722498.00146  -2900646.52662
  21028861.1734  -16638954.92647 -12965379.13762
 91  5  7 20 16 44.9970000  0  6G18G11G16G 6G19G 2
  21860296.4704    7006594.11646   5459659.34161
  22076081.4784   -7938479.45746  -6185812.18961
  23321733.181     -109635.955 4    -75231.45621
  22692417.782    -6966156.384 5  -3463294.35321
  20224813.157    -3724836.901 6  -2902469.05922
  21021418.2124  -16678079.82447 -12995866.00563
 91  5  7 20 16 59.9970000  0  6G18G11G16G 6G19G 2
  21867140.415     7042550.080 6   5487676.82621
  22076197.8294   -7937869.97546  -6185337.26761
  23320929.040     -113884.497 4    -78542.06821
  22683686.7044   -7012037.76545  -3499045.98861
  20224379.8064   -3727106.61846  -2904237.67462
  21013986.7824  -16717125.94547 -13026291.48562
 91  5  7 20 17 14.9970000  0  6G18G11G16G 6G19G 2
  21873991.579     7078562.829 6   5515738.55221
  22076340.2204   -7937117.71446  -6184751.09461
  23320148.024     -118020.931 5    -81765.34221
  22674956.1814   -7057924.12245  -3534801.50661
  20223961.5954   -3729322.16246  -2905964.08262
  21006568.8294  -16756108.66047 -13056667.55962
 91  5  7 20 17 29.9970000  0  6G18G11G16G 6G19G 2
  21880853.1264    7114616.63946   5543832.27761
  22076505.3294   -7936238.20146  -6184065.75761
  23319375.2124    -122060.66044    -84913.25361
  22666216.251    -7103830.721 5  -3570572.79521
  20223544.915    -3731498.703 6  -2907660.09622
  20999160.7284  -16795043.23447 -13087006.12663
 91  5  7 20 17 44.9970000  0  6G18G11G16G 6G19G 2
  21887729.3924    7150738.43146   5571978.97661
  22076703.8064   -7935204.61546  -6183260.37161
  23318628.1034    -125977.14345    -87965.13561
  22657480.8924   -7149730.59645  -3606338.81261
  20223145.8374   -3733609.20246  -2909304.65062
  20991765.1734  -16833902.65847 -13117286.13262
 91  5  7 20 17 59.9970000  0  6G18G11G16G 6G19G 2
  21894615.0174    7186922.06746   5600173.85461
  22076929.1894   -7934022.80046  -6182339.47461
  23317908.103     -129776.297 5    -90925.60021
  22648748.603    -7195629.654 5  -3642104.20521
  20222753.3844   -3735659.38446  -2910902.20162
  20984383.5174  -16872692.79647 -13147512.14762
 91  5  7 20 18 14.9970000  0  6G18G11G16G 6G19G 2
  21901511.0644    7223170.37546   5628419.14661
  22077183.4934   -7932689.72046  -6181300.71161
  23317205.7044    -133455.16045    -93792.28661
  22640017.556    -7241524.493 6  -3677866.33621
  20222375.9704   -3737645.98746  -2912450.21262
  20977016.0404  -16911410.32747 -13177681.58962
 91  5  7 20 18 29.9970000  0  6G18G11G16G 6G19G 2
  21908422.110     7259482.292 6   5656713.98721
  22077464.1104   -7931206.28346  -6180144.78561
  23316534.4624    -137014.64045    -96565.97361
  22631283.7984   -7287415.93645  -3713625.80661
  20222009.204    -3739569.696 6  -2913949.21622
  20969660.7284  -16950056.16047 -13207795.15962
 91  5  7 20 18 44.9970000  0  6G18G11G16G 6G19G 2
  21915340.3604    7295842.22746   5685046.25361
  22077770.5874   -7929587.69946  -6178883.54561
  23315870.665     -140470.159 5    -99258.62721
  22622545.204    -7333319.070 5  -3749394.37121
  20221655.282    -3741445.623 6  -2915410.98722
  20962318.1264  -16988645.39347 -13237864.62962
 91  5  7 20 18 59.9970000  0  6G18G11G16G 6G19G 2
  21922269.5644    7332255.59746   5713420.14361
  22078107.7594   -7927828.68746  -6177512.88561
  23315238.064     -143816.505 5   -101866.24421
  22613810.2594   -7379228.55345  -3785167.88061
  20221308.6494   -3743268.25446  -2916831.22662
  20954985.9234  -17027172.41347 -13267885.62962
 91  5  7 20 19 14.9970000  0  6G18G11G16G 6G19G 2
  21929209.673     7368723.343 6   5741836.41521
  22078468.5244   -7925928.14746  -6176031.94061
  23314614.532     -147052.716 5   -104388.02921
  22605073.9394   -7425143.13845  -3820945.39061
  20220972.2594   -3745036.35046  -2918208.97662
  20947667.6964  -17065636.23947 -13297857.37862
 91  5  7 20 19 29.9970000  0  6G18G11G16G 6G19G 2
  21936159.853     7405245.387 6   5770294.99421
  22078855.4784   -7923885.97046  -6174440.63261
  23314020.6734    -150178.45245   -106823.75761
  22596336.0564   -7471062.47145  -3856726.58661
  20220643.946    -3746749.585 6  -2919543.97622
  20940358.5644  -17104036.63047 -13327779.69462
 91  5  7 20 19 44.9970000  0  6G18G11G16G 6G19G 2
  21943120.8844    7441822.93546   5798796.81961
  22079272.2354   -7921700.65546  -6172737.79161
  23313455.5174    -153192.19145   -109172.20961
  22587597.1814   -7516985.00945  -3892510.29661
  20220328.735    -3748406.345 6  -2920834.96822
  20933064.2904  -17142371.87747 -13357651.24862
 91  5  7 20 19 59.9970000  0  6G18G11G16G 6G19G 2
  21950089.2904    7478442.47246   5827331.36261
  22079713.0404   -7919385.81846  -6170934.02261
  23312897.165     -156107.797 5   -111444.17721
  22578852.126    -7562924.078 5  -3928306.86921
  20220021.259    -3750019.895 6  -2922092.29122
  20925779.2514  -17180655.44747 -13387482.53662
 91  5  7 20 20 14.9970000  0  6G18G11G16G 6G19G 2
  21957068.368     7515125.433 6   5855915.32021
  22080182.7594   -7916919.67546  -6169012.35361
  23312364.751     -158903.760 5   -113622.92221
  22570110.962    -7608857.836 5  -3964099.29521
  20219728.548    -3751568.313 6  -2923298.86522
  20918508.4934  -17218865.45747 -13417256.50862
 91  5  7 20 20 29.9970000  0  6G18G11G16G 6G19G 2
  21964061.204     7551863.352 6   5884542.11621
  22080680.7204   -7914310.50646  -6166979.23461
  23311855.345     -161588.320 5   -115714.88421
  22561372.6494   -7654794.36145  -3999893.88761
  20219440.571    -3753059.445 6  -2924460.79922
  20911249.6424  -17257010.10747 -13446979.55062
 91  5  7 20 20 44.9970000  0  6G18G11G16G 6G19G 2
  21971062.696     7588655.751 6   5913211.35221
  22081202.0874   -7911558.88946  -6164835.11861
  23311362.0244    -164161.78445   -117720.24261
  22552631.360    -7700733.981 6  -4035690.88821
  20219172.212    -3754493.685 6  -2925578.40022
  20904002.8604  -17295089.63047 -13476651.83862
 91  5  7 20 20 59.9970000  0  6G18G11G16G 6G19G 2
  21978074.603     7625504.206 6   5941924.26721
  22081753.2434   -7908663.07646  -6162578.64161
  23310896.2984    -166622.75145   -119637.96061
  22543887.118    -7746674.911 5  -4071488.93821
  20218908.243    -3755869.320 6  -2926650.33422
  20896769.6104  -17333102.38547 -13506272.10362
 91  5  7 20 21 14.9970000  0  6G18G11G16G 6G19G 2
  21985096.353     7662410.515 6   5970682.26821
  22082333.0874   -7905621.02246  -6160208.20961
  23310452.439     -168969.156 5   -121466.40621
  22535148.103    -7792614.953 5  -4107286.28121
  20218658.853    -3757183.882 6  -2927674.68222
  20889550.2044  -17371046.01447 -13535838.49762
 91  5  7 20 21 29.9970000  0  6G18G11G16G 6G19G 2
  21992126.5874    7699359.75446   5999473.72861
  22082936.6964   -7902447.07246  -6157734.99861
  23310021.587     -171215.606 5   -123216.94621
  22526400.1104   -7838568.35245  -4143094.03361
  20218418.103    -3758451.562 6  -2928662.49922
  20882338.7204  -17408934.92547 -13565362.26362
 91  5  7 20 21 44.9970000  0  6G18G11G16G 6G19G 2
  21999174.7744    7736382.15946   6028322.19161
  22083572.3764   -7899111.26546  -6155135.66761
  23309618.345     -173332.151 5   -124866.28621
  22517660.4854   -7884504.79845  -4178888.57961
  20218191.751    -3759642.110 6  -2929590.21022
  20875145.9544  -17446738.88147 -13594819.82562
 91  5  7 20 21 59.9970000  0  6G18G11G16G 6G19G 2
  22006230.8684    7773463.19846   6057216.33161
  22084234.1264   -7895627.89646  -6152421.35061
  23309244.3374    -175333.27045   -126425.66561
  22508917.665    -7930438.781 5  -4214681.16921
  20217972.931    -3760769.973 6  -2930469.07922
  20867965.2124  -17484472.20447 -13624222.35062
 91  5  7 20 22 14.9970000  0  6G18G11G16G 6G19G 2
  22013296.2354    7810590.99646   6086146.93161
  22084923.4314   -7892008.63846  -6149601.15761
  23308876.306     -177230.618 5   -127904.18521
  22500177.9154   -7976381.58845  -4250480.67861
  20217771.759    -3761846.519 6  -2931307.95922
  20860794.9934  -17522146.44547 -13653578.83462
 91  5  7 20 22 29.9970000  0  6G18G11G16G 6G19G 2
  22020369.712     7847773.461 6   6115120.10421
  22085640.1424   -7888245.60446  -6146668.91961
  23308540.040     -179016.486 5   -129295.82621
  22491433.751    -8022325.075 5  -4286280.70221
  20217576.642    -3762863.457 6  -2932100.39222
  20853641.1104  -17559753.48347 -13682882.95762
 91  5  7 20 22 44.9970000  0  6G18G11G16G 6G19G 2
  22027457.0874    7885005.01846   6144131.54761
  22086380.0644   -7884344.21146  -6143628.87561
  23308217.056     -180696.115 4   -130604.69921
  22482691.2674   -8068274.44846  -4322085.33461
  20217396.610    -3763825.998 6  -2932850.43922
  20846494.5954  -17597298.52047 -13712138.76062
 91  5  7 20 22 59.9970000  0  6G18G11G16G 6G19G 2
  22034549.6104    7922286.73846   6173182.07261
  22087150.7124   -7880303.19946  -6140480.04161
  23307918.267     -182268.124 4   -131829.72521
  22473945.509    -8114228.484 6  -4357893.60421
  20217221.360    -3764732.585 6  -2933556.88022
  20839362.6034  -17634780.23347 -13741345.22262
 91  5  7 20 23 14.9970000  0  6G18G11G16G 6G19G 2
  22041653.243     7959613.068 6   6202267.35621
  22087946.0794   -7876127.86646  -6137226.54261
  23307635.1814    -183738.05344   -132975.18161
  22465197.431    -8160192.267 5  -4393709.44221
  20217059.095    -3765588.462 6  -2934223.81122
  20832241.3214  -17672203.84047 -13770506.41462
 91  5  7 20 23 29.9970000  0  6G18G11G16G 6G19G 2
  22048766.696     7996992.912 6   6231394.33821
  22088767.2044   -7871809.25446  -6133861.39261
  23307377.282     -185097.203 4   -134034.32221
  22456449.2824   -8206156.55445  -4429525.67661
  20216906.314    -3766384.542 6  -2934844.14822
  20825132.5714  -17709560.11547 -13799615.14262
 91  5  7 20 23 44.9970000  0  6G18G11G16G 6G19G 2
  22055892.6184    8034437.92846   6260572.10261
  22089617.4934   -7867335.66946  -6130375.48461
  23307140.618     -186333.897 4   -134998.06821
  22447703.657    -8252109.518 5  -4465333.06921
  20216771.392    -3767108.637 6  -2935408.39022
  20818037.2124  -17746837.24447 -13828662.19662
 91  5  7 20 23 59.9970000  0  6G18G11G16G 6G19G 2
  22063027.985     8071932.461 6   6289788.45721
  22090496.5714   -7862722.47946  -6126780.79861
  23306934.5484    -187463.64145   -135878.44961
  22438960.3374   -8298066.26245  -4501143.42761
  20216641.228    -3767775.827 6  -2935928.29022
  20810956.6344  -17784050.23247 -13857659.26562
 91  5  7 20 24 14.9970000  0  6G18G11G16G 6G19G 2
  22070172.8684    8109478.53346   6319044.95561
  22091400.7284   -7857967.63946  -6123075.73561
  23306735.056     -188484.182 4   -136673.74421
  22430215.571    -8344024.593 6  -4536955.02021
  20216529.071    -3768384.024 6  -2936402.22222
  20803888.4154  -17821197.16347 -13886604.86362
 91  5  7 20 24 29.9970000  0  6G18G11G16G 6G19G 2
  22077328.2434    8147076.47246   6348341.89461
  22092334.2744   -7853070.68846  -6119259.93161
  23306563.8764    -189395.21645   -137383.71261
  22421470.587    -8389983.828 6  -4572767.32421
  20216421.118    -3768932.616 6  -2936829.71022
  20796832.0874  -17858277.47947 -13915498.55762
 91  5  7 20 24 44.9970000  0  6G18G11G16G 6G19G 2
  22084492.7824    8184732.44046   6377684.03261
  22093293.4394   -7848025.46046  -6115328.58961
  23306410.712     -190190.623 5   -138003.59121
  22412724.095    -8435937.795 5  -4608575.53021
  20216332.1034   -3769415.12246  -2937205.69762
  20789789.0874  -17895284.90447 -13944335.45062
 91  5  7 20 24 59.9970000  0  6G18G11G16G 6G19G 2
  22091666.689     8222433.867 6   6407061.60821
  22094278.9934   -7842844.24446  -6111291.28061
  23306282.0644    -190882.86045   -138543.07661
  22403975.040    -8481898.443 5  -4644388.93521
  20216247.9394   -3769843.69946  -2937539.66362
  20782758.6104  -17932231.38747 -13973124.85862
 91  5  7 20 25 14.9970000  0  6G18G11G16G 6G19G 2
  22098851.509     8260181.527 6   6436475.18721
  22095292.5094   -7837526.09646  -6107147.28061
  23306171.970     -191470.864 5   -139001.34521
  22395231.384    -8527864.633 5  -4680206.66121
  20216178.9854   -3770217.07646  -2937830.61562
  20775739.4314  -17969115.75647 -14001865.86662
 91  5  7 20 25 29.9970000  0  6G18G11G16G 6G19G 2
  22106044.978     8297973.468 6   6465923.28821
  22096328.9784   -7832072.87246  -6102898.01361
  23306074.7514    -191956.53645   -139379.87061
  22386482.8604   -8573837.88046  -4716029.87161
  20216116.9314   -3770536.76146  -2938079.73162
  20768731.7824  -18005939.92947 -14030559.96562
 91  5  7 20 25 44.9970000  0  6G18G11G16G 6G19G 2
  22113246.235     8335822.607 6   6495415.95821
  22097393.4854   -7826471.33046  -6098533.18861
  23306009.3994    -192326.92345
  22377738.556    -8619805.055 6  -4751848.34521
  20216071.5564   -3770789.30446
  20761738.6814  -18042690.45847 -14059196.68062
 91  5  7 20 25 59.9970000  0  6G18G11G16G 6G19G 2
  22120459.806     8373726.838 6   6524951.54521
  22098488.2124   -7820723.87446  -6094054.65761
  23305963.4394    -192584.07745
  22368989.2434   -8665768.04146  -4787663.57961
  20216032.4394   -3770976.81947
  20754760.5484  -18079369.43447 -14087777.64262
 91  5  7 20 26 14.9970000  0  6G18G11G16G 6G19G 2
  22127683.9624    8411688.39646   6554531.80461
  22099610.9934   -7814827.85446  -6089460.36561
  23305929.321     -192725.846 5
  22360244.431    -8711724.206 5  -4823473.46921
  20216012.1894   -3771096.57546
  20747794.2904  -18115974.17447 -14116300.75762
 91  5  7 20 26 29.9970000  0  6G18G11G16G 6G19G 2
  22134915.235     8449699.867 6   6584150.96821
  22100760.2204   -7808790.58846  -6084756.00761
  23305925.064     -192759.724 5
  22351498.9394   -8757680.70146  -4859283.63561
  20216001.6734   -3771155.61746
  20740840.079   -18152511.891 7 -14144771.65022
 91  5  7 20 26 44.9970000  0  6G18G11G16G 6G19G 2
  22142161.939     8487764.184 6   6613811.28621
  22101935.2044   -7802609.17846  -6079939.32661
  23305940.103     -192682.380 4
  22342757.876    -8803634.186 6  -4895091.48221
  20216001.4234   -3771150.81646
  20733901.0324  -18188979.39747 -14173187.83562
 91  5  7 20 26 59.9970000  0  6G18G11G16G 6G19G 2
  22149413.9544    8525883.46846   6643514.45861
  22103140.4624   -7796281.36446  -6075008.56861
  23305973.532     -192491.878 4
  22334008.829    -8849582.283 6  -4930895.10821
  20216016.1184   -3771079.58146
  20726974.3374  -18225374.32747 -14201547.46062
 91  5  7 20 27 14.9970000  0  6G18G11G16G 6G19G 2
  22156678.845     8564048.165 6   6673253.00421
  22104369.0794   -7789816.45246  -6069970.98061
  23306028.439     -192197.595 4
  22325264.6184   -8895534.29946  -4966701.78661
  20216040.9784   -3770951.06946
  20720061.689   -18261705.859 7 -14229857.69323
 91  5  7 20 27 29.9970000  0  6G18G11G16G 6G19G 2
  22163950.0324    8602265.68146   6703032.70761
  22105627.5484   -7783207.02646  -6064820.78461
  23306113.470     -191792.059 4
  22316523.431    -8941482.354 6  -5002505.36921
  20216077.470    -3770757.367 6
  20713161.1104  -18297966.44647 -14258112.63763
 91  5  7 20 27 44.9970000  0  6G18G11G16G 6G19G 2
  22171228.681     8640523.500 6   6732843.80821
  22106910.0564   -7776465.35846  -6059567.53861
  23306209.1814    -191287.95844        -0.19371
  22307775.4154   -8987438.61846  -5038315.34461
  20216123.4394   -3770510.75346
  20706271.993   -18334168.158 7 -14286321.70922
 91  5  7 20 27 59.9970000  0  6G18G11G16G 6G19G 2
  22178517.595     8678823.297 6   6762687.62621
  22108220.1894   -7769589.72246  -6054209.91061
  23306320.024     -190683.198 4       470.96821
  22299030.9154   -9033401.13246  -5074130.18661
  20216179.149    -3770209.320 6  -2937824.68822
  20699394.7124  -18370309.18847 -14314483.49062
 91  5  7 20 28 14.9970000  0  6G18G11G16G 6G19G 2
  22185816.610     8717176.305 6   6792572.89721
  22109554.2354   -7762568.72646  -6048739.00561
  23306456.0324    -189966.60445      1029.23161
  22290286.439    -9079358.238 6  -5109940.83421
  20216251.696    -3769841.305 6  -2937537.93922
  20692530.5484  -18406377.96347 -14342588.97262
 91  5  7 20 28 29.9970000  0  6G18G11G16G 6G19G 2
  22193121.337     8755567.864 6   6822488.22321
  22110915.571    -7755416.736 6  -6043166.03821
  23306612.1574    -189152.60945      1663.45961
  22281536.970    -9125324.363 6  -5145758.51921
  20216328.634    -3769420.828 6  -2937210.30722
  20685679.243   -18442388.788 7 -14370649.30023
 91  5  7 20 28 44.9970000  0  6G18G11G16G 6G19G 2
  22200434.5244    8793994.93346   6852431.20861
  22112301.6264   -7748136.79846  -6037493.35861
  23306786.103     -188244.394 5      2371.02821
  22272787.2204   -9171302.00545  -5181585.16461
  20216420.353    -3768950.770 6  -2936844.04122
  20678835.8454  -18478344.41947 -14398666.61663
 91  5  7 20 28 59.9970000  0  6G18G11G16G 6G19G 2
  22207757.7354    8832465.24046   6882407.88361
  22113712.5714   -7740721.33146  -6031715.07961
  23306971.1574    -187234.37645      3157.95761
  22264038.087    -9217283.491 6  -5217414.78521
  20216523.2284   -3768423.16946  -2936432.93862
  20672006.9074  -18514237.17147 -14426634.93663
 91  5  7 20 29 14.9970000  0  6G18G11G16G 6G19G 2
  22215084.478     8870971.855 6   6912412.85121
  22115148.1654   -7733177.12346  -6025836.47761
  23307187.6654    -186129.24745      4018.98361
  22255288.7434   -9263275.35246  -5253252.51261
  20216631.376    -3767844.574 6  -2935982.10022
  20665187.0094  -18550073.55747 -14454559.33363
 91  5  7 20 29 29.9970000  0  6G18G11G16G 6G19G 2
  22222421.665     8909532.309 6   6942459.76821
  22116611.0014   -7725486.37946  -6019843.69561
  23307420.2674    -184911.20045      4968.02661
  22246536.3214   -9309259.50946  -5289084.23061
  20216753.009    -3767196.946 6  -2935477.46822
  20658381.298   -18585835.582 7 -14482425.79023
 91  5  7 20 29 44.9970000  0  6G18G11G16G 6G19G 2
  22229768.439     8948135.049 6   6972539.62721
  22118099.8294   -7717660.77146  -6013745.81561
  23307668.274     -183592.190 5      5995.70821
  22237787.3454   -9355247.35246  -5324918.82661
  20216889.220    -3766491.670 6  -2934927.92222
  20651588.735   -18621534.842 7 -14510243.34723
 91  5  7 20 29 59.9970000  0  6G18G11G16G 6G19G 2
  22237122.657     8986790.273 6   7002660.39321
  22119618.6034   -7709689.75346  -6007534.63761
  23307945.587     -182161.754 5      7110.24621
  22229031.1104   -9401228.27346  -5360748.02561
  20217032.595    -3765717.976 6  -2934325.06222
  20644808.556   -18657160.429 7 -14538003.49323
 91  5  7 20 30 14.9970000  0  6G18G11G16G 6G19G 2
  22244485.2824    9025476.99046   7032805.69861
  22121158.7594   -7701594.22446  -6001226.43461
  23308230.181     -180640.896 5      8295.19521
  22220281.931    -9447222.820 6  -5396587.86321
  20217192.235    -3764896.504 6  -2933684.97022
  20638038.8764  -18692733.41447 -14565722.64363
 91  5  7 20 30 29.9970000  0  6G18G11G16G 6G19G 2
  22251854.478     9064204.133 6   7062982.48821
  22122722.8374   -7693365.08846  -5994814.12261
  23308540.587     -179020.435 5      9557.79821
  22211530.665    -9493221.762 6  -5432431.10621
  20217359.235    -3764017.904 6  -2933000.36522
  20631282.048   -18728244.264 7 -14593393.38123
 91  5  7 20 30 44.9970000  0  6G18G11G16G 6G19G 2
  22259233.5794    9102978.10046   7093195.79461
  22124316.5244   -7684996.06046  -5988292.80761
  23308865.587     -177294.167 5     10902.84121
  22202775.657    -9539218.494 6  -5468272.61521
  20217539.384    -3763075.675 6  -2932266.17722
  20624537.009   -18763686.753 7 -14621010.85923
 91  5  7 20 30 59.9970000  0  6G18G11G16G 6G19G 2
  22266621.2354    9141799.15546   7123445.75261
  22125935.4854   -7676486.59046  -5981662.05161
  23309220.149     -175461.411 5     12330.85421
  22194022.5714   -9585212.18046  -5504111.75561
  20217727.759    -3762068.809 6  -2931481.62622
  20617805.134   -18799059.990 7 -14648574.36923
 91  5  7 20 31 14.9970000  0  6G18G11G16G 6G19G 2
  22274018.556     9180672.445 6   7153736.44421
  22127583.7744   -7667831.45846  -5974917.79961
  23309589.868     -173517.219 5     13845.70521
  22185272.524    -9631197.571 6  -5539944.44221
  20217934.954    -3760991.999 6  -2930642.57722
  20611087.142   -18834358.709 7 -14676079.82023
 91  5  7 20 31 29.9970000  0  6G18G11G16G 6G19G 2
  22281425.3844    9219599.39646   7184068.92461
  22129259.0564   -7659029.43846  -5968059.08861
  23309977.845     -171460.394 5     15448.33221
  22176521.353    -9677172.987 6  -5575769.36821
  20218154.509    -3759843.667 6  -2929747.79222
  20604385.892   -18869581.444 7 -14703526.06023
 91  5  7 20 31 44.9970000  0  6G18G11G16G 6G19G 2
  22288839.6574    9258565.63746   7214432.05061
  22130959.8994   -7650094.57446  -5961096.86761
  23310392.118     -169304.865 5     17127.86921
  22167774.689    -9723152.450 6  -5611597.44221
  20218383.134    -3758637.587 6  -2928808.00922
  20597694.681   -18904742.084 7 -14730923.90823
 91  5  7 20 31 59.9970000  0  6G18G11G16G 6G19G 2
  22296264.8214    9297579.68446   7244832.39761
  22132683.8064   -7641018.38146  -5954024.49861
  23310818.5094    -167042.29045     18890.85261
  22159024.6894   -9769126.84646  -5647421.55861
  20218624.079    -3757365.001 6  -2927816.40622
  20591017.149   -18939831.670 7 -14758266.39723
 91  5  7 20 32 14.9970000  0  6G18G11G16G 6G19G 2
  22303697.6814    9336635.47846   7275265.28061
  22134437.868    -7631806.454 6  -5946846.39221
  23311268.3684    -164678.44645     20732.70261
  22150276.892    -9815101.675 6  -5683246.01221
  20218879.095    -3756031.106 6  -2926777.02622
  20584353.189   -18974855.766 7 -14785557.85123
 91  5  7 20 32 29.9970000  0  5G18G11G 6G19G 2
  22311137.0714    9375728.49446   7305727.17761
  22136214.8844   -7622463.50046  -5939566.16861
  22141528.298    -9861081.408 6  -5719074.29621
  20219143.149    -3754640.433 6  -2925693.40922
  20577700.189   -19009818.868 7 -14812801.77923
 91  5  7 20 32 44.9970000  0  5G18G11G 6G19G 2
  22318584.571     9414861.443 6   7336220.17321
  22138019.5174   -7612986.65846  -5932181.62261
  22132776.3534   -9907063.05446  -5754904.07961
  20219420.571    -3753189.854 6  -2924563.11222
  20571058.899   -19044717.993 7 -14839995.85123
 91  5  7 20 32 59.9970000  0  5G18G11G 6G19G 2
  22326038.814     9454035.790 6   7366745.43821
  22139849.0874   -7603374.46446  -5924691.60461
  22124025.0094   -9953044.65346  -5790733.80961
  20219705.126    -3751677.571 6  -2923384.73022
  20564429.540   -19079551.587 7 -14867138.84923
 91  5  7 20 33 14.9970000  0  5G18G11G 6G19G 2
  22333503.1574    9493249.99146   7397301.74261
  22141703.2284   -7593628.47346  -5917097.33361
  22115274.501    -9999027.887 6  -5826564.81721
  20220006.837    -3750105.171 6  -2922159.51022
  20557812.970   -19114321.046 7 -14894231.88723
 91  5  7 20 33 29.9970000  0  5G18G11G 6G19G 2
  22340973.4854    9532512.96046   7427896.08361
  22143585.3684   -7583739.66246  -5909391.76761
  22106527.2674  -10045003.06146  -5862389.53461
  20220317.892    -3748463.040 6  -2920879.94922
  20551210.064   -19149017.096 7 -14921267.72223
 91  5  7 20 33 44.9970000  0  5G18G11G 6G19G 2
  22348451.5874    9571811.60746   7458518.18161
  22145493.2204   -7573720.61146  -5901584.72061
  22097777.1264  -10090982.70146  -5898217.76661
  20220642.228    -3746763.663 6  -2919555.78122
  20544619.337   -19183652.159 7 -14948256.03323
 91  5  7 20 33 59.9970000  0  5G18G11G 6G19G 2
  22355935.134     9611145.443 6   7489167.73221
  22147423.3844   -7563571.89946  -5893676.63961
  22089028.3534  -10136967.16446  -5934049.74861
  20220978.540    -3745007.383 6  -2918187.27522
  20538040.603   -19218226.497 7 -14975197.03223
 91  5  7 20 34 14.9970000  0  5G18G11G 6G19G 2
  22363427.4624    9650508.32946   7519839.91061
  22149377.4314   -7553299.45146  -5885672.14161
  22080277.728   -10182962.088 6  -5969889.87821
  20221320.540    -3743199.838 6  -2916778.82322
  20531471.321   -19252745.933 7 -15002095.24623
 91  5  7 20 34 29.9970000  0  5G18G11G 6G19G 2
  22370924.884     9689904.946 6   7550538.35421
  22151355.9784   -7542898.69846  -5877567.66861
  22071521.6034  -10228962.67946  -6005734.39561
  20221674.376    -3741336.117 6  -2915326.59222
  20524915.087   -19287205.710 7 -15028946.97523
 91  5  7 20 34 44.9970000  0  5G18G11G 6G19G 2
  22378428.282     9729341.461 6   7581267.91021
  22153360.7434   -7532363.82046  -5869358.67761
  22062768.3604  -10274962.58046  -6041578.38361
  20222041.798    -3739409.981 6  -2913825.72822
  20518368.899   -19321599.763 7 -15055747.48823
 91  5  7 20 34 59.9970000  0  5G18G11G 6G19G 2
  22385941.7904    9768819.21246   7612029.57261
  22155392.6104   -7521692.88246  -5861043.67061
  22054014.5874  -10320959.73946  -6077420.26061
  20222419.485    -3737419.136 6  -2912274.44322
  20511837.267   -19355926.013 7 -15082495.17323
 91  5  7 20 35 14.9970000  0  5G18G11G 6G19G 2
  22393464.7594    9808345.06346   7642828.72761
  22157449.9074   -7510879.12646  -5852617.38061
  22045266.415   -10366947.071 6  -6113254.47721
  20222813.657    -3735356.650 6  -2910667.33522
  20505319.165   -19390177.486 7 -15109184.58623
 91  5  7 20 35 29.9970000  0  5G18G11G 6G19G 2
  22400992.3844    9847906.89146   7673655.89661
  22159533.2434   -7499934.70146  -5844089.26961
  22036507.6264  -10412936.53845  -6149090.36561
  20223215.728    -3733234.544 6  -2909013.76822
  20498813.337   -19424366.220 7 -15135825.11823
 91  5  7 20 35 44.9970000  0  5G18G11G 6G19G 2
  22408526.1184    9887499.19346   7704506.83861
  22161639.3214   -7488864.70446  -5835463.30461
  22027757.048   -10458932.950 6  -6184931.62821
  20223631.853    -3731057.360 6  -2907317.27922
  20492318.595   -19458497.213 7 -15162420.65423
 91  5  7 20 35 59.9970000  0  5G18G11G 6G19G 2
  22416069.1574    9927139.81246   7735395.41661
  22163772.8454   -7477651.28946  -5826725.59161
  22019007.603   -10504918.230 6  -6220764.23921
  20224058.751    -3728807.129 6  -2905563.87122
  20485838.337   -19492552.420 7 -15188957.13723
 91  5  7 20 36 14.9970000  0  5G18G11G 6G19G 2
  22423619.501     9966813.138 6   7766309.48821
  22165930.017    -7466310.249 6  -5817888.42821
  22010257.618   -10550907.808 6  -6256600.19021
  20224499.009    -3726499.451 6  -2903765.69722
  20479369.032   -19526547.251 7 -15215446.56923
 91  5  7 20 36 29.9970000  0  5G18G11G 6G19G 2
  22431174.751    10006525.967 5   7797254.34821
  22168114.9154   -7454834.67546  -5808946.43261
  22001503.173   -10596894.481 6  -6292433.88921
  20224948.610    -3724126.997 6  -2901917.04522
  20472912.493   -19560474.564 7 -15241883.38923
 91  5  7 20 36 44.9970000  0  5G18G11G 6G19G 2
  22438738.415    10046271.590 5   7828224.74421
  22170321.9154   -7443231.15846  -5799904.73961
  21992754.2044  -10642884.46446  -6328270.16561
  20225414.603    -3721696.070 6  -2900022.84022
  20466467.540   -19594340.782 7 -15268272.60723
 91  5  7 20 36 59.9970000  0  5G18G11G 6G19G 2
  22446310.290    10086050.973 6   7859221.44421
  22172555.9704   -7431498.59646  -5790762.49561
  21984000.8994  -10688876.55446  -6364108.09561
  20225886.345    -3719205.333 6  -2898082.01922
  20460035.876   -19628144.775 7 -15294613.33423
 91  5  7 20 37 14.9970000  0  5G18G11G 6G19G 2
  22453886.853    10125872.691 5   7890251.14421
  22174814.1964   -7419628.01346  -5781512.70361
  21975250.493   -10734861.477 6  -6399940.41721
  20226374.884    -3716645.615 6  -2896087.45122
  20453616.0954  -19661877.24947 -15320898.33763
 91  5  7 20 37 29.9970000  0  5G18G11G 6G19G 2
  22461469.735    10165718.021 5   7921299.23521
  22177094.6184   -7407638.32446  -5772170.10361
  21966498.431   -10780857.922 6  -6435781.71321
  20226868.735    -3714035.439 6  -2894053.56322
  20447207.126   -19695556.905 7 -15347142.18023
 91  5  7 20 37 44.9970000  0  5G18G11G 6G19G 2
  22469058.962    10205592.653 6   7952370.14621
  22179401.3214   -7395523.99246  -5762730.37561
  21957745.884   -10826859.897 6  -6471627.34121
  20227378.814    -3711368.874 6  -2891975.73322
  20440809.399   -19729178.045 7 -15373340.42923
 91  5  7 20 37 59.9970000  0  5G18G11G 6G19G 2
  22476651.345    10245499.246 5   7983465.98521
  22181730.907    -7383282.120 6  -5753191.26921
  21948989.704   -10872864.169 6  -6507474.74521
  20227895.649    -3708642.675 6  -2889851.43522
  20434423.024   -19762737.545 7 -15399490.64523
 91  5  7 20 38 14.9970000  0  5G18G11G 6G19G 2
  22484254.9074   10285446.47945   8014593.47161
  22184085.978    -7370903.751 6  -5743545.80021
  21940238.0484  -10918861.61846  -6543316.85161
  20228429.126    -3705847.679 6  -2887673.53123
  20428050.3994  -19796226.31947 -15425585.75363
 91  5  7 20 38 29.9970000  0  5G18G11G 6G19G 2
  22491865.524    10325443.920 5   8045760.08721
  22186469.149    -7358379.560 6  -5733786.71021
  21931486.095   -10964842.523 6  -6579146.04021
  20228974.1424   -3702974.36446  -2885434.59662
  20421693.189   -19829634.733 7 -15451618.24023
 91  5  7 20 38 44.9970000  0  5G18G11G 6G19G 2
  22499484.8064   10365482.36145   8076958.64861
  22188879.6574   -7345718.58546  -5723921.02561
  21922733.970   -11010815.691 6  -6614969.22421
  20229536.446    -3700031.428 6  -2883141.41322
  20415348.759   -19862971.674 7 -15477595.03323
 91  5  7 20 38 59.9970000  0  5G18G11G 6G19G 2
  22507112.259    10405563.203 5   8108190.26221
  22191315.149    -7332919.466 6  -5713947.71021
  21913992.243   -11056779.452 6  -6650785.06521
  20230110.939    -3697017.115 6  -2880792.61322
  20409018.4314  -19896235.77947 -15503515.07763
 91  5  7 20 39 14.9970000  0  5G18G11G 6G19G 2
  22514748.337    10445687.041 5   8139455.35021
  22193775.384    -7319981.424 6  -5703866.13121
  21905248.173   -11102732.689 6  -6686592.70421
  20230697.3214   -3693930.51746  -2878387.48362
  20402702.9394  -19929425.80147 -15529377.39763
 91  5  7 20 39 29.9970000  0  5G18G11G 6G19G 2
  22522389.6264   10485845.31945   8170747.29261
  22196264.564    -7306912.956 6  -5693682.93821
  21896500.9464  -11148683.68346  -6722398.60561
  20231297.110    -3690779.743 6  -2875932.34922
  20396400.1894  -19962550.11147 -15555188.51763
 91  5  7 20 39 44.9970000  0  5G18G11G 6G19G 2
  22530036.9624   10526035.45645   8202064.08461
  22198775.337    -7293716.559 6  -5683400.05421
  21887760.946   -11194634.519 6  -6758204.37321
  20231909.353    -3687566.889 6  -2873428.84122
  20390108.2904  -19995610.97547 -15580950.19063
 91  5  7 20 39 59.9960000  0  5G18G11G 6G19G 2
  22537691.5124   10566247.97645   8233398.26461
  22201309.926    -7280400.016 6  -5673023.54621
  21879014.1684  -11240588.80446  -6794012.83661
  20232532.1764   -3684298.80046  -2870882.29062
  20383828.207   -20028612.804 7 -15606665.85623
 91  5  7 20 40 14.9960000  0  5G18G11G 6G19G 2
  22545347.1764   10606480.47445   8264748.07061
  22203863.684    -7266969.180 6  -5662557.98321
  21870265.277   -11286559.979 6  -6829834.45421
  20233161.059    -3680982.462 6  -2868298.14522
  20377557.7544  -20061567.46547 -15632344.78263
 91  5  7 20 40 29.9960000  0  5G18G11G 6G19G 2
  22553007.426    10646735.038 5   8296115.01721
  22206444.066    -7253420.061 6  -5652000.23921
  21861515.621   -11332539.687 6  -6865662.72321
  20233801.582    -3677612.864 6  -2865672.50022
  20371296.3564  -20094467.69347 -15657981.28963
 91  5  7 20 40 44.9960000  0  5G18G11G 6G19G 2
  22560674.8634   10687028.15145   8327512.03961
  22209047.465    -7239735.970 6  -5641337.33921
  21852769.1134  -11378511.15946  -6901484.57961
  20234457.043    -3674173.046 6  -2862992.13722
  20365049.246   -20127296.722 7 -15683562.30723
 91  5  7 20 40 59.9960000  0  5G18G11G 6G19G 2
  22568347.2854   10727348.42845   8358930.21761
  22211674.262    -7225928.441 6  -5630578.24421
  21844017.770   -11424485.463 6  -6937308.64321
  20235120.551    -3670674.281 6  -2860265.84422
  20358813.379   -20160065.827 7 -15709096.63123
 91  5  7 20 41 14.9960000  0  5G18G11G 6G19G 2
  22576027.8954   10767709.18445   8390379.94961
  22214327.566    -7211984.165 6  -5619712.58921
  21835275.410   -11470448.814 6  -6973124.16921
  20235802.645    -3667102.721 6  -2857482.82522
  20352591.926   -20192761.276 7 -15734573.56223
 91  5  7 20 41 29.9960000  0  5G18G11G 6G19G 2
  22583710.785    10808083.509 5   8421840.23621
  22217002.645    -7197930.018 6  -5608761.32821
  21826525.621   -11516427.730 6  -7008951.81721
  20236493.691    -3663484.944 6  -2854663.79122
  20346378.5514  -20225409.81847 -15760013.94863
 91  5  7 20 41 44.9960000  0  5G18G11G 6G19G 2
  22591399.2774   10848483.18045   8453320.30161
  22219701.129    -7183754.228 6  -5597715.28121
  21817771.012   -11562410.346 6  -7044782.35421
  20237190.066    -3659808.996 6  -2851799.43322
  20340176.738   -20257999.466 7 -15785408.43823
 91  5  7 20 41 59.9960000  0  5G18G11G 6G19G 2
  22599093.113    10888918.261 5   8484827.92621
  22222423.4104   -7169446.57846  -5586566.49261
  21809021.7544  -11608386.02146  -7080607.48961
  20237899.348    -3656064.294 6  -2848881.49722
  20333989.5824  -20290519.90947 -15810749.00163
 91  5  7 20 42 14.9960000  0  5G18G11G 6G19G 2
  22606798.0824   10929388.32845   8516362.83461
  22225171.527    -7155007.157 6  -5575315.01521
  21800276.082   -11654354.597 6  -7116427.10021
  20238628.606    -3652250.700 6  -2845909.88122
  20327814.3164  -20322970.76847 -15836035.34663
 91  5  7 20 42 29.9960000  0  5G18G11G 6G19G 2
  22614502.637    10969889.930 5   8547922.30121
  22227942.348    -7140439.655 6  -5563963.73621
  21791528.801   -11700319.364 6  -7152243.73421
  20239364.465    -3648371.591 6  -2842887.21922
  20321650.3484  -20355355.63747 -15861270.26763
 91  5  7 20 42 44.9960000  0  5G18G11G 6G19G 2
  22622217.3794   11010428.09445   8579510.26961
  22230740.027    -7125739.053 6  -5552508.74521
  21782784.457   -11746274.976 6  -7188053.21821
  20240119.191    -3644421.517 6  -2839809.25622
  20315502.270   -20387669.293 7 -15886449.69623
 91  5  7 20 42 59.9960000  0  5G18G11G 6G19G 2
  22629935.816    11050988.788 5   8611115.77321
  22233559.738    -7110919.287 6  -5540960.89121
  21774036.949   -11792235.029 6  -7223866.16821
  20240881.598    -3640414.170 6  -2836686.66722
  20309364.2314  -20419925.49947 -15911584.36263
 91  5  7 20 43 14.9960000  0  5G18G11G 6G19G 2
  22637658.2234   11091573.31645   8642739.86861
  22236401.363    -7095978.933 6  -5529319.07921
  21765291.215   -11838197.834 6  -7259681.27321
  20241654.543    -3636347.650 6  -2833517.96622
  20303236.4574  -20452122.66747 -15936673.02963
 91  5  7 20 43 29.9960000  0  5G18G11G 6G19G 2
  22645388.1134   11132190.89545   8674389.72361
  22239270.949    -7080908.887 6  -5517576.20721
  21756544.7154  -11884153.85846  -7295491.10061
  20242440.418    -3632212.629 6  -2830295.89022
  20297122.676   -20484251.298 7 -15961708.28523
 91  5  7 20 43 44.9960000  0  5G18G11G 6G19G 2
  22653123.8014   11172837.43945   8706062.12561
  22242162.707    -7065712.939 6  -5505735.22121
  21747801.9104  -11930106.60546  -7331298.36361
  20243240.902    -3628012.579 6  -2827023.14322
  20291021.410   -20516315.007 7 -15986692.94723
 91  5  7 20 43 59.9960000  0  5G18G11G 6G19G 2
  22660866.5434   11213518.81345   8737761.69561
  22245078.801    -7050385.158 6  -5493791.51521
  21739059.316   -11976049.814 6  -7367098.19221
  20244053.723    -3623741.411 6  -2823694.98022
  20284933.3634  -20548307.69247 -16011622.27163
 91  5  7 20 44 14.9960000  0  5G18G11G 6G19G 2
  22668612.0984   11254224.99045   8769480.56461
  22248019.824    -7034935.725 6  -5481753.00621
  21730314.5354  -12021993.27946  -7402898.22361
  20244878.449    -3619408.794 6  -2820318.93422
  20278856.2854  -20580239.45947 -16036504.13263
 91  5  7 20 44 29.9960000  0  5G18G11G 6G19G 2
  22676359.254    11294950.182 5   8801214.26321
  22250981.184    -7019370.531 6  -5469624.30221
  21721572.973   -12067942.557 6  -7438702.78521
  20245710.785    -3615020.328 6  -2816899.36722
  20272790.9814  -20612115.73547 -16061342.75263
 91  5  7 20 44 44.9960000  0  5G18G11G 6G19G 2
  22684114.6134   11335697.61545   8832965.28461
  22253965.762    -7003686.310 6  -5457402.84521
  21712828.8404  -12113894.01646  -7474509.04961
  20246559.699    -3610572.535 6  -2813433.57322
  20266735.652   -20643933.068 7 -16086135.43523
 91  5  7 20 44 59.9960000  0  5G18G11G 6G19G 2
  22691875.074    11376469.510 5   8864735.34921
  22256973.6134   -6987880.69346  -5445086.79061
  21704080.582   -12159844.971 6  -7510314.90921
  20247416.184    -3606062.657 6  -2809919.40222
  20260693.4264  -20675688.86547 -16110880.17363
 91  5  7 20 45 14.9960000  0  5G18G11G 6G19G 2
  22699637.801    11417268.246 5   8896526.35621
  22260003.9104   -6971951.10146  -5432674.12561
  21695339.770   -12205792.593 6  -7546118.17721
  20248289.770    -3601487.764 6  -2806354.57122
  20254662.3094  -20707380.40947 -16135574.84763
 91  5  7 20 45 29.9960000  0  5G18G11G 6G19G 2
  22707407.0274   11458094.19945   8928338.55661
  22263060.363    -6955897.208 6  -5420164.61621
  21686598.5514  -12251736.15346  -7581918.29361
  20249169.301    -3596847.216 6  -2802738.58122
  20248643.7624  -20739007.15747 -16160219.02763
 91  5  7 20 45 44.9960000  0  5G18G11G 6G19G 2
  22715178.7854   11498941.21145   8960167.17061
  22266137.7854   -6939725.26446  -5407563.10861
  21677855.535   -12297681.505 6  -7617719.79421
  20250067.106    -3592147.002 6  -2799076.09622
  20242635.7384  -20770575.06247 -16184817.35763
 91  5  7 20 45 59.9960000  0  5G18G11G 6G19G 2
  22722959.934    11539827.985 5   8992026.79621
  22269241.3634   -6923416.45846  -5394854.95361
  21669113.816   -12343609.531 6  -7653507.78321
  20250974.176    -3587367.888 6  -2795352.13022
  20236645.6994  -20802065.11747 -16209355.02763
 91  5  7 20 46 14.9960000  0  5G18G11G 6G19G 2
  22730745.4264   11580732.77645   9023900.41061
  22272365.0984   -6906992.27846  -5382056.90461
  21660375.4574  -12389541.36546  -7689298.74761
  20251896.332    -3582531.143 6  -2791583.25922
  20230662.8244  -20833498.62247 -16233848.63563
 91  5  7 20 46 29.9960000  0  5G18G11G 6G19G 2
  22738533.1914   11621666.17645   9055796.37361
  22275516.1214   -6890442.21446  -5369160.74761
  21651633.965   -12435466.122 6  -7725084.20321
  20252830.121    -3577625.849 6  -2787760.97022
  20224693.3794  -20864864.83247 -16258289.79763
 91  5  7 20 46 44.9960000  0  5G18G11G 6G19G 2
  22746327.895    11662624.865 5   9087711.96321
  22278688.5514   -6873769.73046  -5356169.21061
  21642897.5354  -12481386.95546  -7760866.60561
  20253776.238    -3572655.150 6  -2783887.71822
  20218737.0434  -20896167.03047 -16282681.08263
 91  5  7 20 46 59.9960000  0  5G18G11G 6G19G 2
  22754126.113    11703599.424 5   9119640.00321
  22281882.8564   -6856984.29646  -5343089.65461
  21634156.332   -12527312.857 6  -7796652.95021
  20254730.340    -3567628.097 6  -2779970.55722
  20212791.6604  -20927414.22847 -16307029.51363
 91  5  7 20 47 14.9960000  0  5G18G11G 6G19G 2
  22761929.512    11744602.753 5   9151590.36521
  22285101.2854   -6840072.98646  -5329912.01061
  21625416.754   -12573230.648 6  -7832432.95421
  20255702.543    -3562531.642 6  -2775999.31422
  20206857.9264  -20958593.31347 -16331324.86763
 91  5  7 20 47 29.9960000  0  5G18G11G 6G19G 2
  22769736.348    11785620.660 5   9183552.18121
  22288338.4654   -6823049.74346  -5316647.15261
  21616679.0204  -12619153.92646  -7868217.25561
  20256681.777    -3557379.275 6  -2771984.50222
  20200935.1914  -20989717.99147 -16355577.82063
 91  5  7 20 47 44.9960000  0  5G18G11G 6G19G 2
  22777546.3634   11826664.93545   9215534.49361
  22291604.3094   -6805902.85346  -5303285.94561
  21607942.8634  -12665070.51446  -7903996.34761
  20257676.559    -3552159.036 6  -2767916.80522
  20195025.1214  -21020776.46547 -16379779.19563
 91  5  7 20 47 59.9960000  0  5G18G11G 6G19G 2
  22785362.6914   11867738.70345   9247539.78161
  22294889.8794   -6788629.13946  -5289825.91861
  21599205.918   -12710976.996 6  -7939767.55221
  20258681.551    -3546867.263 6  -2763793.36722
  20189127.9884  -21051765.34347 -16403926.33963
 91  5  7 20 48 14.9960000  0  5G18G11G 6G19G 2
  22793182.981    11908838.817 5   9279565.63521
  22298200.9264   -6771231.57146  -5276269.37361
  21590472.9814  -12756875.85946  -7975532.82461
  20259703.387    -3541506.822 6  -2759616.42122
  20183243.6454  -21082687.31847 -16428021.35463
 91  5  7 20 48 29.9960000  0  5G18G11G 6G19G 2
  22801005.7624   11949955.90045   9311604.64061
  22301533.2314   -6753719.74446  -5262623.79961
  21581738.754   -12802776.356 6  -8011299.37121
  20260733.020    -3536086.750 6  -2755393.01322
  20177370.7314  -21113551.64247 -16452071.44063
 91  5  7 20 48 44.9960000  0  5G18G11G 6G19G 2
  22808834.957    11991089.819 5   9343656.81321
  22304887.7464   -6736093.78146  -5248889.28761
  21573000.988   -12848678.280 6  -8047067.03321
  20261776.496    -3530606.784 6  -2751122.93322
  20171509.0594  -21144358.25947 -16476076.55763
 91  5  7 20 48 59.9960000  0  5G18G11G 6G19G 2
  22816669.1994   12032250.26145   9375729.60261
  22308264.5204   -6718343.86046  -5235058.18061
  21564269.004   -12894571.476 6  -8082827.88721
  20262830.199    -3525056.971 6  -2746798.42322
  20165659.0904  -21175097.15047 -16500028.91163
 91  5  7 20 49 14.9960000  0  5G18G11G 6G19G 2
  22824505.098    12073434.996 5   9407821.37821
  22311665.262    -6700472.194 6  -5221132.21421
  21555538.215   -12940457.665 6  -8118583.27821
  20263903.356    -3519439.033 6  -2742420.83222
  20159821.3484  -21205770.18347 -16523929.94263
 91  5  7 20 49 29.9960000  0  5G18G11G 6G19G 2
  22832346.379    12114642.871 5   9439931.15821
  22315089.3094   -6682479.78246  -5207112.16661
  21546805.879   -12986337.516 6  -8154333.74421
  20264982.910    -3513753.747 6  -2737990.76122
  20153997.3324  -21236378.17547 -16547780.28563
 91  5  7 20 49 44.9960000  0  5G18G11G 6G19G 2
  22840196.895    12155885.069 5   9472067.69921
  22318538.7074   -6664355.66446  -5192989.48761
  21538079.895   -13032199.758 6  -8190070.48221
  20266080.637    -3507989.861 6  -2733499.44322
  20148186.9964  -21266910.00147 -16571571.27863
 91  5  7 20 49 59.9960000  0  5G18G11G 6G19G 2
  22848046.613    12197137.406 5   9504212.14121
  22322008.7234   -6646123.69746  -5178782.76661
  21529351.527   -13078067.809 6  -8225811.73921
  20267186.793    -3502170.921 6  -2728965.22422
  20142387.2624  -21297389.23347 -16595321.29563
 91  5  7 20 50 14.9960000  0  5G18G11G 6G19G 2
  22855898.4494   12238401.43245   9536365.67261
  22325499.0984   -6627782.55246  -5164490.97361
  21520622.215   -13123939.921 6  -8261556.17021
  20268308.316    -3496295.090 6  -2724386.67822
  20136597.7544  -21327814.31747 -16619029.11563
 91  5  7 20 50 29.9960000  0  5G18G11G 6G19G 2
  22863756.316    12279689.413 5   9568537.90621
  22329011.910    -6609319.875 6  -5150104.48521
  21511894.684   -13169803.395 6  -8297293.87021
  20269435.910    -3490349.654 6  -2719753.89122
  20130820.9574  -21358172.51447 -16642684.81463
 91  5  7 20 50 44.9960000  0  5G18G11G 6G19G 2
  22871618.754    12321013.167 5   9600737.97521
  22332551.098    -6590723.801 6  -5135614.05321
  21503168.8714  -13215645.89246  -8333015.23761
  20270584.949    -3484322.551 6  -2715057.47122
  20125057.8404  -21388451.83647 -16666279.05663
 91  5  7 20 50 59.9960000  0  5G18G11G 6G19G 2
  22879491.215    12362367.347 5   9632961.75121
  22336113.168    -6572000.018 6  -5121024.10521
  21494451.270   -13261472.772 6  -8368724.41621
  20271743.816    -3478219.039 6  -2710301.50722
  20119310.129   -21418657.758 7 -16689816.09323
 91  5  7 20 51 14.9960000  0  5G18G11G 6G19G 2
  22887360.379    12403729.658 5   9665191.88021
  22339696.5664   -6553170.75346  -5106351.96361
  21485728.9104  -13307305.94446  -8404438.49561
  20272918.598    -3472061.147 6  -2705503.17022
  20113572.4264  -21448812.21047 -16713313.03463
 91  5  7 20 51 29.9960000  0  5G18G11G 6G19G 2
  22895232.9184   12445111.16245   9697436.95361
  22343300.9884   -6534224.72346  -5091588.83361
  21477005.6914  -13353133.69446  -8440148.37161
  20274103.285    -3465837.128 6  -2700653.30522
  20107846.4024  -21478903.61347 -16736760.84263
 91  5  7 20 51 44.9960000  0  5G18G11G 6G19G 2
  22903116.0274   12486522.53445   9729705.31461
  22346931.848    -6515151.170 6  -5076726.33821
  21468290.8634  -13398944.99246  -8475845.42161
  20275301.231    -3459535.876 6  -2695743.26422
  20102133.402   -21508921.226 7 -16760151.14723
 91  5  7 20 51 59.9960000  0  5G18G11G 6G19G 2
  22910997.121    12527948.197 5   9761984.82121
  22350581.785    -6495965.791 6  -5061776.70221
  21459571.934   -13444754.885 6  -8511541.36521
  20276512.543    -3453172.578 6  -2690784.86322
  20096432.926   -21538880.261 7 -16783495.80523
 91  5  7 20 52 14.9960000  0  5G18G11G 6G19G 2
  22918888.723    12569406.629 5   9794289.82621
  22354257.856    -6476649.978 6  -5046725.43421
  21450859.9964  -13490544.55746  -8547221.55661
  20277738.293    -3446728.466 6  -2685763.49622
  20090746.4574  -21568761.79447 -16806780.07263
 91  5  7 20 52 29.9960000  0  5G18G11G 6G19G 2
  22926778.7464   12610868.74245   9826597.72461
  22357952.9184   -6457232.84246  -5031595.20861
  21442142.4814  -13536342.65146  -8582908.32261
  20278975.832    -3440232.506 6  -2680701.72722
  20085069.8014  -21598594.69747 -16830026.45863
 91  5  7 20 52 44.9960000  0  5G18G11G 6G19G 2
  22934667.2314   12652330.20145   9858905.11161
  22361665.785    -6437718.826 6  -5016389.50321
  21433424.0274  -13582153.20046  -8618604.78561
  20280220.020    -3433688.544 6  -2675602.55622
  20079400.426   -21628383.205 7 -16853238.24023
 91  5  7 20 52 59.9960000  0  5G18G11G 6G19G 2
  22942565.7314   12693832.77345   9891244.54961
  22365405.707    -6418066.187 6  -5001075.77321
  21424715.043   -13627934.180 6  -8654278.20321
  20281482.152    -3427054.500 6  -2670433.19222
  20073748.8404  -21658085.43047 -16876382.78863
 91  5  7 20 53 14.9960000  0  5G18G11G 6G19G 2
  22950467.8634   12735356.45145   9923600.37961
  22369168.0434   -6398294.86846  -4985669.56561
  21416005.8634  -13673704.99746  -8689943.70861
  20282758.465    -3420350.007 6  -2665208.93222
  20068108.7384  -21687720.91347 -16899475.33663
 91  5  7 20 53 29.9960000  0  5G18G11G 6G19G 2
  22958372.512    12776896.387 5   9955968.91521
  22372952.059    -6378409.608 6  -4970174.57421
  21407296.1134  -13719469.97146  -8725604.67461
  20284045.395    -3413579.446 6  -2659933.18622
  20062481.6524  -21717294.17547 -16922519.39963
 91  5  7 20 53 44.9960000  0  5G18G11G 6G19G 2
  22966282.1604   12818451.45745   9988349.23161
  22376758.566    -6358411.661 6  -4954591.77621
  21398585.4884  -13765230.06346  -8761261.82361
  20285348.496    -3406743.714 6  -2654606.66222
  20056865.246   -21746806.383 7 -16945515.88023
 91  5  7 20 53 59.9960000  0  5G18G11G 6G19G 2
  22974192.676    12860027.481 5  10020745.89421
  22380585.340    -6338295.214 6  -4938916.63221
  21389882.6134  -13810979.09346  -8796910.34561
  20286664.090    -3399836.607 6  -2649224.51922
  20051261.949   -21776251.419 7 -16968460.02223
 91  5  7 20 54 14.9960000  0  5G18G11G 6G19G 2
  22982108.121    12901629.038 5  10053162.44921
  22384437.5824   -6318055.63946  -4923145.55061
  21381177.629   -13856712.001 6  -8832546.32321
  20287992.113    -3392853.309 6  -2643783.00822
  20045673.1844  -21805624.43947 -16991348.05063
 91  5  7 20 54 29.9960000  0  5G18G11G 6G19G 2
  22990030.356    12943252.659 5  10085596.18521
  22388312.1454   -6297696.29446  -4907281.13861
  21372475.981   -13902431.776 6  -8868172.06921
  20289332.348    -3385796.923 6  -2638284.54822
  20040096.9184  -21834928.52447 -17014182.35963
 91  5  7 20 54 44.9960000  0  5G18G11G 6G19G 2
  22997953.848    12984896.536 5  10118045.70621
  22392209.770    -6277219.163 6  -4891324.94121
  21363781.1994  -13948139.83946  -8903788.67461
  20290691.027    -3378668.986 6  -2632730.32622
  20034533.9104  -21864165.22947 -17036964.16963
 91  5  7 20 54 59.9960000  0  5G18G11G 6G19G 2
  23005883.0274   13026559.43045  10150510.08761
  22396127.4964   -6256625.44346  -4875277.90061
  21355084.5434  -13993837.02246  -8939396.80361
  20292059.121    -3371470.188 6  -2627120.89222
  20028982.2934  -21893335.48247 -17059694.19864
 91  5  7 20 55 14.9960000  0  5G18G11G 6G19G 2
  23013813.777    13068232.870 5  10182982.65121
  22400067.1994   -6235923.68446  -4859146.65861
  21346388.676   -14039531.429 6  -8975002.77721
  20293442.738    -3364208.790 6  -2621462.68122
  20023441.527   -21922447.699 7 -17082379.00223
 91  5  7 20 55 29.9960000  0  5G18G11G 6G19G 2
  23021747.6844   13109920.46645  10215466.23861
  22404027.410    -6215110.102 6  -4842928.30521
  21337693.996   -14085219.001 6  -9010603.43821
  20294837.551    -3356880.703 6  -2615752.50322
  20017913.1994  -21951497.78047 -17105015.39063
 91  5  7 20 55 44.9960000  0  5G18G11G 6G19G 2
  23029682.918    13151618.130 5  10247957.70121
  22408008.981    -6194188.836 6  -4826626.03521
  21329001.7154  -14130903.47246  -9046201.66661
  20296242.949    -3349489.644 6  -2609993.25822
  20012396.6994  -21980489.69247 -17127606.45563
 91  5  7 20 55 59.9960000  0  5G18G11G 6G19G 2
  23037620.4964   13193330.39745  10280460.51861
  22412011.8714   -6173155.50346  -4810236.44261
  21320311.1994  -14176579.89046  -9081793.61961
  20297661.301    -3342030.954 6  -2604181.31122
  20006892.3794  -22009418.81447 -17150148.58764
 91  5  7 20 56 14.9960000  0  5G18G11G 6G19G 2
  23045563.012    13235066.778 5  10312982.12521
  22416037.191    -6152000.474 6  -4793752.02021
  21311621.9494  -14222238.20646  -9117371.46961
  20299095.879    -3334494.720 6  -2598308.93922
  20001400.8094  -22038275.29448 -17172634.11963
 91  5  7 20 56 29.9960000  0  5G18G11G 6G19G 2
  23053506.5664   13276808.53245  10345507.93561
  22420082.215    -6130742.390 6  -4777187.28821
  21302933.895   -14267896.738 6  -9152949.48921
  20300543.270    -3326899.185 6  -2592390.36222
  19995919.2934  -22067077.43148 -17195077.30363
 91  5  7 20 56 44.9960000  0  5G18G11G 6G19G 2
  23061451.8164   13318569.32245  10378048.54061
  22424149.434    -6109367.803 6  -4760531.78121
  21294245.481   -14313541.522 6  -9188516.79721
  20302001.504    -3319230.380 6  -2586414.68422
  19990451.7314  -22095811.57348 -17217467.50363
 91  5  7 20 56 59.9960000  0  5G18G11G 6G19G 2
  23069400.363    13360344.652 5  10410600.50021
  22428237.527    -6087881.089 6  -4743788.90521
  21285563.1374  -14359176.57746  -9224076.52161
  20303471.777    -3311492.467 6  -2580385.16522
  19984995.5824  -22124481.82147 -17239807.92263
 91  5  7 20 57 14.9960000  0  5G18G11G 6G19G 2
  23077352.387    13402129.232 5  10443159.66821
  22432346.621    -6066287.623 6  -4726962.84621
  21276879.606   -14404806.828 6  -9259632.50821
  20304958.902    -3303690.501 6  -2574305.73122
  19979550.3874  -22153093.13148 -17262102.41363
 91  5  7 20 57 29.9960000  0  5G18G11G 6G19G 2
  23085310.816    13443936.812 5  10475736.71721
  22436479.340    -6044573.703 6  -4710042.92121
  21268200.3404  -14450418.29146  -9295173.84461
  20306456.316    -3295810.401 6  -2568165.40922
  19974120.6064  -22181631.72548 -17284340.24463
 91  5  7 20 57 44.9960000  0  5G18G11G 6G19G 2
  23093267.1454   13485756.61845  10508323.36661
  22440633.348    -6022749.972 6  -4693037.43621
  21259522.809   -14496021.108 6  -9330708.44821
  20307970.098    -3287862.430 6  -2561972.20722
  19968701.6684  -22210108.04848 -17306529.55363
 91  5  7 20 57 59.9960000  0  5G18G11G 6G19G 2
  23101230.574    13527590.918 5  10540921.22221
  22444807.051    -6000814.219 6  -4675944.66421
  21250847.2314  -14541612.64146  -9366234.26261
  20309494.402    -3279844.053 6  -2555724.14122
  19963294.7384  -22238519.50547 -17328668.31663
 91  5  7 20 58 14.9960000  0  5G18G11G 6G19G 2
  23109191.996    13569432.026 5  10573524.44121
  22449000.012    -5978774.158 6  -4658770.61021
  21242171.3954  -14587199.91746  -9401756.75361
  20311034.996    -3271762.632 6  -2549426.94722
  19957899.6294  -22266873.52947 -17350762.32463
 91  5  7 20 58 29.9960000  0  5G18G11G 6G19G 2
  23117154.1064   13611280.64945  10606133.51761
  22453213.684    -5956629.063 6  -4641514.70421
  21233496.590   -14632782.155 6  -9437275.32521
  20312583.238    -3263617.044 6  -2543079.76122
  19952514.8874  -22295169.13648 -17372810.81363
 91  5  7 20 58 44.9960000  0  5G18G11G 6G19G 2
  23125123.496    13653146.982 5  10638756.37721
  22457451.645    -5934368.954 6  -4624169.19921
  21224825.2704  -14678348.78646  -9472781.72561
  20314149.035    -3255397.017 6  -2536674.56722
  19947143.3244  -22323396.06247 -17394805.78763
 91  5  7 20 58 59.9960000  0  5G18G11G 6G19G 2
  23133090.7384   13695023.68545  10671387.31661
  22461706.566    -5912001.186 6  -4606739.79121
  21216158.9654  -14723906.68646  -9508281.32361
  20315725.621    -3247109.509 6  -2530216.78622
  19941783.0824  -22351561.35147 -17416752.72863
 91  5  7 20 59 14.9960000  0  5G18G11G 6G19G 2
  23141063.7544   13736912.03245  10704027.34261
  22465985.2154   -5889524.33146  -4589225.38061
  21207489.559   -14769453.995 6  -9543772.67521
  20317316.285    -3238752.662 6  -2523704.98022
  19936436.0434  -22379663.48347 -17438650.46163
 91  5  7 20 59 29.9960000  0  5G18G11G 6G19G 2
  23149038.1134   13778815.26144  10736678.95161
  22470282.551    -5866935.379 6  -4571623.60921
  21198824.3874  -14814987.16546  -9579253.00561
  20318918.910    -3230323.080 6  -2517136.49622
  19931101.0744  -22407699.01047 -17460496.28963
 91  5  7 20 59 44.9960000  0  5G18G11G 6G19G 2
  23157011.981    13820725.026 5  10769335.62221
  22474601.152    -5844242.631 6  -4553940.97021
  21190161.5354  -14860514.29246  -9614728.62861
  20320535.762    -3221828.784 6  -2510517.58222
  19925777.2854  -22435676.05947 -17482296.55463
 91  5  7 20 59 59.9960000  0  5G18G11G 6G19G 2
  23164990.207    13862640.244 5  10801996.59121
  22478938.566    -5821447.117 6  -4536178.25821
  21181498.1994  -14906035.77246  -9650199.84561
  20322163.215    -3213270.412 6  -2503848.73922
  19920464.5204  -22463595.28047 -17504051.75663
 91  5  7 21  0 14.9960000  0  5G18G11G 6G19G 2
  23172967.0274   13904564.04444  10834664.25361
  22483296.973    -5798545.798 6  -4518333.08721
  21172838.6604  -14951548.23846  -9685664.04661
  20323806.988    -3204644.564 6  -2497127.32222
  19915162.6294  -22491453.49647 -17525759.42663
 91  5  7 21  0 29.9960000  0  5G18G11G 6G19G 2
  23180946.2704   13946500.01544  10867341.33861
  22487676.621    -5775534.947 6  -4500402.58121
  21164178.1294  -14997047.45146  -9721117.91561
  20325459.434    -3195947.138 6  -2490350.12922
  19909874.4414  -22519246.65547 -17547416.39863
 91  5  7 21  0 44.9960000  0  5G18G11G 6G19G 2
  23188928.7234   13988445.42544  10900025.83561
  22492074.168    -5752417.331 6  -4482388.87021
  21155523.0274  -15042535.90146  -9756563.38961
  20327130.098    -3187180.586 6  -2483519.07122
  19904596.4344  -22546977.26347 -17569024.62863
 91  5  7 21  0 59.9960000  0  5G18G11G 6G19G 2
  23196911.3324   14030399.50644  10932717.06961
  22496493.395    -5729193.681 6  -4464292.53621
  21146869.0594  -15088013.66246  -9792000.54261
  20328809.871    -3178345.336 6  -2476634.47822
  19899331.8094  -22574645.81847 -17590584.50863
 91  5  7 21  1 14.9960000  0  5G18G11G 6G19G 2
  23204897.902    14072362.228 4  10965415.05321
  22500934.129    -5705864.346 6  -4446113.85621
  21138217.4104  -15133480.78246  -9827429.40261
  20330505.559    -3169441.352 6  -2469696.33522
  19894077.8164  -22602252.42647 -17612096.11963
 91  5  7 21  1 29.9960000  0  5G18G11G 6G19G 2
  23212886.7934   14114344.09944  10998127.93561
  22505394.668    -5682418.688 6  -4427844.52721
  21129571.1764  -15178926.07746  -9862841.25561
  20332214.6294   -3160457.51946  -2462695.96962
  19888838.5744  -22629786.06647 -17633550.86763
 91  5  7 21  1 44.9960000  0  4G11G 6G19G 2
  22509877.410    -5658866.132 6  -4409491.90621
  21120923.3874  -15224358.65746  -9898243.19561
  20333938.629    -3151403.091 6  -2455640.59222
  19883612.6294  -22657255.99048 -17654955.96963
 91  5  7 21  1 59.9960000  0  4G11G 6G19G 2
  22514379.207    -5635205.625 6  -4391055.16521
  21112279.0824  -15269776.91946  -9933633.98461
  20335672.7774   -3142276.65346  -2448529.10862
  19878396.5514  -22684661.09248 -17676310.56463
 91  5  7 21  2 14.9960000  0  4G11G 6G19G 2
  22518903.0124   -5611434.23646  -4372532.02061
  21103640.5124  -15315177.54646  -9969011.03061
  20337425.941    -3133074.935 6  -2441358.95722
  19873193.9654  -22711997.96347 -17697611.98763
 91  5  7 21  2 29.9960000  0  4G11G 6G19G 2
  22523445.363    -5587563.148 6  -4353931.19121
  21095004.3954  -15360571.24646 -10004382.67561
  20339187.934    -3123808.781 6  -2434138.60222
  19868003.0044  -22739277.54047 -17718868.76663
 91  5  7 21  2 44.9960000  0  4G11G 6G19G 2
  22528006.543    -5563592.928 6  -4335253.12121
  21086363.1684  -15405958.15246 -10039749.03661
  20340964.426    -3114478.309 6  -2426868.12722
  19862823.3324  -22766500.00047 -17740081.04163
 91  5  7 21  2 59.9960000  0  4G11G 6G19G 2
  22532588.926    -5539515.718 6  -4316491.67521
  21077731.270   -15451329.938 6 -10075103.59821
  20342752.504    -3105075.337 6  -2419541.15922
  19857655.4654  -22793657.21947 -17761242.47563
 91  5  7 21  3 14.9960000  0  4G11G 6G19G 2
  22537190.613    -5515327.441 6  -4297643.67821
  21069101.2544  -15496682.07846 -10110442.85561
  20344559.090    -3095595.481 6  -2412154.28022
  19852500.6844  -22820744.86747 -17782349.70063
 91  5  7 21  3 29.9960000  0  4G11G 6G19G 2
  22541813.645    -5491045.672 6  -4278722.83521
  21060471.1064  -15542031.69646 -10145780.15461
  20346371.027    -3086055.984 6  -2404720.92622
  19847354.9964  -22847780.56847 -17803416.44763
 91  5  7 21  3 44.9960000  0  4G11G 6G19G 2
  22546450.8874   -5466675.28846  -4259732.93861
  21051842.0744  -15587383.20046 -10181118.91961
  20348199.035    -3076461.349 6  -2397244.61222
  19842220.2234  -22874768.81247 -17824446.21463
 91  5  7 21  3 59.9960000  0  4G11G 6G19G 2
  22551105.699    -5442215.731 6  -4240673.55721
  21043213.2624  -15632735.57646 -10216458.36261
  20350036.676    -3066810.608 6  -2389724.57922
  19837094.0664  -22901708.57047 -17845438.19863
 91  5  7 21  4 14.9960000  0  4G11G 6G19G 2
  22555780.738    -5417642.806 6  -4221525.84721
  21034585.2544  -15678064.21946 -10251779.31461
  20351887.121    -3057079.122 6  -2382141.62522
  19831980.4264  -22928575.23747 -17866373.22763
 91  5  7 21  4 29.9960000  0  4G11G 6G19G 2
  22560475.4654   -5392977.45746  -4202306.10261
  21025959.6524  -15723389.49946 -10287097.64961
  20353752.770    -3047287.458 6  -2374511.78422
  19826877.7314  -22955389.65747 -17887267.54763
 91  5  7 21  4 44.9960000  0  4G11G 6G19G 2
  22565190.8404   -5368194.69946  -4182994.88461
  21017341.0044  -15768685.95146 -10322393.51761
  20355631.371    -3037410.271 6  -2366815.30222
  19821790.4574  -22982126.65647 -17908101.53863
 91  5  7 21  4 59.9960000  0  4G11G 6G19G 2
  22569925.129    -5343319.208 6  -4163611.40221
  21008721.6454  -15813977.72646 -10357685.74261
  20357522.918    -3027471.941 6  -2359071.17222
  19816712.1764  -23008810.56248 -17928894.15563
 91  5  7 21  5 14.9960000  0  4G11G 6G19G 2
  22574678.777    -5318342.340 6  -4144148.93321
  21000105.7854  -15859255.81946 -10392967.30561
  20359426.707    -3017463.500 6  -2351272.41322
  19811647.1064  -23035432.49047 -17949638.48163
 91  5  7 21  5 29.9960000  0  4G11G 6G19G 2
  22579450.746    -5293257.298 6  -4124602.16721
  20991494.2544  -15904513.05746 -10428232.62161
  20361345.2704   -3007377.72446  -2343413.39462
  19806593.8794  -23061985.46648 -17970329.07663
 91  5  7 21  5 44.9960000  0  4G11G 6G19G 2
  22584245.145    -5268061.981 6  -4104969.46721
  20982886.4964  -15949746.68846 -10463479.53362
  20363280.4814   -2997211.97746  -2335492.06662
  19801555.6524  -23088466.99948 -17990964.00463
 91  5  7 21  5 59.9960000  0  4G11G 6G19G 2
  22589055.840    -5242777.424 6  -4085267.23821
  20974280.2624  -15994977.33846 -10498724.13661
  20365223.082    -2986987.024 6  -2327524.59622
  19796524.7624  -23114897.72848 -18011559.34763
 91  5  7 21  6 14.9960000  0  4G11G 6G19G 2
  22593886.613    -5217400.557 6  -4065493.07421
  20965673.832   -16040201.492 6 -10533963.66221
  20367184.1454   -2976699.61446  -2319508.45962
  19791504.6604  -23141274.34347 -18032112.51863
 91  5  7 21  6 29.9960000  0  4G11G 6G19G 2
  22598733.981    -5191919.472 6  -4045637.69821
  20957070.8794  -16085406.70046 -10569188.44162
  20369157.9814   -2966337.51646  -2311434.12762
  19786498.7854  -23167584.56847 -18052613.95863
 91  5  7 21  6 44.9960000  0  4G11G 6G19G 2
  22603600.746    -5166344.787 6  -4025709.40021
  20948469.5824  -16130603.20246 -10604406.42761
  20371139.0744   -2955910.88546  -2303309.51462
  19781503.1994  -23193838.90547 -18073071.85263
 91  5  7 21  6 59.9960000  0  4G11G 6G19G 2
  22608487.1454   -5140677.25846  -4005708.73661
  20939872.0124  -16175791.24446 -10639617.82261
  20373134.1844   -2945420.04046  -2295134.85862
  19776516.6914  -23220037.76347 -18093486.51463
 91  5  7 21  7 14.9960000  0  4G11G 6G19G 2
  22613388.5594   -5114915.38246  -3985634.57761
  20931273.6524  -16220968.76446 -10674821.01962
  20375144.5124   -2934863.11846  -2286908.71762
  19771542.2774  -23246179.31247 -18113856.51663
 91  5  7 21  7 29.9960000  0  4G11G 6G19G 2
  22618305.6994   -5089068.80346  -3965494.39561
  20922676.7934  -16266145.02746 -10710023.23962
  20377162.0044   -2924249.37846  -2278638.30062
  19766577.0434  -23272272.99047 -18134189.21563
 91  5  7 21  7 44.9960000  0  4G11G 6G19G 2
  22623242.606    -5063129.025 6  -3945281.59621
  20914081.0514  -16311310.98546 -10745217.42161
  20379196.2464   -2913569.95446  -2270316.70762
  19761622.7704  -23298310.08047 -18154477.82363
 91  5  7 21  7 59.9960000  0  4G11G 6G19G 2
  22628199.309    -5037090.549 6  -3924991.88721
  20905490.0124  -16356460.70646 -10780398.95962
  20381241.4494   -2902819.06746  -2261939.42462
  19756679.8164  -23324284.71747 -18174717.76863
 91  5  7 21  8 14.9960000  0  4G11G 6G19G 2
  22633172.160    -5010949.407 6  -3904622.18121
  20896902.6294  -16401589.79546 -10815564.42162
  20383302.6374   -2891992.36946  -2253503.06962
  19751749.0434  -23350192.61647 -18194905.70763
 91  5  7 21  8 29.9950000  0  4G11G 6G19G 2
  22638164.085    -4984716.928 6  -3884181.30621
  20888316.3514  -16446704.17646 -10850718.41562
  20385373.8514   -2881099.85846  -2245015.43662
  19746830.8194  -23376041.34747 -18215047.54263
 91  5  7 21  8 44.9950000  0  4G11G 6G19G 2
  22643173.437    -4958398.065 6  -3863673.11221
  20879730.4604  -16491817.83846 -10885871.85462
  20387460.1164   -2870148.00946  -2236481.56262
  19741920.3984  -23401842.36948 -18235152.20063
 91  5  7 21  8 59.9950000  0  4G11G 6G19G 2
  22648197.4054   -4931995.94046  -3843100.04761
  20871148.1164  -16536928.69546 -10921023.10962
  20389555.7104   -2859138.64346  -2227902.86962
  19737020.6794  -23427595.27147 -18255219.36563
 91  5  7 21  9 14.9950000  0  4G11G 6G19G 2
  22653235.882    -4905513.212 6  -3822464.17121
  20862563.7414  -16582039.02046 -10956173.94862
  20391661.4914   -2848073.90746  -2219281.03762
  19732127.9834  -23453302.49148 -18275250.93563
 91  5  7 21  9 29.9950000  0  4G11G 6G19G 2
  22658295.640    -4878927.897 6  -3801748.35521
  20853983.7414  -16627126.30146 -10991306.82962
  20393778.5774   -2836931.65346  -2210598.79562
  19727249.0384  -23478941.74148 -18295229.53863
 91  5  7 21  9 44.9950000  0  4G11G 6G19G 2
  22663372.9914   -4852244.32946  -3780955.96661
  20845407.6484  -16672194.27846 -11026424.67462
  20395915.2334   -2825715.65446  -2201859.08862
  19722382.2574  -23504516.97448 -18315158.25763
 91  5  7 21  9 59.9950000  0  4G11G 6G19G 2
  22668469.4764   -4825460.61046  -3760085.54961
  20836835.1244  -16717240.73546 -11061525.74862
  20398062.5774   -2814423.85846  -2193060.32262
  19717527.6244  -23530026.03048 -18335035.41163
 91  5  7 21 10 14.9950000  0  4G11G 6G19G 2
  22673584.4524   -4798586.90346  -3739145.00961
  20828265.8354  -16762275.30046 -11096617.55762
  20400225.2574   -2803066.09746  -2184210.14662
  19712684.0544  -23555478.70048 -18354868.62763
 91  5  7 21 10 29.9950000  0  4G11G 6G19G 2
  22678716.335    -4771615.295 6  -3718128.18521
  20819700.3664  -16807289.43146 -11131693.44762
  20402399.3274   -2791633.92346  -2175301.99962
  19707853.5464  -23580866.87748 -18374651.58863
 91  5  7 21 10 44.9950000  0  4G11G 6G19G 2
  22683868.1874   -4744539.17346  -3697029.90261
  20811139.3584  -16852276.20646 -11166748.00962
  20404591.1084   -2780120.51646  -2166330.54762
  19703035.9994  -23606183.72248 -18394378.96763
 91  5  7 21 10 59.9950000  0  4G11G 6G19G 2
  22689036.6404   -4717382.77246  -3675869.08361
  20802579.0234  -16897259.34446 -11201799.74162
  20406790.9054   -2768549.65446  -2157314.32562
  19698226.4764  -23631453.13048 -18414069.38663
 91  5  7 21 11 14.9950000  0  4G11G 6G19G 2
  22694219.6554   -4690143.37446  -3654643.58061
  20794019.8044  -16942235.50146 -11236846.04162
  20409006.3744   -2756918.27646  -2148250.95062
  19693427.5774  -23656672.23648 -18433720.60463
 91  5  7 21 11 29.9950000  0  4G11G 6G19G 2
  22699420.4054   -4662811.32146  -3633345.88661
  20785465.8354  -16987194.49546 -11271878.96062
  20411235.3514   -2745216.33046  -2139132.58262
  19688640.1084  -23681830.94448 -18453324.76563
 91  5  7 21 11 44.9950000  0  4G11G 6G19G 2
  22704638.2884   -4635389.87746  -3611978.53661
  20776913.1554  -17032139.31446 -11306900.82662
  20413473.8124   -2733446.86046  -2129961.59562
  19683863.6324  -23706932.23148 -18472884.17863
 91  5  7 21 11 59.9950000  0  4G11G 6G19G 2
  22709875.983    -4607871.431 6  -3590535.60821
  20768362.9764  -17077061.77546 -11341905.28362
  20415726.2964   -2721601.83846  -2120731.74362
  19679099.3984  -23731968.27148 -18492392.74963
 91  5  7 21 12 14.9950000  0  4G11G 6G19G 2
  22715128.8744   -4580267.50545  -3569026.06161
  20759817.6244  -17121972.79846 -11376900.82162
  20417994.1484   -2709692.30446  -2111451.62262
  19674345.8664  -23756950.07748 -18511859.06663
 91  5  7 21 12 29.9950000  0  4G11G 6G19G 2
  22720397.335    -4552576.904 5  -3547448.97721
  20751273.8354  -17166870.73446 -11411886.16462
  20420270.4524   -2697716.79646  -2102120.09262
  19669602.8274  -23781876.35948 -18531282.11163
 91  5  7 21 12 44.9950000  0  4G11G 6G19G 2
  22725684.288    -4524797.732 5  -3525802.89121
  20742730.9294  -17211753.14746 -11446859.40562
  20422565.2804   -2685673.02446  -2092735.36762
  19664870.226   -23806745.022 8 -18550660.26323
 91  5  7 21 12 59.9950000  0  4G11G 6G19G 2
  22730987.3514   -4496929.43345  -3504087.33861
  20734195.2884  -17256618.97646 -11481819.72362
  20424867.9214   -2673560.05346  -2083296.71362
  19660148.7884  -23831555.15047 -18569992.80163
 91  5  7 21 13 14.9950000  0  4G11G 6G19G 2
  22736308.3824   -4468968.70045  -3482299.77061
  20725660.5234  -17301464.50646 -11516764.23962
  20427189.4764   -2661374.25546  -2073801.32162
  19655438.9764  -23856303.07847 -18589276.87263
 91  5  7 21 13 29.9950000  0  4G11G 6G19G 2
  22741644.538    -4440929.610 5  -3460451.13921
  20717129.9374  -17346303.28946 -11551703.47762
  20429516.0234   -2649129.25646  -2064259.79862
  19650739.8124  -23881002.68048 -18608523.28563
 91  5  7 21 13 44.9950000  0  4G11G 6G19G 2
  22746997.3124   -4412790.93545  -3438524.90561
  20708602.1874  -17391113.56146 -11586620.51262
  20431864.0234   -2636803.55646  -2054655.38462
  19646051.6404  -23905632.37148 -18627715.22463
 91  5  7 21 13 59.9950000  0  4G11G 6G19G 2
  22752369.679    -4384565.600 5  -3416531.15321
  20700078.8514  -17435907.69046 -11621524.96362
  20434220.0304   -2624409.59846  -2044997.78562
  19641375.9604  -23930204.66348 -18646862.43563
 91  5  7 21 14 14.9950000  0  4G11G 6G19G 2
  22757755.3824   -4356258.32645  -3394473.56261
  20691556.2574  -17480689.91346 -11656420.13962
  20436594.3354   -2611951.70146  -2035290.36362
  19636710.5234  -23954724.16748 -18665968.51063
 91  5  7 21 14 29.9950000  0  4G11G 6G19G 2
  22763160.7264   -4327857.48045  -3372343.03561
  20683037.780   -17525448.026 6 -11691296.51822
  20438977.5694   -2599417.98346  -2025523.86162
  19632057.4054  -23979178.85948 -18685024.08763
 91  5  7 21 14 44.9950000  0  4G11G 6G19G 2
  22768580.023    -4299373.054 5  -3350147.39321
  20674524.0464  -17570191.66046 -11726161.62462
  20441376.7574   -2586818.13346  -2015705.83062
  19627414.1084  -24003578.51648 -18704036.77163
 91  5  7 21 14 59.9950000  0  4G11G 6G19G 2
  22774018.007    -4270810.301 6  -3327890.71121
  20666011.046   -17614925.446 6 -11761019.05122
  20443784.1484   -2574157.19746  -2005840.19762
  19622779.4054  -24027928.06448 -18723010.41263
 91  5  7 21 15 14.9950000  0  4G11G 6G19G 2
  22779466.3984   -4242172.00445  -3305575.17061
  20657501.3904  -17659651.77846 -11795870.66962
  20446206.7024   -2561437.34546  -1995928.65862
  19618155.3354  -24052230.07348 -18741947.01263
 91  5  7 21 15 29.9950000  0  4G11G 6G19G 2
  22784932.554    -4213443.781 6  -3283189.55621
  20648992.093   -17704355.628 6 -11830704.77022
  20448639.0544   -2548643.83846  -1985959.72562
  19613543.1794  -24076469.77948 -18760835.06663
 91  5  7 21 15 44.9950000  0  4G11G 6G19G 2
  22790416.866    -4184622.343 6  -3260731.31321
  20640491.3434  -17749033.29546 -11865518.47462
  20451089.7884   -2535773.14946  -1975930.64862
  19608943.0234  -24100643.75048 -18779671.90163
 91  5  7 21 15 59.9950000  0  4G11G 6G19G 2
  22795916.2734   -4155725.88846  -3238214.60361
  20631992.3194  -17793702.39946 -11900325.49962
  20453547.4134   -2522843.04946  -1965855.27862
  19604351.5854  -24124769.73548 -18798471.33763
 91  5  7 21 16 14.9950000  0  4G11G 6G19G 2
  22801430.9834   -4126741.41846  -3215629.31361
  20623494.3744  -17838349.37146 -11935115.28662
  20456025.3584   -2509840.16646  -1955723.19762
  19599772.3584  -24148834.41548 -18817223.00363
 91  5  7 21 16 29.9950000  0  4G11G 6G19G 2
  22806967.0544   -4097658.22746  -3192967.09861
  20615006.0154  -17882962.99746 -11969879.07962
  20458516.1164   -2496753.33546  -1945525.69862
  19595207.0154  -24172826.82148 -18835918.35463
 91  5  7 21 16 44.9950000  0  4G11G 6G19G 2
  22812515.069    -4068497.318 6  -3170244.33421
  20606517.8194  -17927563.92046 -12004632.98262
  20461018.0304   -2483603.37346  -1935279.00862
  19590651.3044  -24196767.62348 -18854573.49863
 91  5  7 21 16 59.9950000  0  4G11G 6G19G 2
  22818076.2804   -4039270.76546  -3147470.41061
  20598030.6794  -17972163.45646 -12039385.81062
  20463530.3744   -2470401.84746  -1924992.13962
  19586101.6874  -24220668.61048 -18873197.61363
 91  5  7 21 17 14.9950000  0  4G11G 6G19G 2
  22823655.780    -4009954.512 6  -3124626.60121
  20589548.9214  -18016737.20646 -12074118.53362
  20466057.0234   -2457124.38546  -1914646.09762
  19581566.7264  -24244505.58048 -18891771.84564
 91  5  7 21 17 29.9950000  0  4G11G 6G19G 2
  22829250.241    -3980550.449 6  -3101714.36321
  20581070.4444  -18061286.51346 -12108832.21162
  20468598.6794   -2443772.72646  -1904242.24562
  19577042.9994  -24268280.04948 -18910297.37963
 91  5  7 21 17 44.9950000  0  4G11G 6G19G 2
  22834861.046    -3951066.115 6  -3078739.55921
  20572597.5694  -18105818.32746 -12143532.26762
  20471150.3744   -2430353.86046  -1893786.01662
  19572528.9054  -24291999.29448 -18928779.87963
 91  5  7 21 17 59.9950000  0  4G11G 6G19G 2
  22840487.5854   -3921498.43746  -3055699.81961
  20564125.2574  -18150329.13846 -12178215.95662
  20473717.3584   -2416864.25446  -1883274.66962
  19568026.4834  -24315659.87748 -18947216.67063
 91  5  7 21 18 14.9950000  0  4G11G 6G19G 2
  22846135.6484   -3891831.69746  -3032582.88961
  20555663.5624  -18194802.50846 -12212870.46462
  20476302.2264   -2403287.82946  -1872695.67262
  19563537.7964  -24339245.69248 -18965595.19763
 91  5  7 21 18 29.9950000  0  4G11G 6G19G 2
  22851795.116    -3862080.867 6  -3009400.44121
  20547205.6404  -18239253.02346 -12247507.15762
  20478896.0774   -2389639.20046  -1862060.40462
  19559061.6554  -24362771.65948 -18983927.08963
 91  5  7 21 18 44.9950000  0  4G11G 6G19G 2
  22857471.4054   -3832250.66146  -2986156.14661
  20538749.421   -18283684.871 6 -12282129.32122
  20481508.8434   -2375922.78446  -1851372.32662
  19554595.6554  -24386241.97848 -19002215.61963
 91  5  7 21 18 59.9950000  0  4G11G 6G19G 2
  22863165.5934   -3802320.12046  -2962833.67061
  20530301.8124  -18328076.68946 -12316720.28362
  20484139.2494   -2362117.58746  -1840615.06362
  19550142.9604  -24409635.42248 -19020444.25063
 91  5  7 21 19 14.9950000  0  4G11G 6G19G 2
  22868880.7184   -3772301.90045  -2939442.85561
  20521859.7884  -18372440.50646 -12351289.42662
  20486777.9444   -2348235.77946  -1829798.11062
  19545703.0304  -24432964.43048 -19038622.66363
 91  5  7 21 19 29.9950000  0  4G11G 6G19G 2
  22874607.6714   -3742203.23045  -2915989.35861
  20513421.4994  -18416783.06846 -12385842.00762
  20489429.7264   -2334284.07746  -1818926.68962
  19541275.7494  -24456235.97048 -19056756.30563
 91  5  7 21 19 44.9950000  0  4G11G 6G19G 2
  22880351.7334   -3712018.84345  -2892469.06261
  20504986.6164  -18461098.55746 -12420373.49362
  20492102.2964   -2320256.89546  -1807996.45662
  19536859.4294  -24479444.40148 -19074840.76263
 91  5  7 21 19 59.9950000  0  4G11G 6G19G 2
  22886111.8354   -3681749.21645  -2868882.33661
  20496562.1714  -18505386.85846 -12454883.79662
  20494784.1484   -2306154.30546  -1797007.45562
  19532454.6324  -24502589.91148 -19092876.20063
 91  5  7 21 20 14.9950000  0  5G15G11G 6G19G 2
  22868233.9054         -0.41555
  22891886.4444   -3651399.10045  -2845232.91461
  20488137.1164  -18549652.17246 -12489376.17862
  20497482.1324   -2291980.70646  -1785963.13362
  19528061.3744  -24525677.03048 -19110866.13063
 91  5  7 21 20 29.9950000  0  5G15G11G 6G19G 2
  22859924.413      -43667.695 5
  22897676.5384   -3620969.08645  -2821521.22961
  20479717.0854  -18593894.55246 -12523850.70262
  20500193.4294   -2277736.39546  -1774863.70462
  19523678.9294  -24548705.83748 -19128810.62363
 91  5  7 21 20 44.9950000  0  5G15G11G 6G19G 2
  22851628.913      -87255.387 5
  22903484.444    -3590449.143 5  -2797739.47721
  20471305.4994  -18638103.59146 -12558299.24662
  20502917.5384   -2263411.01546  -1763701.11262
  19519309.6634  -24571666.18348 -19146701.77463
 91  5  7 21 20 59.9950000  0  5G15G11G 6G19G 2
  22843350.405     -130764.070 5        -0.22731
  22909310.358    -3559840.648 5  -2773888.71421
  20462898.4834  -18682279.93246 -12592722.30762
  20505658.8194   -2249005.56846  -1752476.12261
  19514952.8664  -24594559.18348 -19164540.44463
 91  5  7 21 21 14.9950000  0  5G15G11G 6G19G 2
  22835083.983     -174197.205 5    -33844.12921
  22915149.4764   -3529147.76245  -2749972.18361
  20454498.8434  -18726427.27246 -12627122.76962
  20508416.648    -2234523.698 6  -1741191.59522
  19510607.9444  -24617388.56948 -19182329.54663
 91  5  7 21 21 29.9950000  0  5G15G11G 6G19G 2
  22826832.640     -217564.053 5    -67636.36121
  22921005.9294   -3498380.74845  -2725997.88761
  20446101.1874  -18770555.24947 -12661508.14962
  20511185.6874   -2219975.32546  -1729855.23362
  19506275.3044  -24640164.20548 -19200076.76563
 91  5  7 21 21 44.9950000  0  5G15G11G 6G19G 2
  22818591.679     -260857.738 5   -101371.56121
  22926873.8984   -3467533.16445  -2701960.80261
  20437707.8824  -18814656.96246 -12695873.06962
  20513966.6484   -2205353.70146  -1718461.79661
  19501952.577   -24662879.532 8 -19217776.99123
 91  5  7 21 21 59.9950000  0  5G15G11G 6G19G 2
  22810364.7264    -304084.15045   -135054.34661
  22932758.4054   -3436611.65345  -2677866.11861
  20429319.7804  -18858738.42647 -12730222.19662
  20516761.023    -2190664.990 6  -1707016.08822
  19497640.507   -24685540.974 8 -19235435.22623
 91  5  7 21 22 14.9950000  0  5G15G11G 6G19G 2
  22802152.382     -347252.507 5   -168691.89121
  22938653.202    -3405626.168 5  -2653721.58221
  20420933.835   -18902809.225 6 -12764563.02722
  20519569.3354   -2175919.02546  -1695525.76462
  19493335.5624  -24708158.16848 -19253058.99063
 91  5  7 21 22 29.9950000  0  5G15G11G 6G19G 2
  22793954.0624    -390338.26745   -202265.11561
  22944567.679    -3374553.010 5  -2629508.75821
  20412554.116   -18946845.094 7 -12798876.63922
  20522389.077    -2161091.651 6  -1683972.00922
  19489044.7574  -24730707.03248 -19270629.50363
 91  5  7 21 22 44.9950000  0  5G15G11G 6G19G 2
  22785771.3434    -433336.97245   -235770.47161
  22950499.983    -3343388.057 5  -2605224.39621
  20404180.663   -18990841.280 6 -12833159.32122
  20525227.7804   -2146178.30946  -1672351.26162
  19484768.569   -24753183.143 8 -19288143.33124
 91  5  7 21 22 59.9950000  0  4G15G11G 6G19
  22777604.155     -476257.624 5   -269214.99621
  22956446.9054   -3312141.27045  -2580876.25161
  20395813.851   -19034807.229 7 -12867418.45222
  20528078.6244   -2131188.69746  -1660671.08261
 91  5  7 21 23 14.9950000  0  5G15G11G 6G19G 2
  22769448.5694    -519111.22745   -302607.26861
  22962404.898    -3280824.588 5  -2556473.64821
  20387451.288   -19078754.372 7 -12901662.92922
  20530945.515    -2116134.471 6  -1648940.55822
  19476248.515          -0.78318
 91  5  7 21 23 29.9950000  0  5G15G11G 6G19G 2
  22761304.3904    -561895.33845   -335945.37861
  22968377.7884   -3249436.19745  -2532015.17761
  20379092.726   -19122680.274 7 -12935890.85522
  20533822.257    -2101013.348 6  -1637157.90922
  19472003.124      -22308.831 8
 91  5  7 21 23 44.9950000  0  5G15G11G 6G19G 2
  22753180.179     -604595.741 5   -369218.26521
  22974366.562    -3217962.701 5  -2507490.36521
  20370740.882   -19166571.035 7 -12970091.39122
  20536716.2184   -2085811.59146  -1625312.42062
  19467770.257      -44549.680 8
 91  5  7 21 23 59.9950000  0  5G15G11G 6G19G 2
  22745065.843     -647228.275 5   -402438.28921
  22980369.1554   -3186420.37445  -2482911.93361
  20362393.546   -19210442.558 7 -13004276.94622
  20539622.023    -2070545.213 6  -1613416.58722
  19463547.8744     -66739.33448        -0.08674
 91  5  7 21 24 14.9950000  0  5G15G11G 6G19G 2
  22736968.640     -689796.098 5   -435607.88621
  22986384.718    -3154813.371 5  -2458283.10821
  20354047.608   -19254298.220 7 -13038450.13822
  20542537.413    -2055217.952 6  -1601473.31122
  19459334.8124     -88881.52448    -17253.71063
 91  5  7 21 24 29.9950000  0  5G15G11G 6G19G 2
  22728884.3984    -732275.74345   -468708.76461
  22992417.694    -3123118.670 5  -2433585.95421
  20345709.398   -19298114.602 7 -13072592.73422
  20545468.913    -2039806.543 6  -1589464.46321
  19455133.9764    -110953.04848    -34452.27263
 91  5  7 21 24 44.9950000  0  5G15G11G 6G19G 2
  22720814.405     -774672.339 5   -501744.91821
  22998462.3274   -3091342.28345  -2408825.13961
  20337378.046   -19341897.152 7 -13106708.94722
  20548418.3354   -2024316.40246  -1577394.26662
  19450946.1634    -132959.54248    -51600.15964
 91  5  7 21 24 59.9950000  0  5G15G11G 6G19G 2
  22712764.4604    -816993.54945   -534722.35361
  23004522.202    -3059492.499 5  -2384007.13021
  20329050.569   -19385653.497 7 -13140804.75022
  20551378.077    -2008755.718 6  -1565269.10221
  19446769.8124    -154908.95948    -68703.56964
 91  5  7 21 25 14.9950000  0  5G15G11G 6G19G 2
  22704720.4214    -859240.06244   -567641.54261
  23010597.710    -3027570.662 5  -2359132.98921
  20320728.499   -19429384.557 7 -13174880.85222
  20554353.5544   -1993125.34246  -1553089.63161
  19442603.6634    -176802.32248    -85763.30463
 91  5  7 21 25 29.9950000  0  5G15G11G 6G19G 2
  22696695.2494    -901409.05744   -600500.33361
  23016685.1484   -2995574.72945  -2334201.08861
  20312411.890   -19473087.597 7 -13208935.11422
  20557339.741    -1977422.857 6  -1540853.97321
  19438448.4444    -198637.40548   -102777.62363
 91  5  7 21 25 44.9950000  0  5G15G11G 6G19G 2
  22688687.929     -943502.021 5   -633299.87421
  23022787.054    -2963506.997 5  -2309213.26321
  20304100.148   -19516764.417 7 -13242968.95422
  20560343.8354   -1961650.25546  -1528563.67761
  19434304.2334    -220416.13548   -119748.03363
 91  5  7 21 25 59.9950000  0  5G15G11G 6G19G 2
  22680697.530     -985501.482 5   -666026.59821
  23028906.6554   -2931350.64745  -2284156.36861
  20295797.710   -19560397.699 7 -13276968.86322
  20563360.015    -1945790.487 6  -1516205.46721
  19430172.8274    -242121.42348   -136661.21463
 91  5  7 21 26 14.9950000  0  5G15G11G 6G19G 2
  22672723.015    -1027411.484 5   -698683.57721
  23035044.413    -2899110.413 5  -2259034.12221
  20287502.194   -19603991.488 7 -13310937.99822
  20566393.8514   -1929847.83346  -1503782.65861
  19426055.6014    -263757.67048   -153520.60163
 91  5  7 21 26 29.9950000  0  5G15G11G 6G19G 2
  22664759.4134   -1069246.42845   -731282.11461
  23041188.6484   -2866801.34645  -2233858.22961
  20279211.819   -19647560.405 7 -13344887.75522
  20569441.343    -1913837.072 6  -1491306.78621
  19421949.1714    -285339.75348   -170337.78063
 91  5  7 21 26 44.9950000  0  4G15G 6G19G 2
  22656810.9684   -1110997.68044   -763815.37461
  20270927.038   -19691096.302 7 -13378811.78022
  20572502.2804   -1897750.29246  -1478771.67161
  19417853.585     -306859.621 8   -187106.48324
 91  5  7 21 26 59.9950000  0  4G15G 6G19G 2
  22648887.1714   -1152649.05845   -796270.80561
  20262652.007   -19734583.040 7 -13412697.50522
  20575580.530    -1881571.383 6  -1466164.78221
  19413773.4764    -328301.36148   -203814.30263
 91  5  7 21 27 14.9950000  0  4G15G 6G19G 2
  22640977.4054   -1194211.74845   -828657.18561
  20254382.788   -19778031.887 7 -13446553.70022
  20578676.2334   -1865311.89846  -1453495.09561
  19409706.437     -349676.498 8   -220470.22823
 91  5  7 21 27 29.9950000  0  4G15G 6G19G 2
  22633086.437    -1235700.175 5   -860985.69621
  20246119.648   -19821457.586 7 -13480391.85022
  20581782.601    -1848986.775 6  -1440774.26821
  19405648.9294    -371000.08848   -237085.98363
 91  5  7 21 27 44.9950000  0  4G15G 6G19G 2
  22625202.3434   -1277117.76445   -893259.02161
  20237858.952   -19864863.487 7 -13514214.58422
  20584902.663    -1832599.544 6  -1428005.03521
  19401599.7964    -392275.78448   -253664.41963
 91  5  7 21 27 59.9950000  0  4G15G 6G19G 2
  22617334.523    -1318449.409 5   -925465.36921
  20229605.788   -19908234.849 7 -13548010.40322
  20588033.944    -1816135.885 6  -1415176.26221
  19397563.155     -413489.200 8   -270194.32923
 91  5  7 21 28 14.9950000  0  4G15G 6G19G 2
  22609489.1244   -1359695.23145   -957604.81461
  20221359.155   -19951571.905 7 -13581779.48122
  20591181.702    -1799596.271 6  -1402288.29621
  19393537.085     -434640.667 8   -286675.96423
 91  5  7 21 28 29.9950000  0  4G15G 6G19G 2
  22601655.898    -1400843.567 5   -989668.30021
  20213122.319   -19994863.168 7 -13615512.87422
  20594343.452    -1782969.173 6  -1389332.15921
  19389526.8434    -455718.88948   -303100.52363
 91  5  7 21 28 44.9950000  0  4G15G 6G19G 2
  22593844.7414   -1441908.84845  -1021667.08361
  20204889.429   -20038123.049 7 -13649221.81922
  20597522.523    -1766269.271 6  -1376319.29521
  19385527.4764    -476738.46648   -319479.38863
 91  5  7 21 28 59.9950000  0  4G15G 6G19G 2
  22586043.835    -1482900.031 5  -1053608.14121
  20196660.3124  -20081360.64647 -13682913.39862
  20600715.5854   -1749505.89246  -1363256.96461
  19381536.4444    -497708.84848   -335819.91763
 91  5  7 21 29 14.9950000  0  4G15G 6G19G 2
  22578256.116    -1523815.057 5  -1085489.84521
  20188438.8514  -20124574.06847 -13716586.13462
  20603915.218    -1732677.484 6  -1350143.96221
  19377555.819     -518628.565 8   -352120.96923
 91  5  7 21 29 29.9950000  0  4G15G 6G19G 2
  22570486.069    -1564653.192 5  -1117311.65121
  20180220.187   -20167762.949 7 -13750239.75922
  20607131.9764   -1715783.57746  -1336979.91362
  19373584.5384    -539497.43248   -368382.39563
 91  5  7 21 29 44.9950000  0  4G15G 6G19G 2
  22562732.3904   -1605398.78945  -1149061.38261
  20172008.663   -20210911.842 7 -13783862.22322
  20610360.530    -1698809.055 6  -1323753.06622
  19369625.8744    -560300.24748   -384592.35363
 91  5  7 21 29 59.9950000  0  4G15G 6G19G 2
  22554992.499    -1646070.232 5  -1180753.27921
  20163802.3194  -20254038.93447 -13817467.69062
  20613604.5624   -1681772.46546  -1310477.84062
  19365676.671     -581055.480 8   -400765.23223
 91  5  7 21 30 14.9950000  0  4G15G 6G19G 2
  22547269.218    -1686652.113 5  -1212375.42521
  20155602.038   -20297129.235 7 -13851044.49522
  20616859.765    -1664659.102 6  -1297142.79522
  19361738.8044    -601748.30248   -416889.48463
 91  5  7 21 30 29.9950000  0  4G15G 6G19G 2
  22539564.843    -1727136.215 5  -1243921.34321
  20147410.1484  -20340174.59047 -13884586.27162
  20620130.804    -1647460.982 6  -1283741.71322
  19357813.7804    -622370.82048   -432958.95363
 91  5  7 21 30 44.9950000  0  4G15G 6G19G 2
  22531879.374    -1767527.630 5  -1275395.03721
  20139227.773   -20383180.232 7 -13918097.10622
  20623420.718    -1630183.572 6  -1270278.83722
  19353902.140     -642928.689 8   -448978.04323
 91  5  7 21 30 59.9950000  0  4G15G 6G19G 2
  22524206.7804   -1807844.12745  -1306810.38961
  20131046.507   -20426164.166 7 -13951591.02822
  20626717.796    -1612845.057 6  -1256768.35322
  19349999.163     -663440.096 8   -464960.93223
 91  5  7 21 31 14.9950000  0  4G15G 6G19G 2
  22516554.468    -1848070.156 6  -1338155.24821
  20122874.218   -20469110.774 7 -13985055.86322
  20630034.062    -1595430.113 6  -1243198.31522
  19346107.546     -683889.771 8   -480895.71923
 91  5  7 21 31 29.9950000  0  4G15G 6G19G 2
  22508914.601    -1888201.781 5  -1369426.54221
  20114710.687   -20512016.473 7 -14018488.82422
  20633364.155    -1577935.261 6  -1229566.00122
  19342228.413     -704274.404 8   -496779.82023
 91  5  7 21 31 44.9950000  0  4G15G 6G19G 2
  22501296.093    -1928235.582 5  -1400621.59821
  20106554.7334  -20554878.10447 -14051887.44562
  20636709.405    -1560357.450 6  -1215869.06622
  19338362.523     -724590.846 8   -512610.78723
 91  5  7 21 31 59.9950000  0  4G15G 6G19G 2
  22493699.0304   -1968167.93045  -1431737.58061
  20098407.093   -20597691.818 7 -14085248.72822
  20640065.788    -1542693.155 6  -1202104.71622
  19334509.9604    -744835.64148   -528385.92863
 91  5  7 21 32 14.9950000  0  4G15G 6G19G 2
  22486117.398    -2008002.074 5  -1462777.08321
  20090267.1874  -20640461.02047 -14118575.32662
  20643448.765    -1524946.070 6  -1188275.87722
  19330669.835     -765012.437 8   -544108.07924
 91  5  7 21 32 29.9950000  0  4G15G 6G19G 2
  22478555.421    -2047746.709 5  -1493746.80721
  20082135.976   -20683194.786 7 -14151874.30722
  20646833.288    -1507125.481 6  -1174389.74622
  19326842.358     -785130.652 8   -559784.58824
 91  5  7 21 32 44.9950000  0  4G15G 6G19G 2
  22471011.804    -2087397.196 5  -1524643.20121
  20074010.827   -20725888.657 7 -14185142.21222
  20650244.327    -1489227.296 6  -1160443.15822
  19323025.1874    -805186.00748   -575412.10863
 91  5  7 21 32 59.9950000  0  4G15G 6G19G 2
  22463478.562    -2126966.687 5  -1555476.47521
  20065892.444   -20768555.724 7 -14218389.22222
  20653659.952    -1471264.743 6  -1146446.41122
  19319218.194     -825191.851 8   -591001.05424
 91  5  7 21 33 14.9950000  0  4G15G 6G19G 2
  22455965.882    -2166451.909 5  -1586244.04621
  20057776.944   -20811192.784 7 -14251612.85122
  20657092.671    -1453234.872 6  -1132397.21222
  19315421.7334    -845145.50748   -606549.33164
 91  5  7 21 33 29.9950000  0  4G15G 6G19G 2
  22448470.1634   -2205838.97445  -1616935.18661
  20049673.960   -20853786.260 7 -14284802.52022
  20660535.827    -1435124.326 6  -1118285.14422
  19311636.671     -865033.271 8   -622046.26424
 91  5  7 21 33 44.9950000  0  4G15G 6G19G 2
  22440992.8514   -2245127.48745  -1647549.48561
  20041576.077   -20896335.695 7 -14317957.87522
  20664001.343    -1416932.801 6  -1104109.99222
  19307863.976     -884855.191 8   -637491.89124
 91  5  7 21 33 59.9950000  0  4G15G 6G19G 2
  22433535.726    -2284325.294 5  -1678093.13021
  20033486.8984  -20938849.33747 -14351085.33062
  20667476.4524   -1398668.96846  -1089878.46262
  19304103.944     -904619.541 8   -652892.66124
 91  5  7 21 34 14.9950000  0  4G15G 6G19G 2
  22426089.483    -2323435.062 5  -1708568.19921
  20025403.030   -20981329.754 7 -14384186.90222
  20670965.444    -1380335.597 6  -1075592.77722
  19300352.804     -924329.379 8   -668250.95224
 91  5  7 21 34 29.9950000  0  4G15G 6G19G 2
  22418673.0624   -2362434.44445  -1738957.22561
  20017329.335   -21023754.988 7 -14417245.47122
  20674469.015    -1361910.945 6  -1061235.95022
  19296617.015     -943963.115 8   -683549.94024
 91  5  7 21 34 44.9950000  0  4G15G 6G19G 2
  22411263.257    -2401352.115 5  -1769282.60321
  20009262.569   -21066153.769 7 -14450283.42822
  20677989.757    -1343423.804 6  -1046830.43522
  19292889.507     -963549.683 8   -698812.17424
 91  5  7 21 34 59.9950000  0  4G15G 6G19G 2
  22403874.0694   -2440178.25145  -1799536.59361
  20001200.0934  -21108516.30847 -14483293.14762
  20681520.335    -1324864.762 6  -1032368.89322
  19289172.765     -983079.440 8   -714030.14424
 91  5  7 21 35 14.9950000  0  4G15G 6G19G 2
  22396506.398    -2478909.935 5  -1829717.04921
  19993146.101   -21150840.013 7 -14516272.60322
  20685068.155    -1306231.561 6  -1017849.56322
  19285467.804    -1002549.927 8   -729201.92924
 91  5  7 21 35 29.9950000  0  4G15G 6G19G 2
  22389148.4764   -2517548.82845  -1859825.18461
  19985097.749   -21193126.263 7 -14549222.88122
  20688624.327    -1287525.823 6  -1003273.71122
  19281773.5694   -1021962.93848   -744328.92364
 91  5  7 21 35 44.9950000  0  4G15G 6G19G 2
  22381818.8904   -2556075.16545  -1889845.57361
  19977062.8274  -21235355.49147 -14582128.71562
  20692204.062    -1268728.184 6   -988626.25022
  19278094.757    -1041299.203 8   -759396.11924
 91  5  7 21 35 59.9950000  0  4G15G 6G19G 2
  22374510.3744   -2594507.24345  -1919792.57761
  19969034.163   -21277546.445 7 -14615004.73722
  20695793.108    -1249857.691 6   -973922.01922
  19274426.124    -1060577.638 8   -774418.25424
 91  5  7 21 36 14.9950000  0  4G15G 6G19G 2
  22367209.827    -2632852.510 5  -1949671.90921
  19961011.179   -21319706.496 7 -14647856.67722
  20699399.546    -1230921.840 6   -959166.86022
  19270766.476    -1079806.075 8   -789401.42924
 91  5  7 21 36 29.9940000  0  4G15G 6G19G 2
  22359933.6354   -2671098.85445  -1979474.16661
  19952995.471   -21361823.177 7 -14680674.82222
  20703015.510    -1211912.364 6   -944354.32522
  19267119.619    -1098973.869 8   -804337.34824
 91  5  7 21 36 44.9940000  0  4G15G 6G19G 2
  22352669.822    -2709260.764 5  -2009210.62621
  19944986.697   -21403911.530 7 -14713470.89323
  20706644.697    -1192836.548 6   -929490.11621
  19263480.940    -1118093.262 8   -819235.55124
 91  5  7 21 36 59.9940000  0  4G15G 6G19G 2
  22345423.1044   -2747344.59245  -2038886.23961
  19936982.330   -21445978.200 7 -14746250.06022
  20710282.971    -1173705.204 6   -914582.61222
  19259850.104    -1137172.471 8   -834102.44224
 91  5  7 21 37 14.9940000  0  4G15G 6G19G 2
  22338199.924    -2785317.197 5  -2068475.21421
  19928987.260   -21487990.027 7 -14778986.50022
  20713943.5804   -1154485.86746   -899606.56962
  19256232.838    -1156178.979 8   -848912.68723
 91  5  7 21 37 29.9940000  0  4G15G 6G19G 2
  22330990.0104   -2823184.47045  -2097982.07961
  19921003.854   -21529953.109 7 -14811684.95423
  20717613.049    -1135184.586 6   -884566.65622
  19252629.150    -1175118.888 8   -863671.03324
 91  5  7 21 37 44.9940000  0  4G15G 6G19G 2
  22323805.9944   -2860953.59445  -2127412.52261
  19913025.736   -21571874.497 7 -14844350.91423
  20721304.900    -1115808.682 6   -869468.60622
  19249036.322    -1193999.742 8   -878383.36523
 91  5  7 21 37 59.9940000  0  5G15G13G 6G19G 2
  22316635.377    -2898637.456 5  -2156776.47721
  22447267.9004         -0.79854
  19905053.768   -21613767.201 7 -14876994.53123
  20725000.4634   -1096371.36546   -854322.69662
  19245452.315    -1212834.701 8   -893059.93523
 91  5  7 21 38 14.9940000  0  5G15G13G 6G19G 2
  22309481.900    -2936217.370 5  -2186059.40921
  22433269.2364     -73565.41144
  19897090.354   -21655612.857 7 -14909601.48623
  20728716.8614   -1076854.60646   -839114.89961
  19241879.666    -1231605.561 8   -907686.55523
 91  5  7 21 38 29.9940000  0  5G15G13G 6G19G 2
  22302352.2754   -2973693.01445  -2215261.13561
  22419276.4794    -147090.62244
  19889136.869   -21697411.266 7 -14942171.62623
  20732442.049    -1057258.626 6   -823845.34122
  19238319.346    -1250312.471 8   -922263.34223
 91  5  7 21 38 44.9940000  0  5G15G13G 6G19G 2
  22295239.432    -3011061.368 5  -2244379.25221
  22405292.8694    -220572.88644
  19881192.283   -21739159.403 7 -14974702.59723
  20736189.9084   -1037580.41846   -808511.75362
  19234773.166    -1268952.781 8   -936788.23523
 91  5  7 21 38 59.9940000  0  5G15G13G 6G19G 2
  22288145.6354   -3048336.50245  -2273424.71861
  22391316.5574    -294026.48844
  19873253.065   -21780871.395 7 -15007205.39523
  20739946.205    -1017834.635 6   -793125.47322
  19231236.338    -1287540.882 8   -951272.44823
 91  5  7 21 39 14.9940000  0  5G15G13G 6G19G 2
  22281074.768    -3085516.322 5  -2302395.92521
  22377343.033     -367449.346 4
  19865324.002   -21822545.301 7 -15039678.52123
  20743716.768     -998019.438 6   -777685.13022
  19227709.135    -1306075.048 8   -965714.63023
 91  5  7 21 39 29.9940000  0  5G15G13G 6G19G 2
  22274022.307    -3122577.790 5  -2331274.90121
  22363381.643     -440818.364 4
  19857404.846   -21864158.247 7 -15072104.14823
  20747506.7294    -978112.28446   -762173.11262
  19224196.455    -1324532.587 8   -980097.10623
 91  5  7 21 39 44.9940000  0  5G15G13G 6G19G 2
  22266984.760    -3159542.701 5  -2360078.63121
  22349426.2214    -514155.37844        -0.35771
  19849493.736   -21905732.051 7 -15104499.27223
  20751308.5334    -958135.05146   -746606.50262
  19220694.104    -1342935.734 8   -994437.19423
 91  5  7 21 39 59.9940000  0  5G15G13G 6G19G 2
  22259964.775    -3196425.079 5  -2388818.06621
  22335473.8854    -587474.36644    -57131.68861
  19841587.408   -21947280.920 7 -15136874.97023
  20755119.2834    -938102.45146   -730996.74462
  19217199.252    -1361299.087 8  -1008746.27623
 91  5  7 21 40 14.9940000  0  5G15G13G 6G19G 2
  22252971.7994   -3233196.54845  -2417471.06861
  22321530.260     -660746.874 3   -114226.82021
  19833690.783   -21988776.600 7 -15169209.22223
  20758947.5334    -917986.33746   -715321.90961
  19213719.0414   -1379594.41748  -1023002.34963
 91  5  7 21 40 29.9940000  0  5G15G13G 6G19G 2
  22245991.1354   -3269859.06845  -2446039.19161
  22307596.9634    -733974.65443   -171287.06361
  19825803.533   -22030221.068 7 -15201503.57123
  20762790.463     -897789.210 6   -699583.95022
  19210250.940    -1397824.167 8  -1037207.32423
 91  5  7 21 40 44.9940000  0  5G15G13G 6G19G 2
  22239036.0254   -3306410.62645  -2474520.82661
  22293668.221     -807155.841 4   -228311.02421
  19817927.8774  -22071612.49547 -15233756.58863
  20766650.440     -877509.441 6   -683781.60022
  19206793.5254   -1415986.60248  -1051359.84663
 91  5  7 21 40 59.9940000  0  5G15G13G 6G19G 2
  22232101.7444   -3342854.49745  -2502918.55661
  22279749.025     -880293.635 3   -285301.16421
  19810059.2914  -22112954.20747 -15265970.87263
  20770523.041     -857150.563 6   -667917.59322
  19203349.5024   -1434085.46848  -1065462.82963
 91  5  7 21 41 14.9940000  0  5G15G13G 6G19G 2
  22225184.955    -3379190.677 5  -2531232.35821
  22265840.5024    -953387.86844   -342257.34561
  19802202.6274  -22154246.31447 -15298146.49863
  20774414.385     -836712.777 6   -651992.11922
  19199917.729    -1452121.034 8  -1079516.48724
 91  5  7 21 41 29.9940000  0  5G15G13G 6G19G 2
  22218288.1974   -3415427.05645  -2559468.41661
  22251939.5494   -1026446.35044   -399185.67561
  19794352.4404  -22195496.58847 -15330289.52763
  20778317.627     -816204.223 6   -636011.48922
  19196495.697    -1470101.486 8  -1093527.20623
 91  5  7 21 41 44.9940000  0  5G15G13G 6G19G 2
  22211414.4944   -3451554.16545  -2587619.29561
  22238043.5724   -1099459.57044   -456078.75961
  19786513.768   -22236695.833 7 -15362392.79323
  20782235.807     -795615.968 6   -619968.76021
  19193085.705    -1488017.759 8  -1107487.91223
 91  5  7 21 41 59.9940000  0  5G15G13G 6G19G 2
  22204559.7444   -3487586.25245  -2615696.16061
  22224157.5964   -1172442.11745   -512947.90161
  19778680.6194  -22277858.52147 -15394467.58163
  20786166.0414    -774962.85646   -603875.50062
  19189685.3074   -1505884.60648  -1121410.10564
 91  5  7 21 42 14.9940000  0  5G15G13G 6G19G 2
  22197725.260    -3523506.938 5  -2643686.22021
  22210278.768    -1245377.000 5   -569779.93121
  19770857.275   -22318968.096 7 -15426500.97223
  20790107.4634    -754228.60946   -587719.00362
  19186298.588    -1523685.948 8  -1135281.25724
 91  5  7 21 42 29.9940000  0  5G15G13G 6G19G 2
  22190903.104    -3559338.574 5  -2671606.87021
  22196403.096    -1318286.148 5   -626591.90921
  19763041.5104  -22360046.84147 -15458510.34763
  20794068.5964    -733435.83046   -571516.90162
  19182919.2834   -1541444.32248  -1149118.92463
 91  5  7 21 42 44.9940000  0  5G15G13G 6G19G 2
  22184106.721    -3595067.496 5  -2699447.47521
  22182535.6274   -1391156.20545   -683373.39661
  19755230.5804  -22401081.26047 -15490485.18163
  20798036.986     -712571.221 6   -555258.83621
  19179550.650    -1559146.578 8  -1162912.86323
 91  5  7 21 42 59.9940000  0  5G15G13G 6G19G 2
  22177326.619    -3630694.500 5  -2727208.67821
  22168676.557    -1463988.138 5   -740125.21821
  19747431.3694  -22442072.39247 -15522426.28663
  20802020.6664    -691636.09246   -538945.81961
  19176193.0884   -1576793.93748  -1176664.02763
 91  5  7 21 43 14.9940000  0  5G15G13G 6G19G 2
  22170570.033    -3666205.783 5  -2754879.71421
  22154827.2754   -1536768.03345   -796836.45661
  19739641.9474  -22483006.51747 -15554322.96663
  20806022.5334    -670617.01546   -522567.37562
  19172848.119    -1594372.907 8  -1190361.89824
 91  5  7 21 43 29.9940000  0  5G15G13G 6G19G 2
  22163830.799    -3701605.364 5  -2782463.69721
  22140983.658    -1609499.817 5   -853510.25221
  19731862.8544  -22523887.65047 -15586178.35663
  20810037.065     -649518.310 6   -506126.91222
  19169513.619    -1611887.812 8  -1204009.85324
 91  5  7 21 43 44.9940000  0  5G15G13G 6G19G 2
  22157115.7604   -3736898.18645  -2809964.49661
  22127151.2294   -1682188.54345   -910150.45861
  19724091.596   -22564721.044 7 -15617996.54423
  20814066.018     -628345.451 5   -489628.63421
  19166192.283    -1629344.034 8  -1217612.07924
 91  5  7 21 43 59.9940000  0  5G15G13G 6G19G 2
  22150422.5184   -3772075.33045  -2837375.15361
  22113328.5494   -1754824.95245   -966749.92861
  19716331.9554  -22605497.68647 -15649770.50963
  20818113.877     -607089.707 6   -473065.79822
  19162883.299    -1646733.066 8  -1231161.95124
 91  5  7 21 44 14.9940000  0  5G15G13G 6G19G 2
  22143748.518    -3807153.495 5  -2864708.68521
  22099513.721    -1827425.632 4  -1023321.50421
  19708579.8694  -22646234.16247 -15681513.18063
  20822167.5024    -585768.04145   -456451.56561
  19159583.713    -1664071.613 8  -1244672.48624
 91  5  7 21 44 29.9940000  0  5G15G13G 6G19G 2
  22137093.1434   -3842120.98745  -2891956.00661
  22085707.4794   -1899979.25145  -1079856.44961
  19700838.072   -22686919.317 7 -15713215.85223
  20826239.002     -564369.592 6   -439777.53021
  19156295.627    -1681348.916 8  -1258135.29824
 91  5  7 21 44 44.9940000  0  5G15G13G 6G19G 2
  22130453.135    -3876987.804 5  -2919124.86521
  22071907.5964   -1972495.86644  -1136362.52061
  19693102.9944  -22727563.16647 -15744886.34363
  20830323.1584    -542904.69445   -423051.68661
  19153018.221    -1698575.384 8  -1271558.49724
 91  5  7 21 44 59.9940000  0  5G15G13G 6G19G 2
  22123842.104    -3911751.196 5  -2946213.10621
  22058116.4244   -2044972.10745  -1192837.18461
  19685377.440   -22768162.751 7 -15776522.34123
  20834421.775     -521370.408 6   -406271.80821
  19149749.572    -1715748.318 8  -1284939.98124
 91  5  7 21 45 14.9940000  0  5G15G13G 6G19G 2
  22117244.5884   -3946414.85845  -2973223.64261
  22044332.197    -2117411.688 4  -1249283.27821
  19677659.7914  -22808721.88247 -15808126.81763
  20838533.8934    -499771.01946   -389441.16461
  19146491.619    -1732871.677 8  -1298282.83424
 91  5  7 21 45 29.9940000  0  5G15G13G 6G19G 2
  22110674.4634   -3980957.40345  -3000139.81861
  22030557.674    -2189793.196 5  -1305684.09421
  19669953.432   -22849219.185 7 -15839683.11623
  20842659.4474    -478085.43446   -372543.40761
  19143246.502    -1749924.426 8  -1311570.67424
 91  5  7 21 45 44.9940000  0  5G15G13G 6G19G 2
  22104118.690    -4015393.961 5  -3026973.40521
  22016791.1584   -2262132.08244  -1362051.70261
  19662255.986   -22889670.123 7 -15871203.28023
  20846798.330     -456329.487 6   -355590.76021
  19140011.533    -1766922.468 8  -1324815.87724
 91  5  7 21 45 59.9940000  0  5G15G13G 6G19G 2
  22097586.338    -4049726.473 5  -3053725.92421
  22003030.963    -2334429.822 4  -1418387.23521
  19654566.400   -22930076.568 7 -15902688.77923
  20850950.6664    -434505.23446   -338584.94361
  19136787.424    -1783867.781 8  -1338019.99824
 91  5  7 21 46 14.9940000  0  5G15G13G 6G19G 2
  22091072.760    -4083948.227 5  -3080392.14121
  21989283.4794   -2406679.70244  -1474685.50561
  19646886.768   -22970431.763 7 -15934134.34423
  20855121.713     -412606.283 6   -321520.87821
  19133574.111    -1800753.933 8  -1351178.02124
 91  5  7 21 46 29.9940000  0  5G15G13G 6G19G 2
  22084580.6354   -4118073.03645  -3106982.81661
  21975542.7444   -2478895.40145  -1530957.12561
  19639215.080   -23010749.545 7 -15965550.75122
  20859299.900     -390646.584 6   -304409.49421
  19130369.658    -1817595.019 8  -1364300.92324
 91  5  7 21 46 44.9940000  0  5G15G13G 6G19G 2
  22078106.1434   -4152092.94745  -3133491.73161
  21961807.322    -2551069.088 4  -1587196.02621
  19631551.307   -23051022.061 7 -15996931.88923
  20863491.4474    -368618.83446   -287245.08361
  19127175.190    -1834383.509 8  -1377382.84924
 91  5  7 21 46 59.9940000  0  5G15G13G 6G19G 2
  22071651.510    -4186016.805 5  -3159925.82121
  21948078.807    -2623209.314 5  -1643408.84721
  19623895.752   -23091258.339 7 -16028284.79023
  20867690.4944    -346532.18046   -270034.76861
  19123987.408    -1851128.824 8  -1390431.12724
 91  5  7 21 47 14.9940000  0  5G15G13G 6G19G 2
  22065215.3224   -4219835.02845  -3186277.59761
  21934357.565    -2695306.322 4  -1699587.96121
  19616247.002   -23131448.692 7 -16059601.90523
  20871910.7524    -324377.28346   -252771.27761
  19120811.682    -1867821.425 8  -1403438.32824
 91  5  7 21 47 29.9940000  0  5G15G13G 6G19G 2
  22058801.4474   -4253533.89445  -3212536.37461
  21920649.9164   -2767346.52045  -1755722.84061
  19608610.377   -23171579.592 7 -16090872.68923
  20876139.369     -302140.934 6   -235444.32521
  19117648.033    -1884447.973 8  -1416394.06123
 91  5  7 21 47 44.9940000  0  5G15G13G 6G19G 2
  22052413.190    -4287127.203 5  -3238712.86821
  21906948.713    -2839343.435 5  -1811824.00221
  19600981.7914  -23211664.64447 -16122107.75563
  20880385.9084    -279837.11146   -218064.79161
  19114494.127    -1901022.447 8  -1429309.21424
 91  5  7 21 47 59.9940000  0  5G15G13G 6G19G 2
  22046041.541    -4320603.633 5  -3264798.33121
  21893257.5494   -2911286.20845  -1867882.94661
  19593364.752   -23251693.114 7 -16153298.72223
  20884643.8464    -257455.39846   -200624.56661
  19111351.299    -1917534.506 8  -1442175.73624
 91  5  7 21 48 14.9940000  0  5G15G13G 6G19G 2
  22039687.190    -4353966.801 5  -3290795.53721
  21879576.6274   -2983178.24245  -1923902.38961
  19585757.752   -23291668.437 7 -16184448.28123
  20888916.8074    -234999.45846   -183126.49861
  19108221.033    -1933987.818 8  -1454996.47724
 91  5  7 21 48 29.9940000  0  5G15G13G 6G19G 2
  22033360.8304   -4387233.70445  -3316717.73061
  21865903.697    -3055036.025 5  -1979895.09921
  19578156.479   -23331607.320 7 -16215569.44223
  20893201.6044    -212486.40746   -165583.93661
  19105097.197    -1950399.375 8  -1467784.68524
 91  5  7 21 48 44.9940000  0  5G15G13G 6G19G 2
  22027056.0654   -4420384.10245  -3342549.12261
  21852239.783    -3126839.551 5  -2035845.56421
  19570568.541   -23371489.887 7 -16246646.72523
  20897500.533     -189896.589 6   -147981.54821
  19101986.283    -1966749.549 8  -1480525.05924
 91  5  7 21 48 59.9940000  0  5G15G13G 6G19G 2
  22020763.7364   -4453424.72045  -3368294.99861
  21838584.174    -3198595.622 5  -2091759.04221
  19562988.236   -23411322.917 7 -16277685.40523
  20901813.2914    -167237.00246   -130324.79561
  19098885.799    -1983045.768 8  -1493223.39624
 91  5  7 21 49 14.9940000  0  5G15G13G 6G19G 2
  22014496.322    -4486376.257 5  -3393971.44221
  21824933.744    -3270324.482 5  -2147651.33121
  19555412.736   -23451126.994 7 -16308701.52323
  20906134.018     -144528.509 5   -112629.93421
  19095789.815    -1999308.565 8  -1505895.68924
 91  5  7 21 49 29.9940000  0  5G15G13G 6G19G 2
  22008250.963    -4519198.226 6  -3419546.93421
  21811298.2054   -3341985.62845  -2203490.83561
  19547852.721   -23490861.730 7 -16339663.61323
  20910471.4324    -121731.05446    -94865.74861
  19092709.854    -2015497.870 8  -1518510.71224
 91  5  7 21 49 44.9940000  0  5G15G13G 6G19G 2
  22002023.4244   -4551907.21745  -3445034.41261
  21797668.940    -3413595.431 5  -2259290.37621
  19540301.346   -23530543.608 7 -16370584.50923
  20914823.4714     -98861.45346    -77045.34861
  19089639.877    -2031630.482 8  -1531081.55924
 91  5  7 21 49 59.9940000  0  5G15G13G 6G19G 2
  21995824.588    -4584502.135 6  -3470432.93721
  21784052.775    -3485152.875 5  -2315049.07621
  19532760.440   -23570171.852 7 -16401463.61323
  20919187.1194     -75919.23346    -59168.36161
  19086580.041    -2047705.878 8  -1543607.82624
 91  5  7 21 50 14.9940000  0  5G15G13G 6G19G 2
  21989640.979    -4616993.924 6  -3495751.16121
  21770444.018    -3556669.009 5  -2370775.62621
  19525226.861   -23609757.441 7 -16432309.48223
  20923565.541      -52915.856 5    -41243.72121
  19083530.525    -2063735.301 8  -1556098.27124
 91  5  7 21 50 29.9940000  0  5G15G13G 6G19G 2
  21983478.9084   -4649378.31646  -3520985.68461
  21756842.5654   -3628139.11145  -2426466.30861
  19517703.502   -23649295.880 7 -16463118.61123
  20927955.830      -29846.985 6    -23268.05021
  19080488.854    -2079714.552 8  -1568549.61624
 91  5  7 21 50 44.9940000  0  5G15G13G 6G19G 2
  21977330.025    -4681665.788 5  -3546144.68621
  21743249.2834   -3699573.79645  -2482129.32861
  19510186.627   -23688797.896 7 -16493899.35423
  20932356.9554      -6723.65445     -5249.94061
  19077455.502    -2095654.672 8  -1580970.47024
 91  5  7 21 50 59.9940000  0  5G15G13G 6G19G 2
  21971207.6584   -4713856.62145  -3571228.35661
  21729661.1504   -3770973.32045  -2537765.00861
  19502675.065   -23728263.602 7 -16524651.80923
  20936765.830       16453.449 5     12810.06721
  19074429.697    -2111556.161 8  -1593361.22524
 91  5  7 21 51 14.9940000  0  5G15G13G 6G19G 2
  21965097.2054   -4745955.60045  -3596240.49461
  21716080.416    -3842342.487 5  -2593377.04721
  19495171.385   -23767698.172 7 -16555379.99923
  20941189.908       39679.103 5     30907.90421
  19071409.869    -2127424.411 8  -1605726.07624
 91  5  7 21 51 29.9940000  0  5G15G13G 6G19G 2
  21959014.6664   -4777940.74046  -3621163.89461
  21702509.4164   -3913659.08645  -2648948.08761
  19487677.1274  -23807079.54947 -16586066.74663
  20945619.385       62975.065 6     49060.53621
  19068399.979    -2143237.703 8  -1618048.10324
 91  5  7 21 51 44.9940000  0  5G15G13G 6G19G 2
  21952948.877    -4809806.898 5  -3645994.60521
  21688948.3074   -3984918.19745  -2704474.33161
  19480194.744   -23846402.714 7 -16616708.12823
  20950067.166       86346.002 5     67271.56821
  19065403.658    -2158991.372 8  -1630323.67124
 91  5  7 21 51 59.9940000  0  5G15G13G 6G19G 2
  21946904.768    -4841564.933 5  -3670741.04121
  21675397.182    -4056129.968 5  -2759963.73621
  19472720.729   -23885678.158 7 -16647312.32523
  20954527.6904     109781.04446     85532.57861
  19062414.908    -2174695.952 8  -1642560.98724
 91  5  7 21 52 14.9940000  0  5G15G13G 6G19G 2
  21940879.885    -4873211.658 5  -3695400.75821
  21661857.4864   -4127291.42945  -2815413.89961
  19465257.3154  -23924902.91247 -16677877.02863
  20958998.025      133282.900 5    103845.63021
  19059436.799    -2190349.001 8  -1654758.15324
 91  5  7 21 52 29.9940000  0  5G15G13G 6G19G 2
  21934872.8074   -4904763.50545  -3719986.55861
  21648320.1744   -4198418.89045  -2870837.58361
  19457800.447   -23964093.392 7 -16708415.02123
  20963481.1504     156834.80946    122197.69061
  19056463.900    -2205967.402 8  -1666928.32124
 91  5  7 21 52 44.9940000  0  5G15G13G 6G19G 2
  21928894.315    -4936195.219 5  -3744478.72921
  21634795.5024   -4269487.21845  -2926215.20661
  19450352.0574  -24003224.60147 -16738906.83363
  20967978.221      180461.315 5    140607.87721
  19053503.150    -2221526.336 8  -1679052.14524
 91  5  7 21 52 59.9940000  0  5G15G13G 6G19G 2
  21922934.807    -4967512.718 5  -3768881.90721
  21621282.6504   -4340502.27845  -2981551.30661
  19442914.955   -24042302.543 7 -16769357.13523
  20972486.315      204156.208 6    159071.35121
  19050552.479    -2237031.968 8  -1691134.44024
 91  5  7 21 53 14.9940000  0  5G15G13G 6G19G 2
  21916998.2214   -4998705.74445  -3793188.07761
  21607778.525    -4411453.708 5  -3036837.82721
  19435491.5574  -24081316.94447 -16799757.92663
  20977012.033      227929.316 5    177595.76921
  19047613.088    -2252474.405 8  -1703167.48824
 91  5  7 21 53 29.9940000  0  5G15G13G 6G19G 2
  21911086.9714   -5029769.89745  -3817393.80961
  21594292.4404   -4482336.82145  -3092071.14161
  19428080.065   -24120263.331 7 -16830105.71823
  20981549.994      251785.088 6    196184.61421
  19044687.971    -2267849.368 8  -1715147.96324
 91  5  7 21 53 44.9940000  0  5G15G13G 6G19G 2
  21905191.471    -5060748.383 5  -3841532.81521
  21580809.7914   -4553194.53445  -3147284.64961
  19420673.5024  -24159184.66947 -16860433.99163
  20986096.7524     275680.05245    214803.97061
  19041766.533    -2283200.239 8  -1727109.66324
 91  5  7 21 53 59.9940000  0  5G15G13G 6G19G 2
  21899318.7754   -5091623.75646  -3865591.45161
  21567334.3074   -4624009.18645  -3202464.59761
  19413275.588   -24198063.544 7 -16890729.17923
  20990657.260      299631.336 5    233467.23721
  19038853.182    -2298509.944 8  -1739039.28324
 91  5  7 21 54 14.9940000  0  5G15G13G 6G19G 2
  21893467.018    -5122390.975 6  -3889565.82521
  21553864.955    -4694775.981 5  -3257607.25921
  19405886.5494  -24236895.25147 -16920987.61163
  20995226.182      323643.460 5    252177.89821
  19035948.932    -2313773.925 8  -1750933.27824
 91  5  7 21 54 29.9940000  0  5G15G13G 6G19G 2
  21887628.393    -5153044.752 5  -3913451.78421
  21540408.1744   -4765489.21245  -3312708.19661
  19398506.5654  -24275674.20947 -16951204.94263
  20999809.650      347721.528 5    270939.94321
  19033054.229    -2328986.692 8  -1762787.35924
 91  5  7 21 54 44.9940000  0  5G15G13G 6G19G 2
  21881819.424    -5183581.631 6  -3937246.67121
  21526964.143    -4836145.646 5  -3367764.85021
  19391138.7134  -24314397.15647 -16981378.62863
  21004402.3224     371868.29545    289755.52261
  19030168.994    -2344145.498 8  -1774599.39624
 91  5  7 21 54 59.9940000  0  5G15G13G 6G19G 2
  21876029.666    -5214007.527 6  -3960955.08721
  21513529.6504   -4906751.21345  -3422781.88661
  19383777.8154  -24353070.13947 -17011513.38363
  21009010.518      396077.590 5    308619.81821
  19027294.182    -2359256.681 8  -1786374.32923
 91  5  7 21 55 14.9940000  0  5G15G13G 6G19G 2
  21870261.6354   -5244321.89646  -3984576.58061
  21500100.315    -4977305.009 5  -3477758.63421
  19376428.7294  -24391692.46547 -17041608.66163
  21013627.205      420349.719 5    327533.08821
  19024428.096    -2374320.020 8  -1798111.97424
 91  5  7 21 55 29.9940000  0  5G15G13G 6G19G 2
  21864513.627    -5274530.433 6  -4008115.60221
  21486683.346    -5047812.819 5  -3532699.49621
  19369087.6744  -24430269.86647 -17071668.93663
  21018255.7914     444678.72645    346490.66161
  19021569.244    -2389341.307 8  -1809816.85224
 91  5  7 21 55 44.9940000  0  5G15G13G 6G19G 2
  21858784.760    -5304634.857 6  -4031573.52221
  21473275.635    -5118276.112 5  -3587605.67821
  19361756.0254  -24468803.99247 -17101695.49063
  21022896.908      469062.458 5    365490.89321
  19018718.822    -2404322.664 8  -1821490.61623
 91  5  7 21 55 59.9940000  0  5G15G13G 6G19G 2
  21853078.9554   -5334621.46846  -4054939.62961
  21459877.0804   -5188681.03645  -3642466.39361
  19354432.6434  -24507281.15547 -17131677.65563
  21027548.807      493514.201 5    384544.12321
  19015876.760    -2419250.735 8  -1833122.86024
 91  5  7 21 56 14.9940000  0  5G15G13G 6G19G 2
  21847394.111    -5364478.094 6  -4078204.43521
  21446491.1044   -5259015.47645  -3697272.16761
  19347124.3464  -24545689.36147 -17161606.09163
  21032218.135      518045.801 5    403659.56321
  19013048.463    -2434113.647 8  -1844704.33024
 91  5  7 21 56 29.9940000  0  5G15G13G 6G19G 2
  21841734.447    -5394227.652 6  -4101385.83521
  21433116.2834   -5329301.98645  -3752040.58561
  19339824.5724  -24584051.35647 -17191498.51563
  21036899.588      542634.056 5    422819.15321
  19010229.229    -2448934.589 8  -1856253.09424
 91  5  7 21 56 44.9940000  0  5G15G13G 6G19G 2
  21836090.2834   -5423887.62545  -4124497.42261
  21419749.6504   -5399558.13145  -3806785.36461
  19332528.9794  -24622384.57047 -17221368.51563
  21041583.713      567261.402 5    442009.22221
  19007413.650    -2463731.214 8  -1867782.91124
 91  5  7 21 56 59.9940000  0  5G15G13G 6G19G 2
  21830469.6504   -5453434.41845  -4147520.79761
  21406388.4794   -5469760.28645  -3861488.07261
  19325244.557   -24660665.519 7 -17251197.78723
  21046281.7444     591950.75845    461247.58961
  19004606.455    -2478480.382 8  -1879275.75123
 91  5  7 21 57 14.9940000  0  5G15G13G 6G19G 2
  21824869.3934   -5482864.09145  -4170452.93161
  21393039.4404   -5539904.44645  -3916145.59761
  19317971.5494  -24698890.37847 -17280983.34963
  21050994.541      616705.628 5    480537.00821
  19001809.432    -2493178.503 8  -1890728.81224
 91  5  7 21 57 29.9940000  0  5G15G13G 6G19G 2
  21819287.635    -5512180.712 5  -4193296.97621
  21379700.2214   -5609994.54845  -3970760.97161
  19310706.5104  -24737063.13747 -17310728.32063
  21055713.5024     641521.71945    499874.14161
  18999020.963    -2507829.960 8  -1902145.51524
 91  5  7 21 57 44.9940000  0  5G15G13G 6G19G 2
  21813728.2364   -5541387.02645  -4216055.05261
  21366374.9794   -5680033.01145  -4025336.13861
  19303451.8614  -24775186.48747 -17340434.78563
  21060449.260      666396.093 5    519256.68721
  18996241.291    -2522437.533 8  -1913528.01424
 91  5  7 21 57 59.9940000  0  5G15G13G 6G19G 2
  21808194.861    -5570480.636 5  -4238725.31421
  21353055.5804   -5750017.40745  -4079869.15961
  19296208.1114  -24813257.95247 -17370100.82363
  21065193.916      691330.846 5    538686.27621
  18993470.322    -2536999.325 8  -1924874.84224
 91  5  7 21 58 14.9940000  0  5G15G13G 6G19G 2
  21802676.549    -5599456.745 5  -4261304.02921
  21339748.6904   -5819942.90045  -4134356.30061
  19288974.0964  -24851272.81247 -17399722.75663
  21069951.830      716330.211 5    558166.21521
  18990708.315    -2551510.770 8  -1936182.44224
 91  5  7 21 58 29.9940000  0  5G15G13G 6G19G 2
  21797184.3614   -5628331.21645  -4283803.52061
  21326452.6744   -5889825.50045  -4188810.02861
  19281747.8774  -24889247.08347 -17429313.06063
  21074715.7684     741378.00445    577683.89561
  18987953.752    -2565988.011 8  -1947463.39124
 91  5  7 21 58 44.9940000  0  5G15G13G 6G19G 2
  21791714.236    -5657080.753 5  -4306205.67821
  21313166.8384   -5959641.45845  -4243211.78261
  19274533.5184  -24927157.10347 -17458853.29963
  21079499.330      766497.407 5    597257.36321
  18985210.557    -2580407.840 8  -1958699.59324
 91  5  7 21 58 59.9940000  0  5G15G13G 6G19G 2
  21786265.7524   -5685714.03645  -4328517.24061
  21299891.1974   -6029399.42345  -4297568.37661
  19267330.0184  -24965011.76847 -17488350.40263
  21084291.1274     791679.24545    616879.48861
  18982474.682    -2594779.578 8  -1969898.33124
 91  5  7 21 59 14.9940000  0  5G15G13G 6G19G 2
  21780836.9084   -5714239.12045  -4350744.51461
  21286625.4084   -6099107.36845  -4351885.99361
  19260134.9714  -25002819.31247 -17517810.79563
  21089093.6194     816914.95445    636543.57961
  18979747.440    -2609111.578 8  -1981066.09924
 91  5  7 21 59 29.9940000  0  5G15G13G 6G19G 2
  21775428.799    -5742658.541 5  -4372889.44021
  21273369.5884   -6168767.54545  -4406166.36961
  19252948.8464  -25040581.81347 -17547236.08163
  21093903.1744     842202.13545    656247.79761
  18977028.221    -2623406.371 8  -1992204.87524
 91  5  7 21 59 44.9940000  0  5G15G13G 6G19G 2
  21770039.4244   -5770969.54545  -4394949.87361
  21260124.127    -6238377.211 5  -4460407.41021
  19245772.2834  -25078296.79947 -17576624.34563
  21098727.447      867542.942 5    675993.78021
  18974315.322    -2637661.643 8  -2003312.85724
 91  5  7 21 59 59.9940000  0  5G15G13G 6G19G 2
  21764676.1974   -5799159.27845  -4416915.83261
  21246888.065    -6307923.487 5  -4514599.07321
  19238606.5574  -25115951.40247 -17605965.55863
  21103560.7604     892949.75745    695791.21761
  18971612.643    -2651864.956 8  -2014380.35224
 91  5  7 22  0 14.9940000  0  5G15G13G 6G19G 2
  21759334.440    -5827232.995 5  -4438791.37021
  21233665.5414   -6377411.49745  -4568745.26461
  19231451.5964  -25153550.90347 -17635263.83363
  21108409.6434     918417.01045    715635.73361
  18968918.447    -2666021.817 8  -2025411.65523
 91  5  7 22  0 29.9940000  0  5G15G13G 6G19G 2
  21754015.713    -5855184.459 6  -4460571.64121
  21220453.221    -6446834.791 5  -4622841.06221
  19224309.0804  -25191088.89147 -17664514.17463
  21113264.604      943950.851 5    735532.15421
  18966234.119    -2680126.232 8  -2036402.08724
 91  5  7 22  0 44.9940000  0  5G15G13G 6G19G 2
  21748719.4164   -5883025.89446  -4482266.21261
  21207251.932    -6516205.434 5  -4676895.85121
  19217174.7604  -25228577.51847 -17693726.05563
  21118136.8614     969538.69745    755470.63461
  18963558.455    -2694190.466 8  -2047361.21024
 91  5  7 22  0 59.9940000  0  5G15G13G 6G19G 2
  21743443.182    -5910737.487 5  -4503859.59221
  21194067.7444   -6585503.55045  -4730894.11061
  19210053.4004  -25265996.92147 -17722883.99563
  21123018.408      995200.026 5    775466.39121
  18960892.752    -2708195.240 8  -2058274.00024
 91  5  7 22  1 14.9940000  0  5G15G13G 6G19G 2
  21738193.8074   -5938343.02846  -4525370.32861
  21180888.1744   -6654752.78045  -4784854.28661
  19202941.5334  -25303371.12747 -17752006.71963
  21127912.6274    1020910.61945    795500.52661
  18958234.604    -2722164.537 8  -2069159.15024
 91  5  7 22  1 29.9940000  0  5G15G13G 6G19G 2
  21732958.627    -5965843.103 5  -4546798.89321
  21167717.9474   -6723953.76245  -4838776.85861
  19195838.8154  -25340700.70347 -17781094.66063
  21132815.369     1046669.358 5    815572.18421
  18955582.846    -2736099.389 8  -2080017.45424
 91  5  7 22  1 44.9940000  0  5G15G13G 6G19G 2
  21727748.799    -5993234.074 5  -4568142.43621
  21154560.643    -6793102.406 5  -4892658.66821
  19188743.6434  -25377981.67747 -17810144.73063
  21137725.9164    1072479.85545    835684.17561
  18952938.385    -2749996.046 8  -2090845.99724
 91  5  7 22  1 59.9940000  0  5G15G13G 6G19G 2
  21722554.565    -6020508.498 5  -4589395.16721
  21141413.775    -6862191.201 5  -4946493.83221
  19181660.3854  -25415206.47747 -17839151.02663
  21142647.5334    1098349.40845    855842.17161
  18950302.135    -2763847.127 8  -2101639.02824
 91  5  7 22  2 14.9940000  0  5G15G13G 6G19G 2
  21717387.1044   -6047659.01645  -4610551.34561
  21128280.166    -6931212.810 5  -5000276.65021
  19174588.229   -25452368.077 7 -17868108.07623
  21147584.4864    1124284.70945    876051.41761
  18947676.682    -2777646.085 8  -2112391.43824
 91  5  7 22  2 29.9940000  0  5G15G13G 6G19G 2
  21712241.330    -6074697.388 5  -4631620.15621
  21115156.5414   -7000178.94245  -5054016.24261
  19167526.7754  -25489477.96147 -17897024.83363
  21152529.0654    1150273.78745    896302.54761
  18945059.361    -2791404.714 8  -2123112.43024
 91  5  7 22  2 44.9940000  0  5G15G13G 6G19G 2
  21707117.8774   -6101627.40045  -4652604.51461
  21102041.1274   -7069093.02245  -5107715.28861
  19160473.8934  -25526539.78847 -17925904.13763
  21157485.447     1176312.670 5    916592.50121
  18942446.877    -2805126.923 8  -2133805.04024
 91  5  7 22  2 59.9940000  0  5G15G13G 6G19G 2
  21702014.6354   -6128438.64645  -4673496.33361
  21088938.369    -7137944.490 5  -5161365.52221
  19153433.1114  -25563543.27547 -17954737.98863
  21162448.3464    1202411.38345    936929.06761
  18939844.041    -2818802.760 8  -2144461.51624
 91  5  7 22  3 14.9940000  0  5G15G13G 6G19G 2
  21696940.7524   -6155126.85645  -4694292.28061
  21075849.5804   -7206729.06545  -5214963.65161
  19146402.9634  -25600484.03647 -17983522.96163
  21167428.0654    1228573.80545    957315.28161
  18937251.510    -2832428.341 8  -2155078.83324
 91  5  7 22  3 29.9940000  0  5G15G13G 6G19G 2
  21691882.1904   -6181689.86945  -4714990.67361
  21062774.393    -7275444.896 5  -5268508.21521
  19139385.8224  -25637360.17147 -18012257.57163
  21172418.7134    1254801.62645    977752.45661
  18934669.135    -2846001.860 8  -2165655.58024
 91  5  7 22  3 44.9940000  0  5G15G13G 6G19G 2
  21686849.6434   -6208144.86846  -4735604.92061
  21049707.307    -7344108.826 5  -5322012.32721
  19132377.0104  -25674188.80747 -18040955.17463
  21177421.1274    1281077.24545    998226.87561
  18932092.111    -2859540.703 8  -2176205.30624
 91  5  7 22  3 59.9940000  0  5G15G13G 6G19G 2
  21681839.5724   -6234476.60646  -4756123.10761
  21036652.7684   -7412705.29745  -5375463.88861
  19125380.6044  -25710954.52047 -18069603.73963
  21182432.088     1307415.787 5   1018750.31821
  18929526.541    -2873029.874 8  -2186716.33024
 91  5  7 22  4 14.9940000  0  5G15G13G 6G19G 2
  21676849.1354   -6260691.90845  -4776550.57361
  21023610.463    -7481240.824 5  -5428867.95321
  19118394.3544  -25747663.96247 -18098208.46763
  21187456.947     1333810.185 5   1039317.30421
  18926967.541    -2886476.280 8  -2197194.03124
 91  5  7 22  4 29.9940000  0  5G15G13G 6G19G 2
  21671881.9474   -6286790.71545  -4796887.25361
  21010579.1824   -7549715.38645  -5482224.52861
  19111420.2834  -25784317.02347 -18126769.25163
  21192487.8464    1360260.28745   1059927.68361
  18924416.619    -2899880.128 8  -2207638.56724
 91  5  7 22  4 44.9940000  0  5G15G13G 6G19G 2
  21666935.2444   -6312779.77045  -4817138.41761
  20997560.447    -7618135.585 5  -5535538.72921
  19104454.9634  -25820920.62547 -18155291.50263
  21197532.4244    1386758.88545   1080575.83461
  18921872.041    -2913248.739 8  -2218055.65424
 91  5  7 22  4 59.9930000  0  5G15G13G 6G19G 2
  21662011.732    -6338657.399 6  -4837302.75421
  20984552.9274   -7686496.66046  -5588806.86061
  19097499.083   -25857472.136 7 -18183773.15723
  21202581.4584    1413303.92345   1101260.20261
  18919334.872    -2926581.238 8  -2228444.59324
 91  5  7 22  5 14.9930000  0  5G15G13G 6G19G 2
  21657115.9194   -6364395.88446  -4857358.65461
  20971558.653    -7754776.510 6  -5642011.70421
  19090558.5754  -25893945.11847 -18212193.62463
  21207649.9194    1439929.84645   1122007.57461
  18916809.482    -2939848.290 8  -2238782.53824
 91  5  7 22  5 29.9930000  0  5G15G13G 6G19G 2
  21652238.3724   -6390024.05946  -4877328.63261
  20958575.786    -7823000.948 5  -5695173.37621
  19083628.1614  -25930367.66647 -18240574.78863
  21212723.5444    1466604.02945   1142792.57161
  18914292.575    -2953079.847 8  -2249092.82524
 91  5  7 22  5 44.9930000  0  5G15G13G 6G19G 2
  21647384.646    -6415530.885 6  -4897204.02921
  20945605.982    -7891159.038 5  -5748283.34321
  19076708.6694  -25966728.86347 -18268908.15263
  21217814.888     1493336.937 5   1163623.30621
  18911783.528    -2966265.243 8  -2259367.14124
 91  5  7 22  5 59.9930000  0  5G15G13G 6G19G 2
  21642557.755    -6440909.065 6  -4916979.18421
  20932650.4194   -7959243.18646  -5801335.68761
  19069803.4824  -26003021.34247 -18297187.96663
  21222909.857     1520135.529 5   1184505.24221
  18909284.442    -2979397.434 8  -2269600.00224
 91  5  7 22  6 14.9930000  0  5G15G13G 6G19G 2
  21637749.5364   -6466167.30746  -4936660.88961
  20919706.927    -8027261.828 5  -5854337.01021
  19062908.0754  -26039253.63947 -18325420.88763
  21228023.169     1546991.119 5   1205431.57321
  18906793.528    -2992485.396 8  -2279798.39624
 91  5  7 22  6 29.9930000  0  5G15G13G 6G19G 2
  21632965.700    -6491308.880 6  -4956251.67521
  20906773.310    -8095217.994 5  -5907289.63821
  19056023.4424  -26075428.82047 -18353609.30163
  21233144.6774    1573899.91045   1226399.36661
  18904311.263    -3005532.618 8  -2289965.04424
 91  5  7 22  6 44.9930000  0  5G15G13G 6G19G 2
  21628205.5364   -6516326.12046  -4975745.59561
  20893854.6464   -8163104.40045  -5960187.91661
  19049152.5604  -26111539.69847 -18381747.60963
  21238275.7944    1600868.99245   1247414.14961
  18901837.091    -3018531.968 8  -2300094.39124
 91  5  7 22  6 59.9930000  0  5G15G13G 6G19G 2
  21623464.4894   -6541233.06046  -4995153.55661
  20880948.380    -8230934.870 5  -6013042.61221
  19042289.6144  -26147600.03347 -18409846.53763
  21243418.247     1627884.153 5   1268464.82121
  18899370.458    -3031497.571 8  -2310197.44024
 91  5  7 22  7 14.9930000  0  5G15G13G 6G19G 2
  21618749.8334   -6566011.89946  -5014461.68961
  20868053.4424   -8298691.25545  -6065839.55861
  19035441.0604  -26183592.02447 -18437892.20963
  21248570.185     1654962.825 5   1289564.99921
  18896912.286    -3044411.806 8  -2320260.46224
 91  5  7 22  7 29.9930000  0  5G15G13G 6G19G 2
  21614056.958    -6590662.103 6  -5033669.59721
  20855175.0364   -8366372.90545  -6118578.29961
  19028604.4034  -26219514.80347 -18465883.94963
  21253736.0674    1682105.50445   1310715.04961
  18894465.153    -3057274.199 8  -2330283.09024
 91  5  7 22  7 44.9930000  0  5G15G13G 6G19G 2
  21609390.4894   -6615190.16746  -5052782.34161
  20842306.794    -8433986.248 5  -6171263.79621
  19021781.3804  -26255374.94947 -18493826.88363
  21258913.9824    1709305.22745   1331909.53761
  18892025.692    -3070091.522 8  -2340270.59724
 91  5  7 22  7 59.9930000  0  5G15G13G 6G19G 2
  21604745.614    -6639596.131 6  -5071799.92321
  20829453.0214   -8501530.86745  -6223895.73861
  19014969.7944  -26291172.23447 -18521720.83663
  21264096.403     1736561.763 5   1353148.31021
  18889595.208    -3082864.244 8  -2350223.35124
 91  5  7 22  8 14.9930000  0  5G15G13G 6G19G 2
  21600125.841    -6663873.846 6  -5090717.57321
  20816615.5994   -8569000.60146  -6276469.35461
  19008170.6074  -26326900.50247 -18549561.00663
  21269297.935     1763881.065 5   1374435.97421
  18887174.630    -3095586.266 8  -2360136.59724
 91  5  7 22  8 29.9930000  0  5G15G13G 6G19G 2
  21595528.849    -6688031.035 6  -5109541.31421
  20803789.528    -8636403.262 6  -6328990.68521
  19001382.2784  -26362567.61047 -18577353.52563
  21274503.5364    1791254.83945   1395766.08661
  18884762.317    -3108265.769 8  -2370016.71224
 91  5  7 22  8 44.9930000  0  5G15G13G 6G19G 2
  21590954.107    -6712074.904 6  -5128276.74521
  20790972.974    -8703745.625 6  -6381465.04821
  18994605.4274  -26398180.57947 -18605103.84763
  21279725.372     1818675.737 5   1417132.92321
  18882355.036    -3120910.138 8  -2379869.44824
 91  5  7 22  8 59.9930000  0  5G15G13G 6G19G 2
  21586398.9824   -6736004.80046  -5146923.39361
  20778170.372    -8771027.084 6  -6433891.94421
  18987838.2474  -26433738.80247 -18632811.52063
  21284953.8964    1846143.99945   1438536.67561
  18879956.724    -3133518.835 8  -2389694.38424
 91  5  7 22  9 14.9930000  0  5G15G13G 6G19G 2
  21581869.1074   -6759814.44246  -5165476.29961
  20765379.021    -8838241.372 6  -6486266.51021
  18981084.4744  -26469235.84747 -18660471.52263
  21290187.6224    1873665.40145   1459981.80961
  18877564.794    -3146085.843 8  -2399486.84224
 91  5  7 22  9 29.9930000  0  5G15G13G 6G19G 2
  21577361.396    -6783494.023 6  -5183927.88421
  20752603.5284   -8905378.43546  -6538580.88061
  18974342.8494  -26504661.95247 -18688076.24063
  21295436.3804    1901249.66645   1481475.95061
  18875183.232    -3158601.732 8  -2409239.46324
 91  5  7 22  9 44.9930000  0  5G15G13G 6G19G 2
  21572881.130    -6807040.084 5  -5202275.40721
  20739844.1384   -8972434.41746  -6590832.08061
  18967614.9274  -26540013.12447 -18715622.57363
  21300698.1534    1928900.26745   1503021.79261
  18872810.685    -3171062.931 8  -2418949.47024
 91  5  7 22  9 59.9930000  0  5G15G13G 6G19G 2
  21568429.325    -6830455.376 6  -5220521.04121
  20727097.028    -9039411.993 6  -6643022.20521
  18960903.3724  -26575292.20747 -18743112.73263
  21305971.989     1956613.933 5   1524616.73721
  18870449.849    -3183472.485 8  -2428619.22924
 91  5  7 22 10 14.9930000  0  5G15G13G 6G19G 2
  21563992.114    -6853748.472 6  -5238671.46421
  20714365.028    -9106319.699 6  -6695157.86521
  18954201.0284  -26610508.04947 -18770553.61563
  21311255.513     1984381.692 5   1546253.86721
  18868097.224    -3195839.403 8  -2438255.76724
 91  5  7 22 10 29.9930000  0  5G15G13G 6G19G 2
  21559587.2324   -6876913.63346  -5256722.18061
  20701647.325    -9173151.326 6  -6747234.23121
  18947512.9824  -26645654.36447 -18797940.31663
  21316554.5444    2012209.19245   1567937.52961
  18865752.357    -3208157.994 8  -2447854.65324
 91  5  7 22 10 44.9930000  0  5G15G13G 6G19G 2
  21555204.841    -6899947.535 6  -5274670.62421
  20688945.794    -9239903.649 6  -6799248.82921
  18940838.1074  -26680727.98647 -18825270.37663
  21321860.5834    2040099.26845   1589669.95461
  18863419.192    -3220425.071 8  -2457413.39424
 91  5  7 22 10 59.9930000  0  5G15G13G 6G19G 2
  21550844.3884   -6922851.23546  -5292517.62661
  20676256.607    -9306577.782 6  -6851202.47721
  18934176.9664  -26715730.06647 -18852544.69163
  21327178.8644    2068050.47445   1611450.01061
  18861093.560    -3232642.272 8  -2466933.27124
 91  5  7 22 11 14.9930000  0  5G15G13G 6G19G 2
  21546511.833    -6945625.768 6  -5310263.95621
  20663584.669    -9373174.450 6  -6903095.76721
  18927530.8644  -26750661.25547 -18879763.76063
  21332512.2084    2096061.65445   1633276.80161
  18858777.724    -3244810.510 8  -2476415.00024
 91  5  7 22 11 29.9930000  0  5G15G13G 6G19G 2
  21542201.0054   -6968271.35246  -5327909.83961
  20650925.2084   -9439693.71646  -6954928.74461
  18920896.5834  -26785521.77547 -18906927.77163
  21337853.833     2124132.262 5   1655149.90921
  18856471.317    -3256930.294 8  -2485858.97024
 91  5  7 22 11 44.9930000  0  5G15G13G 6G19G 2
  21537917.192    -6990785.965 6  -5345453.62721
  20638282.3574   -9506133.18646  -7006699.54861
  18914277.1384  -26820309.50247 -18934035.05663
  21343206.411     2152263.970 5   1677070.61421
  18854175.528    -3268999.748 8  -2495263.72124
 91  5  7 22 11 59.9930000  0  5G15G13G 6G19G 2
  21533656.450    -7013177.768 6  -5362901.73921
  20625652.185    -9572500.785 6  -7058414.34021
  18907668.4584  -26855032.30147 -18961091.74863
  21348568.1774    2180448.48445   1699032.47261
  18851886.442    -3281027.009 8  -2504635.59224
 91  5  7 22 12 14.9930000  0  5G15G13G 6G19G 2
  21529419.739    -7035438.643 6  -5380247.80121
  20613038.6464   -9638788.58146  -7110066.96361
  18901074.9504  -26889682.08647 -18988091.54563
  21353941.9504    2208693.50145   1721041.46961
  18849606.638    -3293004.393 8  -2513968.60524
 91  5  7 22 12 29.9930000  0  5G15G13G 6G19G 2
  21525209.060    -7057563.636 6  -5397488.00921
  20600441.294    -9704991.457 6  -7161653.40921
  18894497.8884  -26924254.03947 -19015030.69663
  21359330.107     2237003.688 5   1743101.24721
  18847338.247    -3304927.349 8  -2523259.20324
 91  5  7 22 12 44.9930000  0  5G15G13G 6G19G 2
  21521026.0524   -7079551.70546  -5414621.51361
  20587858.7474   -9771107.97746  -7213172.55961
  18887933.0364  -26958746.83347 -19041908.16363
  21364728.997     2265379.684 5   1765212.31821
  18845079.755    -3316794.972 8  -2532506.68524
 91  5  7 22 12 59.9930000  0  5G15G13G 6G19G 2
  21516865.333    -7101406.602 6  -5431651.24921
  20575292.5604   -9837141.74146  -7264627.22561
  18881384.2394  -26993164.12447 -19068726.79863
  21370140.638     2293817.359 5   1787371.43021
  18842831.880    -3328611.250 8  -2541714.15824
 91  5  7 22 13 14.9930000  0  5G15G13G 6G19G 2
  21512733.7394   -7123132.76946  -5448580.69161
  20562741.1924   -9903097.35046  -7316020.99761
  18874848.6774  -27027510.49747 -19095490.17563
  21375564.8964    2322312.10345   1809575.02661
  18840591.067    -3340380.998 8  -2550885.37724
 91  5  7 22 13 29.9930000  0  5G15G13G 6G19G 2
  21508623.232    -7144724.822 6  -5465405.62221
  20550207.6774   -9968968.81746  -7367349.19061
  18868325.5834  -27061780.23747 -19122193.83963
  21380998.005     2350869.238 5   1831827.22721
  18838362.669    -3352098.557 8  -2560015.92524
 91  5  7 22 13 44.9930000  0  5G15G13G 6G19G 2
  21504538.044    -7166192.597 6  -5482133.70421
  20537686.474   -10034765.924 6  -7418619.44121
  18861818.4354  -27095983.03047 -19148845.33563
  21386442.271     2379478.377 5   1854119.94721
  18836138.8024   -3363774.16948  -2569113.79764
 91  5  7 22 13 59.9930000  0  5G15G13G 6G19G 2
  21500478.513    -7187519.403 6  -5498751.95221
  20525182.9504  -10100472.04546  -7469818.79961
  18855325.5214  -27130102.35447 -19175431.79263
  21391900.786     2408156.019 5   1876466.05321
  18833928.927    -3375391.365 8  -2578166.14224
 91  5  7 22 14 14.9930000  0  5G15G13G 6G19G 2
  21496446.442    -7208714.291 6  -5515267.40221
  20512694.1464  -10166096.17146  -7520954.25861
  18848846.0284  -27164147.07947 -19201960.12163
  21397370.349     2436892.678 5   1898858.15021
  18831728.4584   -3386959.44248  -2587180.21764
 91  5  7 22 14 29.9930000  0  5G15G13G 6G19G 2
  21492437.528    -7229770.554 5  -5531674.83921
  20500222.0754  -10231631.04346  -7572020.19061
  18842384.8804  -27198110.25647 -19228424.90463
  21402850.771     2465695.021 5   1921301.43821
  18829536.4424   -3398471.94748  -2596150.98864
 91  5  7 22 14 44.9930000  0  5G15G13G 6G19G 2
  21488456.1224   -7250701.41046  -5547984.53261
  20487766.1774  -10297089.61346  -7623026.65061
  18835933.8334  -27232004.82347 -19254836.22763
  21408338.8964    2494549.86045   1943785.61261
  18827354.763    -3409941.941 8  -2605088.63224
 91  5  7 22 14 59.9930000  0  5G15G13G 6G19G 2
  21484499.958    -7271491.955 6  -5564184.91921
  20475328.7084  -10362456.92846  -7673962.00261
  18829500.7164  -27265815.71947 -19281182.35263
  21413843.6694    2523471.40845   1966321.78761
  18825182.8414   -3421354.72748  -2613981.70264
 91  5  7 22 15 14.9930000  0  5G15G13G 6G19G 2
  21480567.380    -7292155.205 6  -5580286.10121
  20462903.521   -10427746.095 6  -7724836.46421
  18823078.989   -27299556.140 7 -19307473.56323
  21419355.989     2552446.190 5   1988899.42421
  18823019.3964   -3432723.73148  -2622840.65464
 91  5  7 22 15 29.9930000  0  5G15G13G 6G19G 2
  21476660.489    -7312689.185 6  -5596286.56021
  20450493.5914  -10492954.90146  -7775648.31361
  18816671.778   -27333223.993 7 -19333708.22723
  21424882.153     2581476.018 5   2011519.95721
  18820864.2324   -3444046.98948  -2631663.96664
 91  5  7 22 15 44.9930000  0  5G15G13G 6G19G 2
  21472776.067    -7333097.058 6  -5612188.76421
  20438100.4584  -10558086.33646  -7826399.87461
  18810278.2634  -27366822.33547 -19359888.72963
  21430416.028     2610557.161 5   2034180.48421
  18818719.0604   -3455328.08748  -2640454.42064
 91  5  7 22 15 59.9930000  0  5G15G13G 6G19G 2
  21468916.9034   -7353364.14546  -5627981.25861
  20425723.3494  -10623125.58946  -7877079.59761
  18803901.739   -27400336.307 7 -19386003.48823
  21435961.4974    2639704.15445   2056892.30461
  18816581.2944   -3466552.51748  -2649200.72364
 91  5  7 22 16 14.9930000  0  5G15G13G 6G19G 2
  21465088.357    -7373486.751 6  -5643661.16321
  20413365.2554  -10688068.37646  -7927684.17461
  18797540.067   -27433761.854 7 -19412049.34223
  21441522.1224    2668920.98845   2079658.56061
  18814457.8804   -3477716.34048  -2657899.79464
 91  5  7 22 16 29.9930000  0  5G15G13G 6G19G 2
  21461287.2394   -7393468.67146  -5659231.45061
  20401022.935   -10752918.578 6  -7978216.58321
  18791196.677   -27467102.721 7 -19438029.21223
  21447093.8174    2698203.29245   2102475.83761
  18812343.1384   -3488823.81548  -2666554.96164
 91  5  7 22 16 44.9930000  0  5G15G13G 6G19G 2
  21457510.5284   -7413316.59346  -5674697.32461
  20388698.4974  -10817682.82546  -8028682.02261
  18784866.497   -27500365.726 7 -19463948.41223
  21452678.5134    2727544.04645   2125338.63461
  18810238.8174   -3499881.72848  -2675171.50664
 91  5  7 22 16 59.9930000  0  5G15G13G 6G19G 2
  21453757.8644   -7433028.56646  -5690057.26161
  20376392.271   -10882359.251 6  -8079079.04421
  18778551.7004  -27533548.78747 -19489805.31463
  21458271.372     2756944.691 5   2148248.13121
  18808145.5754   -3510888.49348  -2683748.19564
 91  5  7 22 17 14.9930000  0  5G15G13G 6G19G 2
  21450033.7864   -7452611.85046  -5705316.92761
  20364101.4114  -10946954.64046  -8129412.90161
  18772250.2164  -27566659.03647 -19515605.48263
  21463877.1614    2786397.91445   2171198.58361
  18806058.575    -3521851.379 8  -2692290.68924
 91  5  7 22 17 29.9930000  0  5G15G13G 6G19G 2
  21446335.153    -7472047.979 6  -5720461.94921
  20351826.1924  -11011450.21946  -8179669.01061
  18765967.903   -27599677.585 7 -19541334.19523
  21469495.911     2815921.888 5   2194204.16021
  18803984.482    -3532751.979 8  -2700784.65124
 91  5  7 22 17 44.9930000  0  5G15G13G 6G19G 2
  21442660.2084   -7491361.84446  -5735511.68061
  20339567.661   -11075870.872 6  -8229866.72621
  18759697.302   -27632629.492 7 -19567010.98323
  21475124.755     2845491.372 5   2217245.21421
  18801917.036    -3543615.615 8  -2709249.80824
 91  5  7 22 17 59.9930000  0  5G15G13G 6G19G 2
  21439009.513    -7510539.038 6  -5750454.91421
  20327324.8254  -11140201.85046  -8279994.57461
  18753442.419   -27665500.089 7 -19592624.40723
  21480760.7394    2875120.60845   2240332.82561
  18799858.599    -3554428.020 8  -2717675.04824
 91  5  7 22 18 14.9930000  0  5G15G13G 6G19G 2
  21435388.4504   -7529577.73746  -5765290.22761
  20315099.864   -11204441.332 6  -8330051.12121
  18747202.442   -27698287.404 7 -19618172.93623
  21486412.263     2904811.129 5   2263468.17021
  18797812.075    -3565187.402 8  -2726058.97124
 91  5  7 22 18 29.9930000  0  5G15G13G 6G19G 2
  21431786.7864   -7548491.42946  -5780028.14061
  20302891.9974  -11268602.42346  -8380046.58361
  18740977.060   -27731004.914 7 -19643667.07523
  21492068.1924    2934549.28945   2286640.64761
  18795771.872    -3575907.565 8  -2734412.33024
 91  5  7 22 18 44.9930000  0  5G15G13G 6G19G 2
  21428209.8494   -7567283.16546  -5794671.01361
  20290696.1304  -11332688.20246  -8429983.36561
  18734764.5754  -27763655.61047 -19669109.14863
  21497738.2474    2964331.51545   2309847.45761
  18793739.169    -3586591.668 8  -2742737.59124
 91  5  7 22 18 59.9930000  0  5G15G13G 6G19G 2
  21424664.380    -7585926.832 6  -5809198.53021
  20278520.6224  -11396672.11346  -8479840.77161
  18728569.2164  -27796213.06447 -19694478.56463
  21503420.521     2994183.917 5   2333108.96521
  18791716.708    -3597213.505 8  -2751014.33424
 91  5  7 22 19 14.9930000  0  5G15G13G 6G19G 2
  21421142.724    -7604428.543 6  -5823615.43021
  20266362.505   -11460560.148 6  -8529623.47021
  18722389.2554  -27828683.03847 -19719779.81463
  21509113.7784    3024100.05445   2356420.11761
  18789706.591    -3607779.416 8  -2759247.49824
 91  5  7 22 19 29.9930000  0  5G15G13G 6G19G 2
  21417652.044    -7622779.443 6  -5837914.81021
  20254225.3254  -11524343.47346  -8579324.57861
  18716229.1924  -27861056.69147 -19745006.01063
  21514821.232     3054088.558 5   2379787.64721
  18787708.161    -3618280.813 8  -2767430.39324
 91  5  7 22 19 44.9930000  0  5G15G13G 6G19G 2
  21414183.966    -7641005.524 6  -5852116.91921
  20242101.646   -11588047.956 6  -8628964.24721
  18710082.3574  -27893359.93847 -19770177.34563
  21520535.255     3084122.966 5   2403190.96921
  18785717.091    -3628743.982 8  -2775583.49624
 91  5  7 22 19 59.9930000  0  5G15G13G 6G19G 2
  21410742.935    -7659084.624 6  -5866204.52121
  20229999.3024  -11651651.24746  -8678525.06861
  18703953.2164  -27925570.72747 -19795276.62963
  21526265.302     3114225.272 5   2426647.18121
  18783737.4424   -3639146.91948  -2783689.67064
 91  5  7 22 20 14.9930000  0  5G15G13G 6G19G 2
  21407331.7554   -7677010.86146  -5880172.98861
  20217916.2474  -11715147.42746  -8728002.42261
  18697842.1854  -27957683.10647 -19820299.23263
  21532005.950     3144400.901 5   2450160.53421
  18781770.005    -3649483.819 8  -2791744.38124
 91  5  7 22 20 29.9930000  0  5G15G13G 6G19G 2
  21403947.505    -7694788.403 6  -5894025.59721
  20205853.2004  -11778540.12646  -8777399.14861
  18691749.1304  -27989700.60647 -19845247.90263
  21537760.732     3174645.659 5   2473727.76521
  18779816.349    -3659758.776 8  -2799750.82424
 91  5  7 22 20 44.9930000  0  5G15G13G 6G19G 2
  21400588.3884   -7712431.93846  -5907773.80061
  20193806.8174  -11841843.66646  -8826726.38961
  18685670.5674  -28021637.79647 -19870133.99663
  21543525.5604    3204944.64245   2497337.22961
  18777869.4974   -3669986.77948  -2807720.68664
 91  5  7 22 20 59.9930000  0  5G15G13G 6G19G 2
  21397257.771    -7729947.577 6  -5921422.31121
  20181775.0054  -11905064.19446  -8875988.95761
  18679607.4274  -28053500.85247 -19894962.31663
  21549300.5754    3235291.32245   2520983.87461
  18775930.310    -3680174.142 8  -2815658.87924
 91  5  7 22 21 14.9930000  0  5G15G13G 6G19G 2
  21393955.6224   -7747315.84646  -5934956.00161
  20169764.2714  -11968182.03646  -8925171.50961
  18673560.9274  -28085270.36247 -19919717.75063
  21555090.036     3265704.670 5   2544682.45121
  18774003.388    -3690301.744 8  -2823550.50123
 91  5  7 22 21 29.9930000  0  5G15G13G 6G19G 2
  21390675.5674   -7764539.71446  -5948377.17461
  20157772.6694  -12031200.08046  -8974276.29061
  18667532.7554  -28116949.07847 -19944402.43163
  21560889.427     3296181.801 4   2568430.74721
  18772087.4974   -3700372.45348  -2831397.79864
 91  5  7 22 21 44.9930000  0  5G15G13G 6G19G 2
  21387425.599    -7781628.811 6  -5961693.33421
  20145797.6384  -12094127.69746  -9023310.61661
  18661520.3254  -28148546.12647 -19969023.47763
  21566698.0604    3326712.77445   2592220.99461
  18770179.8574   -3710395.91348  -2839208.27564
 91  5  7 22 21 59.9930000  0  5G15G13G 6G19G 2
  21384199.8494   -7798571.23046  -5974895.18561
  20133841.5914  -12156952.88446  -9072265.13361
  18655525.6694  -28180049.84647 -19993571.80363
  21572520.857     3357309.099 5   2616062.15121
  18768283.6534   -3720360.56048  -2846972.92564
 91  5  7 22 22 14.9930000  0  5G15G13G 6G19G 2
  21381000.919    -7815372.586 6  -5987987.13421
  20121905.505   -12219680.844 6  -9121143.88821
  18649547.771   -28211465.257 7 -20018051.31923
  21578356.013     3387965.288 5   2639949.96121
  18766397.7474   -3730271.85948  -2854696.00764
 91  5  7 22 22 29.9930000  0  5G15G13G 6G19G 2
  21377827.864    -7832029.515 6  -6000966.54121
  20109987.927   -12282307.936 6  -9169944.03821
  18643586.1224  -28242788.87747 -20042459.30963
  21584199.1304    3418684.41745   2663886.83461
  18764521.5444   -3740126.65848  -2862375.06064
 91  5  7 22 22 44.9930000  0  5G15G13G 6G19G 2
  21374692.3334   -7848545.28446  -6013835.93861
  20098088.560   -12344837.453 6  -9218668.14821
  18637643.5994  -28274024.06947 -20066798.39363
  21590057.3414    3449462.76945   2687869.83561
  18762656.4894   -3749928.42248  -2870012.78864
 91  5  7 22 22 59.9930000  0  5G15G13G 6G19G 2
  21371572.4744   -7864916.57446  -6026592.76061
  20086208.1224  -12407265.87046  -9267313.51061
  18631717.341   -28305167.270 7 -20091065.79823
  21595926.911     3480303.359 5   2711901.32321
  18760802.0214   -3759673.98048  -2877606.72064
 91  5  7 22 23 14.9930000  0  5G15G13G 6G19G 2
  21368483.013    -7881153.122 6  -6039244.58621
  20074347.2244  -12469602.56146  -9315887.37261
  18625807.919   -28336227.966 7 -20115268.91423
  21601806.3174    3511196.16345   2735973.52061
  18758957.028    -3769373.360 8  -2885164.66324
 91  5  7 22 23 29.9930000  0  5G15G13G 6G19G 2
  21365422.7784   -7897255.22546  -6051791.65561
  20062500.755   -12531847.818 6  -9364390.00021
  18619912.317   -28367206.585 7 -20139408.07623
  21607691.7714    3542140.51845   2760085.89261
  18757119.0444   -3779026.96448  -2892686.94964
 91  5  7 22 23 44.9930000  0  5G15G13G 6G19G 2
  21362381.325    -7913223.809 6  -6064234.67121
  20050674.4354  -12594002.43046  -9412821.98461
  18614032.310   -28398103.857 7 -20163483.85023
  21613591.8804    3573135.44444   2784237.64661
  18755290.7474   -3788635.74248  -2900174.30064
 91  5  7 22 23 59.9930000  0  5G15G13G 6G19G 2
  21359367.357    -7929057.921 6  -6076572.92121
  20038862.732   -12656065.049 6  -9461182.29721
  18608167.880   -28428918.366 7 -20187495.13223
  21619500.013     3604181.808 4   2808429.47821
  18753472.1694   -3798198.66048  -2907625.91864
 91  5  7 22 24 14.9930000  0  5G15G13G 6G19G 2
  21356384.9894   -7944754.66346  -6088804.10661
  20027071.0284  -12718032.77446  -9509468.67161
  18602320.185   -28459647.082 7 -20211439.56623
  21625418.6924    3635282.21145   2832663.44961
  18751660.6224   -3807713.28048  -2915039.89964
 91  5  7 22 24 29.9930000  0  5G15G13G 6G19G 2
  21353422.208    -7960315.494 6  -6100929.41621
  20015297.185   -12779906.845 6  -9557682.07121
  18596488.747   -28490291.595 7 -20235318.38323
  21631342.6224    3666434.71544   2856937.98761
  18749857.8574   -3817181.32348  -2922417.58964
 91  5  7 22 24 44.9930000  0  5G15G13G 6G19G 2
  21350487.1224   -7975732.89746  -6112942.93861
  20003541.271   -12841679.392 6  -9605816.35521
  18590675.278   -28520843.830 7 -20259125.30523
  21637287.060     3697646.774 4   2881258.93721
  18748067.3644   -3826594.99248  -2929752.91164
 91  5  7 22 24 59.9930000  0  5G15G13G 6G19G 2
  21347579.2784   -7991005.45746  -6124843.60561
  19991805.5994  -12903348.63746  -9653870.15061
  18584878.364   -28551302.379 7 -20282859.21623
  21643235.224     3728919.568 4   2905627.21621
  18746286.1384   -3835952.90648  -2937044.78364
 91  5  7 22 25 14.9930000  0  5G15G13G 6G19G 2
  21344697.2164   -8006137.84946  -6136635.05161
  19980089.474   -12964919.181 6  -9701847.03621
  18579100.427   -28581671.683 7 -20306523.58923
  21649196.982     3760248.162 4   2930038.98621
  18744516.1074   -3845259.88048  -2944296.96364
 91  5  7 22 25 29.9930000  0  5G15G13G 6G19G 2
  21341845.4824   -8021139.63646  -6148324.71161
  19968391.0444  -13026400.44646  -9749754.35461
  18573335.927   -28611961.031 7 -20330125.66123
  21655167.3494    3791622.65044   2954486.50861
  18742751.8724   -3854525.80848  -2951517.16364
 91  5  7 22 25 44.9930000  0  5G15G13G 6G19G 2
  21339018.5054   -8036006.49146  -6159909.23761
  19956709.278   -13087787.941 6  -9797588.60621
  18567587.919   -28642166.194 7 -20353662.13323
  21661149.3174    3823047.20444   2978973.02661
  18740997.9424   -3863746.46248  -2958702.08564
 91  5  7 22 25 59.9930000  0  5G15G13G 6G19G 2
  21336212.474    -8050731.325 6  -6171383.09921
  19945045.232   -13149074.198 6  -9845343.96521
  18561856.833   -28672279.929 7 -20377127.36223
  21667139.528     3854528.571 4   3003503.81921
  18739252.7784   -3872914.78648  -2965846.22864
 91  5  7 22 26 14.9930000  0  5G15G13G 6G19G 2
  21333440.4424   -8065312.13146  -6182744.73661
  19933402.3644  -13210257.27346  -9893018.93561
  18556144.333   -28702299.950 7 -20400519.57023
  21673142.607     3886068.480 4   3028080.25621
  18737518.5674   -3882028.95948  -2972948.17464
 91  5  7 22 26 29.9930000  0  5G15G13G 6G19G 2
  21330690.7714   -8079756.42546  -6194000.00361
  19921778.9974  -13271344.35546  -9940619.10761
  18550449.005   -28732233.489 7 -20423844.38623
  21679157.0604    3917659.19644   3052696.24961
  18735793.7474   -3891096.66748  -2980013.91764
 91  5  7 22 26 44.9930000  0  5G15G13G 6G19G 2
  21327970.489    -8094060.315 6  -6205145.85121
  19910172.1614  -13332331.55046  -9988141.44661
  18544770.536   -28762076.657 7 -20447098.78423
  21685176.091     3949304.595 4   3077354.86221
  18734076.4584   -3900114.09748  -2987040.47964
 91  5  7 22 26 59.9930000  0  5G15G13G 6G19G 2
  21325274.4354   -8108209.88746  -6216171.45361
  19898588.825   -13393204.429 6 -10035574.70021
  18539110.232   -28791815.126 7 -20470271.60123
  21691210.794     3981018.380 4   3102066.75321
  18732374.6614   -3909067.11848  -2994016.85064
 91  5  7 22 27 14.9930000  0  5G15G13G 6G19G 2
  21322610.6224   -8122210.64246  -6227081.09961
  19887025.3804  -13453968.42146 -10082923.10761
  18533470.614   -28821454.544 7 -20493367.23123
  21697257.755     4012794.576 4   3126827.30721
  18730681.7474   -3917961.62248  -3000947.62864
 91  5  7 22 27 29.9930000  0  5G15G13G 6G19G 2
  21319974.4824   -8136080.25346  -6237888.55661
  19875479.5284  -13514641.00746 -10130200.30161
  18527845.935   -28851012.224 7 -20516399.16823
  21703310.513     4044615.225 4   3151622.46121
  18728995.5994   -3926815.14648  -3007846.47164
 91  5  7 22 27 44.9930000  0  5G15G13G 6G19G 2
  21317362.677    -8149799.500 6  -6248578.82821
  19863955.2554  -13575202.77446 -10177391.13661
  18522239.708   -28880468.665 7 -20539352.21923
  21709381.372     4076499.364 4   3176467.10721
  18727323.3174   -3935608.72748  -3014698.60464
 91  5  7 22 27 59.9930000  0  5G15G13G 6G19G 2
  21314777.1854   -8163384.80646  -6259164.75561
  19852448.607   -13635669.928 6 -10224508.24821
  18516652.161   -28909840.017 7 -20562238.96223
  21715454.9504    4108430.38545   3201348.27061
  18725657.2554   -3944358.93048  -3021516.93564
 91  5  7 22 28 14.9930000  0  5G15G13G 6G19G 2
  21312217.278    -8176824.712 6  -6269637.36621
  19840962.7164  -13696030.59846 -10271542.39061
  18511080.255   -28939114.865 7 -20585050.51123
  21721542.263     4140419.644 4   3226274.83921
  18724003.3414   -3953054.26148  -3028292.50764
 91  5  7 22 28 29.9930000  0  5G15G13G 6G19G 2
  21309685.177    -8190127.826 6  -6280003.38721
  19829495.778   -13756293.414 6 -10318500.27921
  18505526.661   -28968301.746 7 -20607793.51523
  21727640.1144    4172458.01645   3251239.64161
  18722357.9114   -3961703.59548  -3035032.24064
 91  5  7 22 28 44.9930000  0  5G15G13G 6G19G 2
  21307181.3104   -8203287.67446  -6290257.78061
  19818047.0524  -13816451.59146 -10365376.63061
  18499992.083   -28997393.691 7 -20630462.54123
  21733746.567     4204551.921 4   3276247.74521
  18720721.4034   -3970300.34448  -3041730.99864
 91  5  7 22 28 59.9930000  0  5G15G13G 6G19G 2
  21304705.8964   -8216305.20646  -6300401.27961
  19806617.7474  -13876505.98546 -10412172.10861
  18494472.114   -29026391.555 7 -20653058.25623
  21739862.2324    4236700.08044   3301298.12661
  18719095.0994   -3978845.67648  -3048389.69364
 91  5  7 22 29 14.9930000  0  5G15G13G 6G19G 2
  21302260.1854   -8229177.51146  -6310431.61761
  19795211.935   -13936453.507 6 -10458884.32621
  18488971.575   -29055292.371 7 -20675578.35023
  21745997.3334    4268905.14745   3326392.84261
  18717479.6774   -3987336.83448  -3055006.17164
 91  5  7 22 29 29.9930000  0  5G15G13G 6G19G 2
  21299836.1384   -8241903.68046  -6320348.07661
  19783824.286   -13996293.026 6 -10505512.37821
  18483491.380   -29084094.897 7 -20698021.85923
  21752130.536     4301168.058 4   3351532.62821
  18715873.2864   -3995772.78148  -3061579.62864
 91  5  7 22 29 44.9930000  0  5G15G13G 6G19G 2
  21297440.9974   -8254485.52246  -6330152.07661
  19772457.607   -14056025.763 6 -10552057.22821
  18478029.075   -29112800.637 7 -20720389.94223
  21758281.880     4333486.944 4   3376716.04921
  18714279.6924   -4004155.32948  -3068111.47564
 91  5  7 22 29 59.9930000  0  5G15G13G 6G19G 2
  21295074.4744   -8266920.39946  -6339841.55861
  19761110.3574  -14115649.09646 -10598516.81761
  18472586.192   -29141406.731 7 -20742680.39023
  21764443.7944    4365864.12544   3401944.85961
  18712694.1224   -4012482.13748  -3074599.89364
 91  5  7 22 30 14.9930000  0  5G15G13G 6G19G 2
  21292736.1924   -8279216.19946  -6349422.66361
  19749783.817   -14175170.885 6 -10644897.29521
  18467159.810   -29169921.051 7 -20764899.32023
  21770614.942     4398291.346 4   3427212.71321
  18711119.1384   -4020761.13048  -3081051.04864
 91  5  7 22 30 29.9930000  0  5G15G13G 6G19G 2
  21290417.232    -8291370.425 6  -6358893.46121
  19738476.7084  -14234588.10146 -10691196.29061
  18461751.302   -29198340.748 7 -20787044.51923
  21776797.864     4430770.947 4   3452521.31821
  18709553.4034   -4028989.70248  -3087462.91664
 91  5  7 22 30 44.9930000  0  5G15G13G 6G19G 2
  21288137.8804   -8303385.51046  -6368255.83761
  19727190.9504  -14293903.06646 -10737415.60661
  18456360.966   -29226668.029 7 -20809117.70623
  21782986.8104    4463300.18544   3477868.61761
  18707995.3334   -4037170.61548  -3093837.64564
 91  5  7 22 30 59.9930000  0  5G15G13G 6G19G 2
  21285873.2634   -8315268.52246  -6377515.29661
  19715920.935   -14353122.553 6 -10783560.52121
  18450985.458   -29254909.954 7 -20831124.38223
  21789183.3254    4495871.62044   3503248.82761
  18706448.4894   -4045311.00348  -3100180.79464
 91  5  7 22 31 14.9930000  0  5G15G13G 6G19G 2
  21283641.5674   -8326998.49546  -6386655.50161
  19704672.958   -14412225.583 6 -10829614.69221
  18445632.521   -29283045.611 7 -20853048.24923
  21795398.2244    4528506.02144   3528678.09961
  18704910.5754   -4053390.18448  -3106476.25264
 91  5  7 22 31 29.9930000  0  5G15G13G 6G19G 2
  21281440.552    -8338584.940 6  -6395683.85421
  19693447.427   -14471221.321 6 -10875585.26921
  18440296.552   -29311083.919 7 -20874896.26323
  21801616.716     4561193.911 3   3554149.00921
  18703381.8574   -4061417.26848  -3112731.11564
 91  5  7 22 31 44.9930000  0  5G15G13G 6G19G 2
  21279261.2004   -8350024.37146  -6404597.66961
  19682241.630   -14530106.039 6 -10921469.32121
  18434979.872   -29339021.141 7 -20896665.50923
  21807849.8334    4593938.65044   3579664.23461
  18701865.7244   -4069388.85348  -3118942.72864
 91  5  7 22 31 59.9930000  0  5G15G13G 6G19G 2
  21277106.810    -8361318.163 6  -6413398.00021
  19671058.802   -14588880.845 6 -10967267.74321
  18429683.403   -29366858.407 7 -20918356.86123
  21814089.263     4626738.236 4   3605222.22121
  18700358.8644   -4077306.53448  -3125112.34164
 91  5  7 22 32 14.9930000  0  5G15G13G 6G19G 2
  21274988.0834   -8372461.24446  -6422080.89261
  19659893.0834  -14647540.67046 -11012976.56661
  18424406.442   -29394590.680 7 -20939966.40823
  21820343.911     4659597.571 4   3630826.73921
  18698863.7784   -4085165.37548  -3131236.10764
 91  5  7 22 32 29.9930000  0  5G15G13G 6G19G 2
  21272896.974    -8383457.453 6  -6430649.34021
  19648751.9824  -14706088.73946 -11058598.31261
  18419148.325   -29422221.441 7 -20961496.85023
  21826607.583     4692512.989 4   3656474.97921
  18697378.7864   -4092969.03748  -3137316.87964
 91  5  7 22 32 44.9930000  0  5G15G13G 6G19G 2
  21270832.239    -8394315.416 6  -6439110.05521
  19637630.919   -14764533.457 6 -11104139.51221
  18413908.403   -29449759.014 7 -20982954.68223
  21832882.2324    4725475.50744   3682159.88861
  18695901.9824   -4100726.27748  -3143361.47564
 91  5  7 22 32 59.9930000  0  5G15G13G 6G19G 2
  21268790.8334   -8405031.93546  -6447460.55761
  19626529.239   -14822872.051 6 -11149598.02121
  18408685.677   -29477200.281 7 -21004337.46823
  21839159.8644    4758487.79644   3707883.59661
  18694435.0284   -4108434.22548  -3149367.66164
 91  5  7 22 33 14.9920000  0  5G15G13G 6G19G 2
  21266778.1334   -8415601.96446  -6455696.91161
  19615449.6644  -14881095.69046 -11194966.96261
  18403482.258   -29504538.702 7 -21025640.11823
  21845452.078     4791552.097 4   3733647.84521
  18692980.1954   -4116087.88648  -3155331.54464
 91  5  7 22 33 29.9920000  0  5G15G13G 6G19G 2
  21264793.5164   -8426037.59046  -6463828.53661
  19604388.2974  -14939222.63646 -11240260.55861
  18398297.969   -29531788.300 7 -21046873.55023
  21851754.203     4824662.024 4   3759447.64521
  18691530.6884   -4123698.96648  -3161262.24964
 91  5  7 22 33 44.9920000  0  5G15G13G 6G19G 2
  21262835.6494   -8436334.40146  -6471851.99161
  19593347.4454  -14997245.02246 -11285472.67461
  18393130.742   -29558943.417 7 -21068033.36423
  21858064.7744    4857818.65444   3785283.81861
  18690090.6954   -4131263.39648  -3167156.60864
 91  5  7 22 33 59.9920000  0  5G15G13G 6G19G 2
  21260908.4304   -8446474.96946  -6479753.69961
  19582328.844   -15055145.278 6 -11330589.63421
  18387985.219   -29585986.385 7 -21089105.78923
  21864388.617     4891039.148 4   3811169.75121
  18688663.9924   -4138763.88348  -3173001.13564
 91  5  7 22 34 14.9920000  0  5G15G13G 6G19G 2
  21259000.9224   -8456472.86446  -6487544.22761
  19571332.2034  -15112936.83746 -11375621.88861
  18382856.516   -29612930.851 7 -21110101.45723
  21870715.508     4924309.768 4   3837094.74121
  18687246.6724   -4146213.93648  -3178806.36664
 91  5  7 22 34 29.9920000  0  5G15G13G 6G19G 2
  21257131.149    -8466326.592 6  -6495222.43221
  19560354.8444  -15170617.96046 -11420568.09861
  18377749.438   -29639774.848 7 -21131018.84123
  21877055.3054    4957631.88144   3863059.90261
  18685836.6954   -4153612.06048  -3184571.13564
 91  5  7 22 34 44.9920000  0  5G15G13G 6G19G 2
  21255279.422    -8476038.519 6  -6502790.13321
  19549398.7194  -15228190.57546 -11465429.75161
  18372659.102   -29666520.366 7 -21151859.48923
  21883407.4614    4991002.96344   3889063.16861
  18684440.8204   -4160960.69648  -3190297.34064
 91  5  7 22 34 59.9920000  0  5G15G13G 6G19G 2
  21253460.1954   -8485600.07145  -6510240.66161
  19538465.6094  -15285645.77846 -11510199.91961
  18367590.961   -29693158.549 7 -21172616.49823
  21889768.1884    5024431.40344   3915111.13361
  18683052.3834   -4168251.42848  -3195978.43264
 91  5  7 22 35 14.9920000  0  5G15G13G 6G19G 2
  21251668.9614   -8495007.07446  -6517570.75761
  19527556.7274  -15342979.13946 -11554875.14661
  18362542.242   -29719685.275 7 -21193286.66023
  21896138.0864    5057921.07543   3941206.82761
  18681677.2424   -4175479.99148  -3201611.07664
 91  5  7 22 35 29.9920000  0  5G15G13G 6G19G 2
  21249907.578    -8504273.903 6  -6524791.62921
  19516666.102   -15400204.879 6 -11599466.49421
  18357513.281   -29746114.537 7 -21213880.87323
  21902525.2664    5091457.57043   3967339.00961
  18680310.6804   -4182660.65448  -3207206.39264
 91  5  7 22 35 44.9920000  0  5G15G13G 6G19G 2
  21248165.945    -8513414.645 6  -6531914.24621
  19505792.9304  -15457337.05746 -11643984.95961
  18352499.656   -29772460.154 7 -21234409.91123
  21908914.5004    5125026.44143   3993496.39161
  18678949.8754   -4189807.72348  -3212775.53964
 91  5  7 22 35 59.9920000  0  5G15G13G 6G19G 2
  21246453.1724   -8522407.32746  -6538921.49261
  19494943.0314  -15514353.52646 -11688413.25261
  18347506.899   -29798700.051 7 -21254856.56723
  21915308.930     5158649.413 3   4019695.92621
  18677600.7974   -4196899.11148  -3218301.29564
 91  5  7 22 36 14.9920000  0  5G15G13G 6G19G 2
  21244770.5314   -8531256.35146  -6545816.80661
  19484115.0474  -15571258.34746 -11732754.55261
  18342531.781   -29824838.478 7 -21275224.15723
  21921715.8204    5192322.04843   4045934.18161
  18676261.9384   -4203939.45648  -3223787.27564
 91  5  7 22 36 29.9920000  0  5G15G13G 6G19G 2
  21243113.109    -8539971.941 6  -6552608.13721
  19473305.7194  -15628061.27546 -11777016.45261
  18337576.109   -29850885.351 7 -21295520.40523
  21928136.633     5226033.820 3   4072202.92521
  18674929.2114   -4210939.01048  -3229241.47464
 91  5  7 22 36 44.9920000  0  5G15G13G 6G19G 2
  21241481.977    -8548556.913 6  -6559297.68521
  19462515.3994  -15684765.17846 -11821201.18661
  18332635.961   -29876843.138 7 -21315747.23223
  21934552.6494    5259781.70142   4098499.81961
  18673604.4614   -4217900.53448  -3234666.03864
 91  5  7 22 36 59.9920000  0  5G15G13G 6G19G 2
  21239873.820    -8556988.894 6  -6565868.01721
  19451747.3364  -15741347.35746 -11865291.07861
  18327717.430   -29902689.378 7 -21335887.14223
  21940987.570     5293587.859 3   4124842.09821
  18672292.2584   -4224801.79648  -3240043.64264
 91  5  7 22 37 14.9920000  0  5G15G13G 6G19G 2
  21238300.461    -8565273.257 6  -6572323.33921
  19441002.3364  -15797812.95846 -11909290.12761
  18322820.500   -29928429.207 7 -21355944.13723
  21947427.969     5327446.866 2   4151225.58321
  18670988.4614   -4231647.86448  -3245378.24264
 91  5  7 22 37 29.9920000  0  4G15G13G 6G 2
  21236748.6024   -8573407.28746  -6578661.50961
  19430280.570   -15854158.796 6 -11953195.85721
  18317943.203   -29954059.234 7 -21375915.57023
  18669697.1024   -4238436.03048  -3250667.71864
 91  5  7 22 37 44.9920000  0  5G15G13G 6G19G 2
  21235225.438    -8581406.585 6  -6584894.69521
  19419577.8284  -15910400.49146 -11997020.43561
  18313083.305   -29979595.367 7 -21395813.83823
  21960346.4614         -0.36353
  18668412.7194   -4245182.12448  -3255924.41664
 91  5  7 22 37 59.9920000  0  5G15G13G 6G19G 2
  21233735.6564   -8589262.94946  -6591016.51861
  19408897.750   -15966529.626 6 -12040757.30821
  18308243.508   -30005028.912 7 -21415632.16923
  21966816.992       34001.256 3
  18667138.4774   -4251878.02548  -3261142.00164
 91  5  7 22 38 14.9920000  0  5G15G13G 6G19G 2
  21232266.7974   -8596977.87146  -6597028.11561
  19398236.797   -16022547.453 6 -12084407.45421
  18303422.680   -30030361.240 7 -21435371.63323
  21973293.899       68048.758 3
  18665874.5634   -4258525.24248  -3266321.64964
 91  5  7 22 38 29.9920000  0  5G15G13G 6G19G 2
  21230826.4064   -8604534.90746  -6602916.68961
  19387602.055   -16078437.259 6 -12127957.83921
  18298624.383   -30055575.656 7 -21455019.21423
  21979785.211      102158.327 3
  18664621.5084   -4265107.27948  -3271450.51264
 91  5  7 22 38 44.9920000  0  5G15G13G 6G19G 2
  21229422.0084   -8611946.76146  -6608692.13461
  19376989.297   -16134211.370 6 -12171418.07821
  18293846.414   -30080684.424 7 -21474584.46923
  21986287.3914     136317.39844        -0.05071
  18663378.8204   -4271636.76548  -3276538.42264
 91  5  7 22 38 59.9920000  0  5G15G13G 6G19G 2
  21228035.3204   -8619207.77346  -6614350.03161
  19366397.344   -16189864.284 6 -12214783.87721
  18289089.500   -30105681.982 7 -21494063.06923
  21992800.4614     170530.90744     26659.64261
  18662148.6024   -4278108.41748  -3281581.26764
 91  5  7 22 39 14.9920000  0  5G15G13G 6G19G 2
  21226683.391    -8626318.443 6  -6619890.79921
  19355830.7814  -16245396.01546 -12258055.24661
  18284353.750   -30130568.418 7 -21513455.07923
  21999319.6804     204798.41644     53361.45661
  18660926.2664   -4284522.62548  -3286579.34664
 91  5  7 22 39 29.9920000  0  5G15G13G 6G19G 2
  21225355.1094   -8633285.13646  -6625319.36061
  19345284.945   -16300812.613 6 -12301236.90621
  18279637.867   -30155349.884 7 -21532765.29823
  22005848.563      239113.526 4     80100.32921
  18659715.6254   -4290885.59348  -3291537.50264
 91  5  7 22 39 44.9920000  0  5G15G13G 6G19G 2
  21224055.328    -8640116.588 6  -6630642.55421
  19334759.6884  -16356122.39946 -12344335.34061
  18274940.125   -30180034.581 7 -21552000.11223
  22012389.563      273467.353 4    106869.36021
  18658513.0394   -4297205.73348  -3296462.28964
 91  5  7 22 39 59.9920000  0  5G15G13G 6G19G 2
  21222786.7034   -8646797.76146  -6635848.64661
  19324257.5004  -16411310.25646 -12387338.75961
  18270264.680   -30204607.335 7 -21571147.69423
  22018933.2034     307874.69644    133680.10461
  18657321.5474   -4303468.25148  -3301342.16764
 91  5  7 22 40 14.9920000  0  5G15G13G 6G19G 2
  21221543.328    -8653333.648 6  -6640941.52221
  19313778.313   -16466381.081 6 -12430250.99321
  18265608.625   -30229073.108 7 -21590211.91723
  22025492.766      342330.216 4    160528.38821
  18656139.4534   -4309678.24848  -3306181.12764
 91  5  7 22 40 29.9920000  0  5G15G13G 6G19G 2
  21220321.5554   -8659735.02646  -6645929.60061
  19303317.8914  -16521345.35546 -12473080.20561
  18260971.352   -30253442.216 7 -21609200.82023
  22032057.672      376823.091 4    187405.74921
  18654965.8364   -4315846.44848  -3310987.51764
 91  5  7 22 40 44.9920000  0  5G15G13G 6G19G 2
  21219130.3524   -8665990.69246
  19292880.3524  -16576191.93046 -12515817.70561
  18256355.774   -30277703.650 7 -21628105.81823
  22038626.961      411363.973 3    214320.57021
  18653802.5314   -4321961.91648
 91  5  7 22 40 59.9920000  0  5G15G13G 6G19G 2
  21217969.891    -8672103.159 6
  19282465.4694  -16630922.46646 -12558464.78261
  18251757.891   -30301859.280 7 -21646928.37823
  22045211.0864     445950.55444    241270.95361
  18652648.7274   -4328026.85248
 91  5  7 22 41 14.9920000  0  4G15G13G 6G 2
  21216831.3284   -8678083.91046
  19272072.2504  -16685548.44146 -12601030.38461
  18247179.383   -30325920.314 7 -21665677.21923
  18651502.1334   -4334052.76248
 91  5  7 22 41 29.9920000  0  4G15G13G 6G 2
  21215715.3204   -8683938.04746  -6664789.54761
  19261694.7034  -16740075.02046 -12643518.54361
  18242618.984   -30349891.818 7 -21684356.30023
  18650361.2814   -4340045.06448  -3329843.57664
 91  5  7 22 41 44.9920000  0  4G15G13G 6G 2
  21214631.6564   -8689644.49546  -6669236.12561
  19251341.8054  -16794480.63146 -12685912.43261
  18238078.445   -30373752.563 7 -21702949.07423
  18649231.5474   -4345982.53048  -3334470.17264
 91  5  7 22 41 59.9920000  0  4G15G13G 6G 2
  21213576.711    -8695201.796 6  -6673566.47821
  19241012.0004  -16848763.50446 -12728210.68761
  18233558.484   -30397500.518 7 -21721453.96023
  18648112.3754   -4351863.55148  -3339052.78564
 91  5  7 22 42 14.9920000  0  4G15G13G 6G 2
  21212545.5164   -8700600.76846  -6677773.45261
  19230709.2744  -16902914.27846 -12770406.00361
  18229062.133   -30421126.372 7 -21739863.70023
  18647004.6334   -4357679.02648  -3343584.31764
 91  5  7 22 42 29.9920000  0  4G15G13G 6G 2
  21211543.813    -8705864.951 6  -6681875.39921
  19220423.3054  -16956956.32146 -12812516.58561
  18224584.336   -30444653.445 7 -21758196.47023
  18645906.7344   -4363452.42748  -3348083.07064
 91  5  7 22 42 44.9920000  0  4G15G13G 6G 2
  21210574.906    -8710982.205 6  -6685862.84121
  19210162.4224  -17010876.99646 -12854532.60761
  18220129.992   -30468069.101 7 -21776442.42023
  18644818.3054   -4369171.44848  -3352539.44664
 91  5  7 22 42 59.9920000  0  4G15G13G 6G 2
  21209621.1334   -8715956.37946  -6689738.81361
  19199923.8054  -17064679.80246 -12896456.78761
  18215694.391   -30491376.869 7 -21794604.30123
  18643739.3834   -4374839.90048  -3356956.42264
 91  5  7 22 43 14.9920000  0  4G15G13G 6G 2
  21208705.125    -8720794.194 6  -6693508.51621
  19189707.3364  -17118371.40146 -12938294.31061
  18211278.055   -30514583.458 7 -21812687.34723
  18642669.3994   -4380464.61848  -3361339.31564
 91  5  7 22 43 29.9920000  0  4G15G13G 6G 2
  21207809.047    -8725489.677 6  -6697167.32321
  19179513.1804  -17171945.59646 -12980040.34261
  18206881.399   -30537682.465 7 -21830686.56023
  18641609.0244   -4386039.69248  -3365683.52564
 91  5  7 22 43 44.9920000  0  4G15G13G 6G 2
  21206948.234    -8730035.477 6  -6700709.47721
  19169340.7504  -17225394.83146 -13021689.01661
  18202508.445   -30560666.483 7 -21848596.17223
  18640558.4534   -4391557.71148  -3369983.27864
 91  5  7 22 43 59.9920000  0  4G15G13G 6G 2
  21206110.274    -8734447.806 6  -6704147.63721
  19159190.9694  -17278735.35446 -13063252.96761
  18198154.1494  -30583551.55147 -21866428.68063
  18639516.2664   -4397034.88148  -3374251.19864
 91  5  7 22 44 14.9920000  0  4G15G13G 6G 2
  21205289.8364   -8738721.53546  -6707477.79361
  19149061.391   -17331961.504 6 -13104727.80721
  18193820.109   -30606331.927 7 -21884179.60923
  18638482.8364   -4402465.89548  -3378483.15364
 91  5  7 22 44 29.9920000  0  4G15G13G 6G 2
  21204502.117    -8742866.462 6  -6710707.58321
  19138952.711   -17385082.855 6 -13146120.98421
  18189501.633   -30629017.345 7 -21901856.54523
  18637457.0394   -4407860.49048  -3382686.73164
 91  5  7 22 44 44.9920000  0  4G15G13G 6G 2
  21203738.414    -8746877.339 6  -6713832.93021
  19128865.0164  -17438093.79046 -13187428.12061
  18185203.570   -30651602.275 7 -21919455.17623
  18636438.9614   -4413213.47348  -3386857.88264
 91  5  7 22 44 59.9920000  0  4G15G13G 6G 2
  21203001.9534   -8750758.44446  -6716857.14261
  19118798.6254  -17490998.48346 -13228652.47561
  18180924.852   -30674090.751 7 -21936978.64623
  18635426.6334   -4418529.18748  -3391000.00064
 91  5  7 22 45 14.9920000  0  4G15G13G 6G 2
  21202290.734    -8754501.169 6  -6719773.52921
  19108751.805   -17543787.803 6 -13269786.92221
  18176665.852   -30696473.612 7 -21954419.81723
  18634423.4844   -4423798.76248  -3395106.16364
 91  5  7 22 45 29.9920000  0  4G15G13G 6G 2
  21201607.149    -8758094.668 6  -6722573.65221
  19098732.141   -17596450.782 7 -13310822.93121
  18172429.031   -30718740.028 7 -21971770.25423
  18633430.8364   -4429011.54448  -3399168.07264
 91  5  7 22 45 44.9920000  0  4G15G13G 6G 2
  21200946.531    -8761545.601 6  -6725262.67221
  19088733.164   -17648993.943 7 -13351765.57421
  18168212.492   -30740896.260 7 -21989034.83923
  18632448.4304   -4434174.05548  -3403190.81164
 91  5  7 22 45 59.9920000  0  4G15G13G 6G 2
  21200316.563    -8764859.453 6  -6727844.87521
  19078755.461   -17701422.484 7 -13392618.89921
  18164016.031   -30762947.552 7 -22006217.65523
  18631475.3054   -4439291.84848  -3407178.70164
 91  5  7 22 46 14.9920000  0  4G15G13G 6G 2
  21199714.633    -8768037.556 6  -6730321.30521
  19068799.375   -17753737.467 7 -13433383.74521
  18159839.5474  -30784895.11647 -22023319.64363
  18630509.6644   -4444366.02248  -3411132.60264
 91  5  7 22 46 29.9920000  0  4G15G13G 6G 2
  21199138.781    -8771069.720 6  -6732684.01321
  19058869.164   -17805928.708 7 -13474052.16221
  18155684.625   -30806728.443 7 -22040332.61123
  18629553.7114   -4449386.53548  -3415044.68764
 91  5  7 22 46 44.9920000  0  4G15G13G 6G 2
  21198580.906    -8773964.778 6  -6734939.89121
  19048958.820   -17858004.702 7 -13514630.78021
  18151549.8914  -30828456.13047 -22057263.26963
  18628608.4844   -4454362.25048  -3418921.86364
 91  5  7 22 46 59.9920000  0  4G15G13G 6G 2
  21198060.211    -8776729.823 6  -6737094.46321
  19039070.820   -17909972.111 7 -13555124.78221
  18147433.2114  -30850084.91847 -22074116.85763
  18627667.7814   -4459299.95648  -3422769.42864
 91  5  7 22 47 14.9920000  0  4G15G13G 6G 2
  21197557.9454   -8779359.93646  -6739143.88861
  19029201.945   -17961825.691 7 -13595530.08821
  18143337.9844  -30871609.55747 -22090889.29363
  18626736.1174   -4464194.81248  -3426583.59764
 91  5  7 22 47 29.9920000  0  4G15G13G 6G 2
  21197085.1024   -8781857.43746  -6741089.98061
  19019356.320   -18013567.661 7 -13635848.42221
  18139261.336   -30893031.981 7 -22107582.07823
  18625811.4454   -4469049.00548  -3430366.08464
 91  5  7 22 47 44.9920000  0  4G15G13G 6G 2
  21196631.180    -8784221.192 5  -6742931.85421
  19009530.680   -18065196.523 7 -13676078.62421
  18135204.336   -30914350.764 7 -22124194.10323
  18624896.5394   -4473861.14548  -3434115.80264
 91  5  7 22 47 59.9920000  0  4G15G13G 6G 2
  21196215.4064   -8786442.27546  -6744662.56361
  18999729.117   -18116703.104 7 -13716213.54021
  18131169.250   -30935556.799 7 -22140718.27523
  18623990.3594   -4478622.51848  -3437825.96264
 91  5  7 22 48 14.9920000  0  4G15G13G 6G 2
  21195813.703    -8788536.826 6  -6746294.66621
  18989948.289   -18168103.296 7 -13756265.55621
  18127152.781   -30956665.970 7 -22157166.96723
  18623091.2894   -4483349.24248  -3441509.12264
 91  5  7 22 48 29.9920000  0  4G15G13G 6G 2
  21195438.961    -8790505.680 5  -6747828.82321
  18980188.289   -18219397.592 7 -13796235.05821
  18123153.258   -30977678.774 7 -22173540.56423
  18622197.8134   -4488041.99948  -3445165.81964
 91  5  7 22 48 44.9920000  0  4G15G13G 6G 2
  21195091.328    -8792323.421 5  -6749245.23121
  18970450.930   -18270560.369 7 -13836102.08021
  18119178.633   -30998569.596 7 -22189819.11823
  18621317.1954   -4492675.36848  -3448776.24064
 91  5  7 22 48 59.9920000  0  4G15G13G 6G 2
  21194769.2584   -8794009.98845  -6750559.44161
  18960735.938   -18321611.599 7 -13875882.18421
  18115222.656   -31019357.955 7 -22206017.82223
  18620442.9064   -4497269.21648  -3452355.86564
 91  5  7 22 49 14.9920000  0  4G15G13G 6G 2
  21194475.7034   -8795562.04345  -6751768.82261
  18951043.172   -18372547.564 7 -13915572.46621
  18111286.031   -31040040.491 7 -22222134.07223
  18619576.7814   -4501820.16948  -3455902.06264
 91  5  7 22 49 29.9920000  0  4G15G13G 6G 2
  21194205.227    -8796987.362 5  -6752879.44721
  18941371.899   -18423375.681 7 -13955178.71721
  18107369.906   -31060624.552 7 -22238173.58323
  18618716.8594   -4506335.88848  -3459420.80264
 91  5  7 22 49 44.9920000  0  4G15G13G 6G 2
  21193956.9844   -8798277.02945  -6753884.38761
  18931721.344   -18474086.716 7 -13994693.73221
  18103473.867   -31081100.938 7 -22254129.19623
  18617866.1094   -4510807.18348  -3462904.93264
 91  5  7 22 49 59.9920000  0  4G15G13G 6G 2
  21193738.1334   -8799438.02946  -6754789.04961
  18922091.563   -18524687.658 7 -14034122.96121
  18099595.344   -31101476.523 7 -22270006.26023
  18617022.6724   -4515241.40048  -3466360.16064
 91  5  7 22 50 14.9920000  0  4G15G13G 6G 2
  21193543.149    -8800463.299 5  -6755587.94521
  18912485.391   -18575170.952 7 -14073460.51421
  18095739.289   -31121743.704 7 -22285798.85723
  18616187.1644   -4519631.20048  -3469780.78264
 91  5  7 22 50 29.9920000  0  4G15G13G 6G 2
  21193375.274    -8801359.763 5  -6756286.46921
  18902899.664   -18625543.359 7 -14112711.66221
  18091902.758   -31141909.335 7 -22301512.32523
  18615358.6334   -4523983.58548  -3473172.25164
 91  5  7 22 50 44.9920000  0  4G15G13G 6G 2
  21193229.664    -8802120.084 5  -6756878.92421
  18893336.602   -18675797.277 7 -14151870.48421
  18088085.461   -31161965.502 7 -22317140.49323
  18614538.2814   -4528290.97048  -3476528.65064
 91  5  7 22 50 59.9920000  0  4G15G13G 6G 2
  21193105.4454   -8802752.94246  -6757372.04961
  18883795.070   -18725941.123 7 -14190943.53321
  18084286.8134  -31181920.66747 -22332689.96163
  18613726.6334   -4532561.96748  -3479856.69864
 91  5  7 22 51 14.9920000  0  4G15G13G 6G 2
  21193015.0474   -8803245.13646  -6757755.55861
  18874277.039   -18775961.351 7 -14229920.25821
  18080511.8054  -31201761.43047 -22348150.28463
  18612922.8134   -4536783.11248  -3483145.89764
 91  5  7 22 51 29.9920000  0  4G15G13G 6G 2
  21192943.453    -8803609.118 6  -6758039.15821
  18864777.695   -18825870.447 7 -14268810.38121
  18076755.797   -31221499.949 7 -22363530.93423
  18612127.6334   -4540967.06948  -3486406.12264
 91  5  7 22 51 44.9920000  0  4G15G13G 6G 2
  21192902.766    -8803846.984 6  -6758224.50121
  18855302.742   -18875669.863 7 -14307615.04421
  18073019.1494  -31241137.93747 -22378833.25163
  18611336.6954   -4545115.64848  -3489638.77864
 91  5  7 22 51 59.9920000  0  4G15G13G 6G 2
  21192877.859    -8803954.608 6
  18845845.984   -18925355.293 7 -14346330.88721
  18069301.3594  -31260670.91447 -22394053.74163
  18610556.3054   -4549224.73148  -3492840.65664
 91  5  7 22 52 14.9920000  0  4G15G13G 6G 2
  21192882.836    -8803931.907 6
  18836413.328   -18974926.246 7 -14384957.52821
  18065604.7664  -31280098.51847 -22409192.12263
  18609781.8524   -4553293.96648  -3496011.48564
 91  5  7 22 52 29.9920000  0  4G15G13G 6G 2
  21192911.7664   -8803779.17946
  18827002.602   -19024382.815 7 -14423495.03221
  18061928.1804  -31299420.90747 -22424248.52063
  18609014.2034   -4557323.69748  -3499151.53464
 91  5  7 22 52 44.9920000  0  4G15G13G 6G 2
  21192963.984    -8803500.198 6
  18817612.758   -19073728.969 7 -14461946.49521
  18058269.5704  -31318641.70747 -22439225.75763
  18608253.7814   -4561317.88048  -3502263.88264
 91  5  7 22 52 59.9920000  0  4G15G13G 6G 2
  21193041.133    -8803096.067 6  -6757639.29721
  18808243.664   -19122965.197 7 -14500312.30821
  18054630.8834  -31337761.62847 -22454124.38863
  18607501.3594   -4565277.44848  -3505349.25564
 91  5  7 22 53 14.9920000  0  4G15G13G 6G 2
  21193141.2424   -8802559.99745  -6757221.57761
  18798896.899   -19172084.417 7 -14538586.94321
  18051015.5944  -31356773.38047 -22468938.73363
  18606755.7114   -4569195.26848  -3508402.09964
 91  5  7 22 53 29.9920000  0  4G15G13G 6G 2
  21193269.828    -8801897.610 6  -6756705.41721
  18789569.742   -19221091.986 7 -14576774.57921
  18047416.7344  -31375682.31747 -22483672.95963
  18606016.7424   -4573076.96248  -3511426.79364
 91  5  7 22 53 44.9920000  0  4G15G13G 6G 2
  21193418.6954   -8801111.93145  -6756093.19561
  18780264.578   -19269990.900 7 -14614877.54321
  18043835.4844  -31394491.13147 -22498329.16863
  18605285.7584   -4576925.47848  -3514425.63164
 91  5  7 22 53 59.9920000  0  4G15G13G 6G 2
  21193593.1884   -8800197.52545  -6755380.66561
  18770981.031   -19318775.459 7 -14652891.41321
  18040276.9924  -31413194.09247 -22512902.89763
  18604559.0474   -4580735.10048  -3517394.16764
 91  5  7 22 54 14.9920000  0  4G15G13G 6G 2
  21193791.750    -8799146.866 5  -6754561.95721
  18761721.469   -19367437.804 7 -14690810.04521
  18036740.0864  -31431783.41347 -22527388.07663
  18603842.6644   -4584498.32148  -3520326.54164
 91  5  7 22 54 29.9920000  0  4G15G13G 6G 2
  21194017.1724   -8797969.90545  -6753644.84761
  18752482.774   -19415987.360 7 -14728640.78821
  18033221.9304  -31450268.73247 -22541792.21163
  18603134.6174   -4588225.01248  -3523230.45464
 91  5  7 22 54 44.9920000  0  4G15G13G 6G 2
  21194267.0634   -8796667.34045  -6752629.85561
  18743265.899   -19464424.557 7 -14766383.98321
  18029724.4924  -31468650.61647 -22556115.75163
  18602430.0784   -4591915.88748  -3526106.45664
 91  5  7 22 54 59.9920000  0  4G15G13G 6G 2
  21194537.9534   -8795233.89245  -6751512.87561
  18734070.266   -19512744.009 7 -14804035.42921
  18026247.4454  -31486923.46047 -22570354.32663
  18601737.9224   -4595565.40648  -3528950.22964
 91  5  7 22 55 14.9920000  0  4G15G13G 6G 2
  21194832.8444   -8793670.64145  -6750294.74761
  18724897.453   -19560946.691 7 -14841595.88421
  18022791.2584  -31505087.83247 -22584508.37663
  18601050.1094   -4599174.63748  -3531762.61664
 91  5  7 22 55 29.9920000  0  4G15G13G 6G 2
  21195155.969    -8791994.302 5  -6748988.50321
  18715745.781   -19609048.748 7 -14879077.93021
  18019350.9844  -31523160.22347 -22598590.74863
  18600368.4064   -4602759.92548  -3534556.34064
 91  5  7 22 55 44.9920000  0  4G15G13G 6G 2
  21195498.859    -8790176.303 5  -6747571.87121
  18706614.086   -19657021.437 7 -14916459.16921
  18015936.8284  -31541111.73447 -22612578.93163
  18599695.9844   -4606292.77448  -3537309.20664
 91  5  7 22 55 59.9920000  0  4G15G13G 6G 2
  21195874.016    -8788225.757 5  -6746051.94621
  18697511.375   -19704873.857 7 -14953746.69721
  18012539.5704  -31558951.38347 -22626479.94563
  18599031.6644   -4609782.35348  -3540028.35463
 91  5  7 22 56 14.9920000  0  4G15G13G 6G 2
  21196265.4534   -8786152.81545  -6744436.65061
  18688423.672   -19752615.760 7 -14990948.10921
  18009165.3054  -31576688.92647 -22640301.40063
  18598374.2034   -4613238.69948  -3542721.60864
 91  5  7 22 56 29.9920000  0  4G15G13G 6G 2
  21196687.8994   -8783944.14845  -6742715.61861
  18679361.602   -19800233.432 7 -15028052.71321
  18005812.3994  -31594310.41747 -22654032.42163
  18597725.0864   -4616647.97448  -3545378.18264
 91  5  7 22 56 44.9920000  0  4G15G13G 6G 2
  21197133.477    -8781605.377 5  -6740893.18421
  18670323.336   -19847732.204 7 -15065064.67021
  18002480.3134  -31611821.26347 -22667677.22863
  18597084.1414   -4620015.82348  -3548002.47864
 91  5  7 22 56 59.9920000  0  4G15G13G 6G 2
  21197596.563    -8779154.748 5  -6738983.59221
  18661303.563   -19895129.988 7 -15101997.92921
  17999166.7344  -31629239.50047 -22681249.87063
  18596447.7814   -4623360.40048  -3550608.64063
 91  5  7 22 57 14.9920000  0  4G15G13G 6G 2
  21198089.2894   -8776572.45646  -6736971.39161
  18652308.477   -19942406.782 7 -15138836.91721
  17995872.8444  -31646545.05747 -22694734.71063
  18595818.9384   -4626661.94148  -3553181.26763
 91  5  7 22 57 29.9920000  0  4G15G13G 6G 2
  21198604.258    -8773859.883 6  -6734857.68521
  18643333.781   -19989563.925 7 -15175582.66521
  17992601.2194  -31663738.92647 -22708132.52363
  18595199.8754   -4629921.67448  -3555721.31163
 91  5  7 22 57 44.9920000  0  4G15G13G 6G 2
  21199144.602    -8771021.027 6  -6732645.58821
  18634383.359   -20036605.208 7 -15212238.13321
  17989348.4304  -31680824.99047 -22721446.32863
  18594585.9144   -4633143.44848  -3558231.78563
 91  5  7 22 57 59.9920000  0  4G15G13G 6G 2
  21199707.289    -8768056.802 5  -6730335.77721
  18625452.1724  -20083531.45147 -15248803.95261
  17986118.4304  -31697804.05647 -22734676.76263
  18593980.5244   -4636328.26248  -3560713.45463
 91  5  7 22 58 14.9920000  0  4G15G13G 6G 2
  21200296.2194   -8764969.95046  -6727930.42461
  18616544.688   -20130344.767 7 -15285281.78321
  17982906.4454  -31714678.17047 -22747825.41663
  18593381.0164   -4639478.50348  -3563168.18363
 91  5  7 22 58 29.9920000  0  4G15G13G 6G 2
  21200905.5784   -8761766.98146  -6725434.59761
  18607656.281   -20177051.427 7 -15321676.50921
  17979715.4304  -31731453.43847 -22760897.04463
  18592786.7274   -4642600.33648  -3565600.77863
 91  5  7 22 58 44.9920000  0  4G15G13G 6G 2
  21201540.0704   -8758435.60846  -6722838.72061
  18598790.313   -20223638.864 7 -15357978.32921
  17976542.7584  -31748117.40247 -22773881.94263
  18592200.7344   -4645681.43048  -3568001.62763
 91  5  7 22 58 59.9920000  0  4G15G13G 6G 2
  21202202.5084   -8754967.58846  -6720136.35561
  18589949.344   -20270098.384 7 -15394180.47521
  17973394.2194  -31764661.40147 -22786773.36163
  18591623.2744   -4648713.44948  -3570364.23763
 91  5  7 22 59 14.9920000  0  4G15G13G 6G 2
  21202883.8994   -8751372.66745  -6717335.12461
  18581131.578   -20316439.508 7 -15430290.36121
  17970268.1804  -31781094.91747 -22799578.68863
  18591054.4064   -4651706.24948  -3572696.28563
 91  5  7 22 59 29.9920000  0  4G15G13G 6G 2
  21203591.5314   -8747649.55245  -6714433.99561
  18572335.859   -20362660.700 7 -15466306.79521
  17967163.0004  -31797416.29347 -22812296.63263
  18590492.7814   -4654658.09248  -3574996.42363
 91  5  7 22 59 44.9920000  0  4G15G13G 6G 2
  21204328.3914   -8743800.69845  -6711434.88361
  18563561.172   -20408764.217 7 -15502231.53821
  17964077.9924  -31813627.85947 -22824929.01563
  18589937.9384   -4657571.50148  -3577266.61163
 91  5  7 22 59 59.9920000  0  4G15G13G 6G 2
  21205076.7114   -8739841.95045  -6708350.14361
  18554808.281   -20454765.663 7 -15538076.75021
  17961010.8594  -31829744.91447 -22837487.74763
  18589387.8134   -4660462.07548  -3579519.00663
 91  5  7 23  0 14.9920000  0  4G15G13G 6G 2
  21205855.5084   -8735767.63045  -6705175.35661
  18546074.180   -20500659.309 7 -15573837.95621
  17957962.2504  -31845761.79047 -22849968.42263
  18588843.9844   -4663324.16648  -3581749.20463
 91  5  7 23  0 29.9920000  0  4G15G13G 6G 2
  21206649.7504   -8731576.36145  -6701909.42761
  18537361.820   -20546443.248 7 -15609513.68121
  17954934.6334  -31861676.54447 -22862369.51463
  18588305.0084   -4666156.13648  -3583955.93163
 91  5  7 23  0 44.9920000  0  4G15G13G 6G 2
  21207474.2344   -8727256.20945  -6698543.07461
  18528673.234   -20592105.507 7 -15645094.58721
  17951926.8674  -31877476.92047 -22874681.48963
  18587773.4454   -4668945.91348  -3586129.78563
 91  5  7 23  0 59.9920000  0  4G15G13G 6G 2
  21208321.7814   -8722800.97645  -6695071.46561
  18520008.3914  -20637639.35547 -15680575.43561
  17948944.0864  -31893156.55947 -22886899.38263
  18587251.5944   -4671687.09348  -3588265.76863
 91  5  7 23  1 14.9920000  0  4G15G13G 6G 2
  21209191.0164   -8718227.46445  -6691507.69261
  18511364.969   -20683061.332 7 -15715969.10921
  17945979.7894  -31908731.90547 -22899036.00563
  18586736.3524   -4674396.33148  -3590376.85963
 91  5  7 23  1 29.9920000  0  4G15G13G 6G 2
  21210085.5244   -8713532.95545  -6687849.64561
  18502742.594   -20728368.851 7 -15751273.59721
  17943036.1724  -31924199.90647 -22911088.98163
  18586227.1334   -4677070.96148  -3592460.98863
 91  5  7 23  1 44.9910000  0  4G15G13G 6G 2
  21211002.2304   -8708713.31845  -6684094.07661
  18494145.058   -20773553.804 7 -15786482.57821
  17940114.4484  -31939554.72247 -22923053.76163
  18585725.9564   -4679705.84448  -3594514.14263
 91  5  7 23  1 59.9910000  0  4G15G13G 6G 2
  21211945.9874   -8703767.68545  -6680240.32861
  18485568.2374  -20818621.79247 -15821600.42161
  17937213.6204  -31954797.89647 -22934931.55563
  18585232.1984   -4682301.02648  -3596536.36263
 91  5  7 23  2 14.9910000  0  4G15G13G 6G 2
  21212908.5504   -8698706.44745  -6676296.50261
  18477012.331   -20863579.613 7 -15856632.41622
  17934332.5974  -31969938.15147 -22946729.15163
  18584743.8394   -4684866.55448  -3598535.47363
 91  5  7 23  2 29.9910000  0  4G15G13G 6G 2
  21213893.7374   -8693528.31545  -6672261.58761
  18468479.472   -20908425.881 7 -15891577.48522
  17931471.5344  -31984973.75147 -22958445.19463
  18584260.7844   -4687400.63948  -3600510.08263
 91  5  7 23  2 44.9910000  0  4G15G13G 6G 2
  21214904.8394   -8688216.87745  -6668122.79861
  18459970.675   -20953143.749 7 -15926422.50222
  17928632.8704  -31999888.04847 -22970066.71963
  18583788.3164   -4689886.73748  -3602447.30263
 91  5  7 23  2 59.9910000  0  4G15G13G 6G 2
  21215936.4094   -8682789.67046  -6663893.79861
  18451480.8474  -20997750.24147 -15961180.74362
  17925815.8084  -32014698.16547 -22981607.06463
  18583321.6124   -4692342.26148  -3604360.69764
 91  5  7 23  3 14.9910000  0  4G15G13G 6G 2
  21216992.487    -8677233.594 6  -6659564.36921
  18443015.7064  -21042232.07647 -15995841.84162
  17923019.9724  -32029390.81047 -22993055.87363
  18582861.9014   -4694754.19848  -3606240.12863
 91  5  7 23  3 29.9910000  0  4G15G13G 6G 2
  21218072.7454   -8671557.21246  -6655141.21461
  18434574.831   -21086597.677 7 -16030412.36622
  17920244.2064  -32043974.25147 -23004419.58962
  18582410.2694   -4697130.91548  -3608092.11564
 91  5  7 23  3 44.9910000  0  4G15G13G 6G 2
  21219175.8784   -8665771.44046  -6650632.80061
  18426150.9874  -21130857.87147 -16064900.76362
  17917488.8164  -32058458.96747 -23015706.37863
  18581962.9484   -4699482.92848  -3609924.85463
 91  5  7 23  3 59.9910000  0  4G15G13G 6G 2
  21220299.253    -8659865.661 6  -6646030.88921
  18417750.659   -21175001.956 7 -16099298.67922
  17914751.1754  -32072834.19147 -23026907.84463
  18581521.0664   -4701799.53648  -3611730.00764
 91  5  7 23  4 14.9910000  0  4G15G13G 6G 2
  21221445.253    -8653830.815 6  -6641328.39321
  18409374.8474  -21219020.48847 -16133598.76662
  17912038.6914  -32087090.56747 -23038016.70563
  18581089.7614   -4704071.74048  -3613500.55663
 91  5  7 23  4 29.9910000  0  4G15G13G 6G 2
  21222617.0734   -8647683.66646  -6636538.39961
  18401018.144   -21262929.470 7 -16167813.48122
  17909346.8394  -32101244.14547 -23049045.46363
  18580661.6284   -4706315.78448  -3615249.16764
 91  5  7 23  4 44.9910000  0  4G15G13G 6G 2
  21223805.472    -8641415.100 5  -6631653.79621
  18392686.6054  -21306719.83747 -16201935.78262
  17906673.4414  -32115285.81847 -23059987.02163
  18580243.0664   -4708522.53048  -3616968.71563
 91  5  7 23  4 59.9910000  0  4G15G13G 6G 2
  21225025.8704   -8635019.33646  -6626670.08261
  18384376.0114  -21350385.32847 -16235960.76962
  17904024.4014  -32129209.48647 -23070836.62663
  18579830.4254   -4710686.13248  -3618654.63864
 91  5  7 23  5 14.9910000  0  4G15G13G 6G 2
  21226263.5114   -8628516.88645  -6621603.23761
  18376086.6054  -21393946.44447 -16269904.43162
  17901393.6754  -32143035.20847 -23081609.91063
  18579422.4874   -4712826.88748  -3620322.76564
 91  5  7 23  5 29.9910000  0  4G15G13G 6G 2
  21227523.9954   -8621890.00845  -6616439.43861
  18367820.7844  -21437385.09547 -16303752.66262
  17898783.5034  -32156744.93947 -23092292.81762
  18579023.4954   -4714926.83048  -3621959.08763
 91  5  7 23  5 44.9910000  0  4G15G13G 6G 2
  21228809.112    -8615148.250 5  -6611186.10921
  18359576.3554  -21480710.61547 -16337512.74162
  17896196.8784  -32170347.85947 -23102892.48863
  18578630.4564   -4716995.21548  -3623570.81963
 91  5  7 23  5 59.9910000  0  4G15G13G 6G 2
  21230114.1514   -8608282.95745  -6605836.53661
  18351355.0034  -21523913.93147 -16371177.60262
  17893628.8784  -32183835.07047 -23113401.99963
  18578244.1834   -4719023.33648  -3625151.17564
 91  5  7 23  6 14.9910000  0  4G15G13G 6G 2
  21231441.8944   -8601306.60545  -6600400.41461
  18343154.4484  -21567007.47447 -16404756.91862
  17891083.2374  -32197218.77447 -23123830.85262
  18577864.7614   -4721023.51748  -3626709.76363
 91  5  7 23  6 29.9910000  0  4G15G13G 6G 2
  21232788.1914   -8594218.95445  -6594877.56861
  18334974.4334  -21609990.66547 -16438250.25462
  17888555.6284  -32210498.30047 -23134178.53062
  18577487.9484   -4722995.21248  -3628246.15164
 91  5  7 23  6 44.9910000  0  4G15G13G 6G 2
  21234159.6914   -8587012.71545  -6589262.32261
  18326818.3234  -21652855.82147 -16471651.61062
  17886049.9564  -32223666.16147 -23144439.19662
  18577120.4014   -4724931.00548  -3629754.56364
 91  5  7 23  6 59.9910000  0  4G15G13G 6G 2
  21235556.7534   -8579685.90145  -6583553.10561
  18318683.8784  -21695600.60447 -16504959.17162
  17883566.0664  -32236719.86847 -23154610.91062
  18576760.3084   -4726828.50248  -3631233.13564
 91  5  7 23  7 14.9910000  0  4G15G13G 6G 2
  21236972.9564   -8572232.92845  -6577745.59761
  18310573.8944  -21738219.24547 -16538168.43462
  17881104.3554  -32249653.34347 -23164688.94062
  18576406.0344   -4728682.17048  -3632677.55764
 91  5  7 23  7 29.9910000  0  4G15G13G 6G 2
  21238412.9954   -8564666.48145  -6571849.65761
  18302485.6054  -21780724.18047 -16571289.10362
  17878663.8394  -32262479.25547 -23174683.15463
  18576059.4564   -4730504.72248  -3634097.73564
 91  5  7 23  7 44.9910000  0  4G15G13G 6G 2
  21239875.8234   -8556988.93145  -6565867.14461
  18294418.1914  -21823117.81547 -16604323.04762
  17876243.7454  -32275199.66847 -23184595.16162
  18575717.8784   -4732298.25948  -3635495.30464
 91  5  7 23  7 59.9910000  0  4G15G13G 6G 2
  21241355.7694   -8549201.51345  -6559799.03561
  18286371.6054  -21865400.80547 -16637270.77262
  17873842.8864  -32287815.31247 -23194425.53062
  18575381.7534   -4734063.54148  -3636870.85364
 91  5  7 23  8 14.9910000  0  4G15G13G 6G 2
  21242862.9334   -8541293.11445  -6553636.64261
  18278348.4874  -21907561.86447 -16670123.48562
  17871463.7064  -32300314.88447 -23204165.45262
  18575053.3084   -4735789.40948  -3638215.68964
 91  5  7 23  8 29.9910000  0  4G15G13G 6G 2
  21244390.1364   -8533259.89845  -6547376.98961
  18270350.1594  -21949596.82247 -16702877.94161
  17869108.2374  -32312694.06947 -23213811.56463
  18574733.8084   -4737471.82648  -3639526.66964
 91  5  7 23  8 44.9910000  0  4G15G13G 6G 2
  21245944.1124   -8525103.37145  -6541021.25661
  18262374.0974  -21991506.86747 -16735535.05762
  17866775.8624  -32324954.06947 -23223364.81162
  18574420.9414   -4739112.05048  -3640804.77064
 91  5  7 23  8 59.9910000  0  4G15G13G 6G 2
  21247512.706    -8516842.077 5  -6534583.87221
  18254418.9724  -22033310.17247 -16768109.01261
  17864462.4414  -32337112.97847 -23232839.27962
  18574113.9254   -4740728.18748  -3642064.10363
 91  5  7 23  9 14.9910000  0  4G15G13G 6G 2
  21249110.6674   -8508458.01545  -6528050.84061
  18246488.511   -22074988.706 7 -16800585.73121
  17862170.4644  -32349152.73247 -23242220.90162
  18573814.3864   -4742302.36848  -3643290.74063
 91  5  7 23  9 29.9910000  0  4G15G13G 6G 2
  21250726.4874   -8499965.08245  -6521432.96161
  18238578.2144  -22116555.98447 -16832975.75962
  17859898.7304  -32361086.96747 -23251520.30162
  18573520.7924   -4743848.29448  -3644495.36363
 91  5  7 23  9 44.9910000  0  4G15G13G 6G 2
  21252364.7764   -8491356.48345  -6514724.95561
  18230691.1284  -22158005.16547 -16865273.77062
  17857650.5034  -32372908.50347 -23260731.88663
  18573232.2064   -4745359.01148  -3645672.55363
 91  5  7 23  9 59.9910000  0  4G15G13G 6G 2
  21254022.112    -8482643.603 5  -6507935.68521
  18222823.6124  -22199347.46947 -16897488.49362
  17855419.9174  -32384628.54447 -23269864.38162
  18572950.0344   -4746845.91548  -3646831.18263
 91  5  7 23 10 14.9910000  0  4G15G13G 6G 2
  21255701.925    -8473817.605 5  -6501058.28421
  18214978.620   -22240573.697 7 -16929612.77122
  17853209.5734  -32396237.55947 -23278910.36262
  18572673.3164   -4748299.79948  -3647964.08763
 91  5  7 23 10 29.9910000  0  4G15G13G 6G 2
  21257404.4874   -8464869.01945  -6494085.35861
  18207156.573   -22281674.073 7 -16961638.98322
  17851024.8784  -32407725.85947 -23287862.28062
  18572404.1204   -4749710.72648  -3649063.51163
 91  5  7 23 10 44.9910000  0  4G15G13G 6G 2
  21259129.2614   -8455802.33345  -6487020.40861
  18199359.4644  -22322652.77047 -16993570.37862
  17848859.8314  -32419097.59147 -23296723.36762
  18572143.7694   -4751083.12448  -3650132.91563
 91  5  7 23 10 59.9910000  0  4G15G13G 6G 2
  21260875.8474   -8446622.11845  -6479866.99461
  18191583.261   -22363513.825 7 -17025410.10322
  17846717.4954  -32430356.85647 -23305496.81562
  18571889.2064   -4752421.12148  -3651175.51863
 91  5  7 23 11 14.9910000  0  4G15G13G 6G 2
  21262645.730    -8437325.062 5  -6472622.52321
  18183831.5584  -22404253.56947 -17057155.29662
  17844597.8624  -32441499.94547 -23314179.73762
  18571640.8314   -4753721.10548  -3652188.49963
 91  5  7 23 11 29.9910000  0  4G15G13G 6G 2
  21264434.691    -8427916.472 5  -6465291.14421
  18176101.011   -22444877.487 7 -17088810.24822
  17842496.9954  -32452532.14647 -23322776.25762
  18571401.5814   -4754988.66348  -3653176.20663
 91  5  7 23 11 44.9910000  0  4G15G13G 6G 2
  21266248.7064   -8418379.24545  -6457859.55061
  18168395.753   -22485368.108 7 -17120361.32622
  17840423.8554  -32463436.03747 -23331272.79462
  18571169.0504   -4756206.42948  -3654125.12263
 91  5  7 23 11 59.9910000  0  4G15G13G 6G 2
  21268086.8554   -8408736.04745  -6450345.35761
  18160710.558   -22525747.938 7 -17151826.07522
  17838369.4254  -32474234.09847 -23339686.86962
  18570940.6284   -4757396.98548  -3655052.83063
 91  5  7 23 12 14.9910000  0  4G15G13G 6G 2
  21269942.5034   -8398973.15845  -6442737.92761
  18153050.339   -22566002.662 7 -17183193.34022
  17836336.8474  -32484912.06447 -23348007.35762
  18570721.0734   -4758546.03348  -3655948.19563
 91  5  7 23 12 29.9910000  0  4G15G13G 6G 2
  21271823.5114   -8389091.50445  -6435037.92961
  18145414.4414  -22606133.12147 -17214463.77062
  17834326.6674  -32495470.41147 -23356234.64462
  18570513.8084   -4759654.44448  -3656811.89463
 91  5  7 23 12 44.9910000  0  4G15G13G 6G 2
  21273725.581    -8379099.699 5  -6427252.13321
  18137799.0264  -22646147.52447 -17245643.77162
  17832338.6514  -32505917.41847 -23364375.16662
  18570308.4334   -4760730.46248  -3657650.35463
 91  5  7 23 12 59.9910000  0  4G15G13G 6G 2
  21275647.0814   -8369005.71445  -6419386.67861
  18130206.8554  -22686053.92147 -17276739.60562
  17830370.0894  -32516260.79647 -23372434.94162
  18570108.0664   -4761781.83948  -3658469.61663
 91  5  7 23 13 14.9910000  0  4G15G13G 6G 2
  21277589.7694   -8358803.57145  -6411436.96661
  18122634.105   -22725845.813 7 -17307746.22222
  17828422.3004  -32526494.09747 -23380408.94262
  18569912.1834   -4762802.26148  -3659264.75163
 91  5  7 23 13 29.9910000  0  4G15G13G 6G 2
  21279550.1364   -8348493.33045  -6403403.01861
  18115083.034   -22765523.027 7 -17338663.48422
  17826496.6754  -32536617.07147 -23388296.97162
  18569725.0734   -4763791.64147  -3660035.70363
 91  5  7 23 13 44.9910000  0  4G15G13G 6G 2
  21281533.4334   -8338070.16645  -6395281.07661
  18107555.2924  -22805080.54147 -17369487.46562
  17824592.9014  -32546624.68547 -23396095.11262
  18569543.2304   -4764745.03248  -3660778.61263
 91  5  7 23 13 59.9910000  0  4G15G13G 6G 2
  21283539.308    -8327528.011 5  -6387066.42321
  18100053.120   -22844511.855 7 -17400213.11522
  17822712.3164  -32556510.52147 -23403798.36162
  18569369.2304   -4765656.06747  -3661488.51263
 91  5  7 23 14 14.9910000  0  4G15G13G 6G 2
  21285565.1674   -8316884.62045  -6378772.86961
  18092569.597   -22883834.594 7 -17430854.15422
  17820850.8864  -32566292.04747 -23411420.33062
  18569202.3784   -4766542.41447  -3662179.17863
 91  5  7 23 14 29.9910000  0  4G15G13G 6G 2
  21287610.9254   -8306125.20245  -6370388.90361
  18085110.800   -22923033.996 7 -17461399.08922
  17819010.9014  -32575954.45347 -23418949.48063
  18569039.5264   -4767389.36147  -3662839.14163
 91  5  7 23 14 44.9910000  0  4G15G13G 6G 2
  21289678.4014   -8295263.59145  -6361925.31861
  18077671.097   -22962123.248 7 -17491858.19622
  17817192.9094  -32585510.68147 -23426395.89662
  18568883.0814   -4768209.90147  -3663478.52663
 91  5  7 23 14 59.9910000  0  4G15G13G 6G 2
  21291767.1284   -8284301.23845  -6353383.23261
  18070253.425   -23001103.495 7 -17522232.36322
  17815395.8164  -32594962.11447 -23433760.64962
  18568732.6914   -4769005.57547  -3664098.53863
 91  5  7 23 15 14.9910000  0  4G15G13G 6G 2
  21293875.8554   -8273221.12945  -6344749.37861
  18062860.987   -23039957.513 7 -17552508.16322
  17813618.6124  -32604291.16347 -23441030.04262
  18568589.4094   -4769758.88147  -3664685.53663
 91  5  7 23 15 29.9910000  0  4G15G13G 6G 2
  21296002.4254   -8262034.89345  -6336032.82361
  18055488.183   -23078696.940 7 -17582694.68222
  17811865.9014  -32613509.44147 -23448213.11762
  18568450.6054   -4770481.55647  -3665248.66263
 91  5  7 23 15 44.9910000  0  4G15G13G 6G 2
  21298150.7374   -8250734.60045  -6327227.40261
  18048139.776   -23117313.350 7 -17612785.34022
  17810132.8234  -32622608.56747 -23455303.34862
  18568323.6754   -4771165.34647  -3665781.49363
 91  5  7 23 15 59.9910000  0  4G15G13G 6G 2
  21300325.3474   -8239314.63245  -6318328.72061
  18040815.292   -23155801.005 7 -17642775.67222
  17808426.7764  -32631582.76047 -23462296.22462
  18568198.8624   -4771804.41647  -3666279.47563
